[[{"header":{"parameterUnit":"m.s-1","parameterCategory":1,"la1":31.0,"la2":29.5877,"lo1":-88.7671,"lo2":-86.6584,"dx":0.0162,"dy":0.0185,"nx":115,"ny":88,"refTime":"2023-01-12T06:00:00:Z","depth":0,"parameterNumber":2,"parameterNumberName":"U-component_of_WINDS"},"data":[0.0,0.0,0.0,0.0,0.0,0.0,0.0,0.0,0.0,0.0,0.0,0.0,0.0,0.0,0.0,0.0,0.0,0.0,0.0,0.0,0.0,0.0,0.0,0.0,0.0,0.0,0.0,0.0,0.0,0.0,0.0,0.0,0.0,0.0,0.0,0.0,0.0,0.0,0.0,0.0,0.0,0.0,0.0,0.0,0.0,0.0,0.0,0.0,0.0,0.0,0.0,0.0,0.0,0.0,0.0,0.0,0.0,0.0,0.0,0.0,0.0,0.0,0.0,0.0,0.0,0.0,0.0,0.0,0.0,0.0,0.0,0.0,0.0,0.0,0.0,0.0,0.0,0.0,0.0,0.0,0.0,0.0,0.0,0.0,0.0,0.0,0.0,0.0,0.0,0.0,0.0,0.0,0.0,0.0,0.0,0.0,0.0,0.0,0.0,0.0,0.0,0.0,0.0,0.0,0.0,0.0,0.0,0.0,0.0,0.0,0.0,0.0,0.0,0.0,0.0,0.0,0.0,0.0,0.0,0.0,0.0,0.0,0.0,0.0,0.0,0.0,0.0,0.0,0.0,0.0,0.0,0.0,0.0,0.0,0.0,0.0,0.0,0.0,0.0,0.0,0.0,0.0,0.0,0.0,0.0,0.0,0.0,0.0,0.0,0.0,0.0,0.0,0.0,0.0,0.0,0.0,0.0,0.0,0.0,0.0,0.0,0.0,0.0,0.0,0.0,0.0,0.0,0.0,0.0,0.0,0.0,0.0,0.0,0.0,0.0,0.0,0.0,0.0,0.0,0.0,0.0,0.0,0.0,0.0,0.0,0.0,0.0,0.0,0.0,0.0,0.0,0.0,0.0,0.0,0.0,0.0,0.0,0.0,0.0,0.0,0.0,0.0,0.0,0.0,0.0,0.0,0.0,0.0,0.0,0.0,0.0,0.0,0.0,0.0,0.0,0.0,0.0,0.0,0.0,0.0,0.0,0.0,0.0,0.0,0.0,0.0,0.0,0.0,0.0,0.0,0.0,0.0,0.0,0.0,0.0,0.0,0.0,0.0,0.0,0.0,0.0,0.0,0.0,0.0,0.0,0.0,0.0,0.0,0.0,0.0,0.0,0.0,0.0,0.0,0.0,0.0,0.0,0.0,0.0,0.0,0.0,0.0,0.0,0.0,0.0,0.0,0.0,0.0,0.0,0.0,0.0,0.0,0.0,0.0,0.0,0.0,0.0,0.0,0.0,0.0,0.0,0.0,0.0,0.0,0.0,0.0,0.0,0.0,0.0,0.0,0.0,0.0,0.0,0.0,0.0,0.0,0.0,0.0,0.0,0.0,0.0,0.0,0.0,0.0,0.0,0.0,0.0,0.0,0.0,0.0,0.0,0.0,0.0,0.0,0.0,0.0,0.0,0.0,0.0,0.0,0.0,0.0,0.0,0.0,0.0,0.0,0.0,0.0,0.0,0.0,0.0,0.0,0.0,0.0,0.0,0.0,0.0,0.0,0.0,0.0,0.0,0.0,0.0,0.0,0.0,0.0,0.0,0.0,0.0,0.0,0.0,0.0,0.0,0.0,0.0,0.0,0.0,0.0,0.0,0.0,0.0,0.0,0.0,0.0,0.0,0.0,0.0,0.0,0.0,0.0,0.0,0.0,0.0,0.0,0.0,0.0,0.0,0.0,0.0,0.0,0.0,0.0,0.0,0.0,0.0,0.0,0.0,0.0,0.0,0.0,0.0,0.0,0.0,0.0,0.0,0.0,0.0,0.0,0.0,0.0,0.0,0.0,0.0,0.0,0.0,0.0,0.0,0.0,0.0,0.0,0.0,0.0,0.0,0.0,0.0,0.0,0.0,0.0,0.0,0.0,0.0,0.0,0.0,0.0,0.0,0.0,0.0,0.0,0.0,0.0,0.0,0.0,0.0,0.0,0.0,0.0,0.0,0.0,0.0,0.0,0.0,0.0,0.0,0.0,0.0,0.0,0.0,0.0,0.0,0.0,0.0,0.0,0.0,0.0,0.0,0.0,0.0,0.0,0.0,0.0,0.0,0.0,0.0,0.0,0.0,0.0,0.0,0.0,0.0,0.0,0.0,0.0,0.0,0.0,0.0,0.0,0.0,0.0,0.0,0.0,0.0,0.0,0.0,0.0,0.0,0.0,0.0,0.0,0.0,0.0,0.0,0.0,0.0,0.0,0.0,0.0,0.0,0.0,0.0,0.0,0.0,0.0,0.0,0.0,0.0,0.0,0.0,0.0,0.0,0.0,0.0,0.0,0.0,0.0,0.0,0.0,0.0,0.0,0.0,0.0,0.0,0.0,0.0,0.0,0.0,0.0,0.0,0.0,0.0,0.0,0.0,0.0,0.0,0.0,0.0,0.0,0.0,0.0,0.0,0.0,0.0,0.0,0.0,0.0,0.0,0.0,0.0,0.0,0.0,0.0,0.0,0.0,0.0,0.0,0.0,0.0,0.0,0.0,0.0,0.0,0.0,0.0,0.0,0.0,0.0,0.0,0.0,0.0,0.0,0.0,0.0,0.0,0.0,0.0,0.0,0.0,0.0,0.0,0.0,0.0,0.0,0.0,0.0,0.0,0.0,0.0,0.0,0.0,0.0,0.0,0.0,0.0,0.0,0.0,0.0,0.0,0.0,0.0,0.0,0.0,0.0,0.0,0.0,0.0,0.0,0.0,0.0,0.0,0.0,0.0,0.0,0.0,0.0,0.0,0.0,0.0,0.0,0.0,0.0,0.0,0.0,0.0,0.0,0.0,0.0,0.0,0.0,0.0,0.0,0.0,0.0,0.0,0.0,0.0,0.0,0.0,0.0,0.0,0.0,0.0,0.0,0.0,0.0,0.0,0.0,0.0,0.0,0.0,0.0,0.0,0.0,0.0,0.0,0.0,0.0,0.0,0.0,0.0,0.0,0.0,0.0,0.0,0.0,0.0,0.0,0.0,0.0,0.0,0.0,0.0,0.0,0.0,0.0,0.0,0.0,0.0,0.0,0.0,0.0,0.0,0.0,0.0,0.0,0.0,0.0,0.0,0.0,0.0,0.0,0.0,0.0,0.0,0.0,0.0,0.0,0.0,0.0,0.0,0.0,0.0,0.0,0.0,0.0,0.0,0.0,0.0,0.0,0.0,0.0,0.0,0.0,0.0,0.0,0.0,0.0,0.0,0.0,0.0,0.0,0.0,0.0,0.0,0.0,0.0,0.0,0.0,0.0,0.0,0.0,0.0,0.0,0.0,0.0,0.0,0.0,0.0,0.0,0.0,0.0,0.0,0.0,0.0,0.0,0.0,0.0,0.0,0.0,0.0,0.0,0.0,0.0,0.0,0.0,0.0,0.0,0.0,0.0,0.0,0.0,0.0,0.0,0.0,0.0,0.0,0.0,0.0,0.0,0.0,0.0,0.0,0.0,0.0,0.0,0.0,0.0,0.0,0.0,0.0,0.0,0.0,0.0,0.0,0.0,0.0,0.0,0.0,0.0,0.0,0.0,0.0,0.0,0.0,0.0,0.0,0.0,0.0,0.0,0.0,0.0,0.0,0.0,0.0,0.0,0.0,0.0,0.0,0.0,0.0,0.0,0.0,0.0,0.0,0.0,0.0,0.0,0.0,0.0,0.0,0.0,0.0,0.0,0.0,0.0,0.0,0.0,0.0,0.0,0.0,0.0,0.0,0.0,0.0,0.0,0.0,0.0,0.0,0.0,0.0,0.0,0.0,0.0,0.0,0.0,0.0,0.0,0.0,0.0,0.0,0.0,0.0,0.0,0.0,0.0,0.0,0.0,0.0,0.0,0.0,0.0,0.0,0.0,0.0,0.0,0.0,0.0,0.0,0.0,0.0,0.0,0.0,0.0,0.0,0.0,0.0,0.0,0.0,0.0,0.0,0.0,0.0,0.0,0.0,0.0,0.0,0.0,0.0,0.0,0.0,0.0,0.0,0.0,0.0,0.0,0.0,0.0,0.0,0.0,0.0,0.0,0.0,0.0,0.0,0.0,0.0,0.0,0.0,0.0,0.0,0.0,0.0,0.0,0.0,0.0,0.0,0.0,0.0,0.0,0.0,0.0,0.0,0.0,0.0,0.0,0.0,0.0,0.0,0.0,0.0,0.0,0.0,0.0,0.0,0.0,0.0,0.0,0.0,0.0,0.0,0.0,0.0,0.0,0.0,0.0,0.0,0.0,0.0,0.0,0.0,0.0,0.0,0.0,0.0,0.0,0.0,0.0,0.0,0.0,0.0,0.0,0.0,0.0,0.0,-6.2415,0.0,0.0,0.0,-6.2381,0.0,0.0,0.0,0.0,0.0,0.0,0.0,0.0,0.0,0.0,0.0,0.0,0.0,0.0,0.0,0.0,0.0,0.0,0.0,0.0,0.0,0.0,0.0,0.0,0.0,0.0,0.0,0.0,0.0,0.0,0.0,0.0,0.0,0.0,0.0,0.0,0.0,0.0,0.0,0.0,0.0,0.0,0.0,0.0,0.0,0.0,0.0,0.0,0.0,0.0,0.0,0.0,0.0,0.0,0.0,0.0,0.0,0.0,0.0,0.0,0.0,0.0,0.0,0.0,0.0,0.0,0.0,0.0,0.0,0.0,0.0,0.0,0.0,0.0,0.0,0.0,0.0,0.0,0.0,0.0,0.0,0.0,0.0,0.0,0.0,0.0,0.0,0.0,0.0,0.0,0.0,0.0,0.0,0.0,0.0,0.0,0.0,0.0,0.0,0.0,0.0,0.0,0.0,0.0,0.0,0.0,0.0,0.0,0.0,0.0,-6.2415,-6.2415,-6.2415,-6.2415,-6.2381,0.0,0.0,0.0,0.0,0.0,0.0,0.0,0.0,0.0,0.0,0.0,0.0,0.0,0.0,0.0,0.0,0.0,0.0,0.0,0.0,0.0,0.0,0.0,0.0,0.0,0.0,0.0,0.0,0.0,0.0,0.0,0.0,0.0,0.0,0.0,0.0,0.0,0.0,0.0,0.0,0.0,0.0,0.0,0.0,0.0,0.0,0.0,0.0,0.0,0.0,0.0,0.0,0.0,0.0,0.0,0.0,0.0,0.0,0.0,0.0,0.0,0.0,0.0,0.0,0.0,0.0,0.0,0.0,0.0,0.0,0.0,0.0,0.0,0.0,0.0,0.0,0.0,0.0,0.0,0.0,0.0,0.0,0.0,0.0,0.0,0.0,0.0,0.0,0.0,0.0,0.0,0.0,0.0,0.0,0.0,0.0,0.0,0.0,0.0,0.0,0.0,0.0,0.0,0.0,0.0,0.0,0.0,0.0,0.0,0.0,0.0,0.0,-6.242,-6.243,-6.23,0.0,0.0,0.0,0.0,0.0,0.0,0.0,0.0,0.0,0.0,0.0,0.0,0.0,0.0,0.0,0.0,0.0,0.0,0.0,0.0,0.0,0.0,0.0,0.0,0.0,0.0,0.0,0.0,0.0,0.0,0.0,0.0,0.0,0.0,0.0,0.0,0.0,0.0,0.0,0.0,0.0,0.0,0.0,0.0,0.0,0.0,0.0,0.0,0.0,0.0,0.0,0.0,0.0,0.0,0.0,0.0,0.0,0.0,0.0,0.0,0.0,0.0,0.0,0.0,0.0,0.0,0.0,0.0,0.0,0.0,0.0,0.0,0.0,0.0,0.0,0.0,0.0,0.0,0.0,0.0,0.0,0.0,0.0,0.0,0.0,0.0,0.0,0.0,0.0,0.0,0.0,0.0,0.0,0.0,0.0,0.0,0.0,0.0,0.0,0.0,0.0,0.0,0.0,0.0,0.0,0.0,0.0,0.0,0.0,0.0,-6.2415,-6.2415,-6.2576,0.0,-6.1862,0.0,0.0,0.0,0.0,0.0,0.0,0.0,0.0,0.0,0.0,0.0,0.0,0.0,0.0,0.0,0.0,0.0,0.0,0.0,0.0,0.0,0.0,0.0,0.0,0.0,0.0,0.0,0.0,0.0,0.0,0.0,0.0,0.0,0.0,0.0,0.0,0.0,0.0,0.0,0.0,0.0,0.0,0.0,0.0,0.0,0.0,0.0,0.0,0.0,0.0,0.0,0.0,0.0,0.0,0.0,0.0,0.0,0.0,0.0,0.0,0.0,0.0,0.0,0.0,0.0,0.0,0.0,0.0,0.0,0.0,0.0,0.0,0.0,0.0,0.0,0.0,0.0,0.0,0.0,0.0,0.0,0.0,0.0,0.0,0.0,0.0,0.0,0.0,0.0,0.0,0.0,0.0,0.0,0.0,0.0,0.0,0.0,0.0,0.0,0.0,0.0,0.0,0.0,0.0,0.0,0.0,0.0,0.0,0.0,0.0,-6.2415,-6.2415,-6.2459,-6.2072,0.0,0.0,0.0,0.0,0.0,0.0,0.0,0.0,0.0,0.0,0.0,0.0,0.0,0.0,0.0,0.0,0.0,0.0,0.0,0.0,0.0,0.0,0.0,0.0,0.0,0.0,0.0,0.0,0.0,0.0,0.0,0.0,0.0,0.0,0.0,0.0,0.0,0.0,0.0,0.0,0.0,0.0,0.0,0.0,0.0,0.0,0.0,0.0,0.0,0.0,0.0,0.0,0.0,0.0,0.0,0.0,0.0,0.0,0.0,0.0,0.0,0.0,0.0,0.0,0.0,0.0,0.0,0.0,0.0,0.0,0.0,0.0,0.0,0.0,0.0,0.0,0.0,0.0,0.0,0.0,0.0,0.0,0.0,0.0,0.0,0.0,0.0,0.0,0.0,0.0,0.0,0.0,0.0,0.0,0.0,0.0,0.0,0.0,0.0,0.0,0.0,0.0,0.0,0.0,0.0,0.0,0.0,0.0,0.0,0.0,-6.2415,-6.2459,-6.2576,-6.2498,-6.1936,-6.074,0.0,0.0,0.0,0.0,0.0,0.0,0.0,0.0,0.0,0.0,0.0,0.0,0.0,0.0,0.0,0.0,0.0,0.0,0.0,0.0,0.0,0.0,0.0,0.0,0.0,0.0,0.0,0.0,0.0,0.0,0.0,0.0,0.0,0.0,0.0,0.0,0.0,0.0,0.0,0.0,0.0,0.0,0.0,0.0,0.0,0.0,0.0,0.0,0.0,0.0,0.0,0.0,0.0,0.0,0.0,0.0,0.0,0.0,0.0,0.0,0.0,0.0,0.0,0.0,0.0,0.0,0.0,0.0,0.0,0.0,0.0,0.0,0.0,0.0,0.0,0.0,0.0,0.0,0.0,0.0,0.0,0.0,0.0,0.0,0.0,0.0,0.0,0.0,0.0,0.0,0.0,0.0,0.0,0.0,0.0,0.0,0.0,0.0,0.0,0.0,0.0,0.0,0.0,0.0,0.0,0.0,0.0,0.0,-6.2415,-6.2415,-6.2576,-6.2962,-6.277,-6.2245,0.0,0.0,0.0,0.0,0.0,0.0,0.0,0.0,0.0,0.0,0.0,0.0,0.0,0.0,0.0,0.0,0.0,0.0,0.0,0.0,0.0,0.0,0.0,0.0,0.0,0.0,0.0,0.0,0.0,0.0,0.0,0.0,0.0,0.0,0.0,0.0,0.0,0.0,0.0,0.0,0.0,0.0,0.0,0.0,0.0,0.0,0.0,0.0,0.0,0.0,0.0,0.0,0.0,0.0,0.0,0.0,0.0,0.0,0.0,0.0,0.0,0.0,0.0,0.0,0.0,0.0,0.0,0.0,0.0,0.0,0.0,0.0,0.0,0.0,0.0,0.0,0.0,0.0,0.0,0.0,0.0,0.0,0.0,0.0,0.0,0.0,0.0,0.0,0.0,0.0,0.0,0.0,0.0,0.0,0.0,0.0,0.0,0.0,0.0,0.0,0.0,0.0,0.0,0.0,0.0,0.0,0.0,0.0,0.0,-6.2415,-6.2415,-6.2779,-6.3606,-6.3459,-6.2845,0.0,0.0,0.0,0.0,0.0,0.0,0.0,0.0,0.0,0.0,0.0,0.0,0.0,0.0,0.0,0.0,0.0,0.0,0.0,0.0,0.0,0.0,0.0,0.0,0.0,0.0,0.0,0.0,0.0,0.0,0.0,0.0,0.0,0.0,0.0,0.0,0.0,0.0,0.0,0.0,0.0,0.0,0.0,0.0,0.0,0.0,0.0,0.0,0.0,0.0,0.0,0.0,0.0,0.0,0.0,0.0,0.0,0.0,0.0,0.0,0.0,0.0,0.0,0.0,0.0,0.0,0.0,0.0,0.0,0.0,0.0,0.0,0.0,0.0,0.0,0.0,0.0,0.0,0.0,0.0,0.0,0.0,0.0,0.0,0.0,0.0,0.0,0.0,0.0,0.0,0.0,0.0,0.0,0.0,0.0,0.0,0.0,0.0,0.0,0.0,0.0,0.0,0.0,0.0,0.0,0.0,0.0,0.0,0.0,-6.242,-6.2697,-6.3199,-6.3971,-6.4148,-6.3729,0.0,0.0,0.0,0.0,0.0,0.0,0.0,0.0,0.0,0.0,0.0,0.0,0.0,0.0,0.0,0.0,0.0,0.0,0.0,0.0,0.0,0.0,0.0,0.0,0.0,0.0,0.0,0.0,0.0,0.0,0.0,0.0,0.0,0.0,0.0,0.0,0.0,0.0,0.0,0.0,0.0,0.0,0.0,0.0,0.0,0.0,0.0,0.0,0.0,0.0,0.0,0.0,0.0,0.0,0.0,0.0,0.0,0.0,0.0,0.0,0.0,0.0,0.0,0.0,0.0,0.0,0.0,0.0,0.0,0.0,0.0,0.0,0.0,0.0,0.0,0.0,0.0,0.0,0.0,0.0,0.0,0.0,0.0,0.0,0.0,0.0,0.0,0.0,0.0,0.0,0.0,0.0,0.0,0.0,0.0,0.0,0.0,0.0,0.0,0.0,0.0,0.0,0.0,0.0,0.0,0.0,0.0,0.0,-6.2415,-6.242,-6.3271,-6.3823,-6.4042,-6.4838,-6.4718,0.0,0.0,0.0,0.0,0.0,0.0,0.0,0.0,0.0,0.0,0.0,0.0,0.0,0.0,0.0,0.0,0.0,0.0,0.0,0.0,0.0,0.0,0.0,0.0,0.0,0.0,0.0,0.0,0.0,0.0,0.0,0.0,0.0,0.0,0.0,0.0,0.0,0.0,0.0,0.0,0.0,0.0,0.0,0.0,0.0,0.0,0.0,0.0,0.0,0.0,0.0,0.0,0.0,0.0,0.0,0.0,0.0,0.0,0.0,0.0,0.0,0.0,0.0,0.0,0.0,0.0,0.0,0.0,0.0,0.0,0.0,0.0,0.0,0.0,0.0,0.0,0.0,0.0,0.0,0.0,0.0,0.0,0.0,0.0,0.0,0.0,0.0,0.0,0.0,0.0,0.0,0.0,0.0,0.0,0.0,0.0,0.0,0.0,0.0,0.0,0.0,0.0,0.0,0.0,0.0,0.0,0.0,0.0,0.0,-6.2415,-6.3679,-6.4735,-6.5476,-6.5268,-6.5125,0.0,0.0,0.0,0.0,0.0,0.0,0.0,0.0,0.0,0.0,0.0,0.0,0.0,0.0,0.0,0.0,0.0,0.0,0.0,0.0,0.0,0.0,0.0,0.0,0.0,0.0,0.0,0.0,0.0,0.0,0.0,0.0,0.0,0.0,0.0,0.0,0.0,0.0,0.0,0.0,0.0,0.0,0.0,0.0,0.0,0.0,0.0,0.0,0.0,0.0,0.0,0.0,0.0,0.0,0.0,0.0,0.0,0.0,0.0,0.0,0.0,0.0,0.0,0.0,0.0,0.0,0.0,0.0,0.0,0.0,0.0,0.0,0.0,0.0,0.0,0.0,0.0,0.0,0.0,0.0,0.0,0.0,0.0,0.0,0.0,0.0,0.0,0.0,0.0,0.0,0.0,0.0,0.0,0.0,0.0,0.0,0.0,0.0,0.0,0.0,0.0,0.0,0.0,0.0,0.0,0.0,0.0,0.0,0.0,-6.326,-6.4432,-6.542,-6.6075,-6.5689,-6.5478,-6.553,0.0,0.0,0.0,0.0,0.0,0.0,0.0,0.0,0.0,0.0,0.0,0.0,0.0,0.0,0.0,0.0,0.0,0.0,0.0,0.0,0.0,0.0,0.0,0.0,0.0,0.0,0.0,0.0,0.0,0.0,0.0,0.0,0.0,0.0,0.0,0.0,0.0,0.0,0.0,0.0,0.0,0.0,0.0,0.0,0.0,0.0,0.0,0.0,0.0,0.0,0.0,0.0,0.0,0.0,0.0,0.0,0.0,0.0,0.0,0.0,0.0,0.0,0.0,0.0,0.0,0.0,0.0,0.0,0.0,0.0,0.0,0.0,0.0,0.0,0.0,0.0,0.0,0.0,0.0,0.0,0.0,0.0,0.0,0.0,0.0,0.0,0.0,0.0,0.0,0.0,0.0,0.0,0.0,0.0,0.0,0.0,0.0,0.0,0.0,0.0,0.0,0.0,0.0,0.0,0.0,0.0,0.0,0.0,-6.4681,-6.5495,-6.5959,-6.6003,-6.604,-6.5898,0.0,0.0,0.0,0.0,0.0,0.0,0.0,0.0,0.0,0.0,0.0,0.0,0.0,0.0,0.0,0.0,0.0,0.0,0.0,0.0,0.0,0.0,0.0,0.0,0.0,0.0,0.0,0.0,0.0,0.0,0.0,0.0,0.0,0.0,0.0,0.0,0.0,0.0,0.0,0.0,0.0,0.0,0.0,0.0,0.0,0.0,0.0,0.0,0.0,0.0,0.0,0.0,0.0,0.0,0.0,0.0,0.0,0.0,0.0,0.0,0.0,0.0,0.0,0.0,0.0,0.0,0.0,0.0,0.0,0.0,0.0,0.0,0.0,0.0,0.0,0.0,0.0,0.0,0.0,0.0,0.0,0.0,0.0,0.0,0.0,0.0,0.0,0.0,0.0,0.0,0.0,0.0,0.0,0.0,0.0,0.0,0.0,0.0,0.0,0.0,0.0,0.0,0.0,0.0,0.0,0.0,0.0,0.0,0.0,-6.5392,-6.6147,-6.6719,-6.7061,-6.6031,-6.5801,0.0,0.0,0.0,0.0,0.0,0.0,0.0,0.0,0.0,0.0,0.0,0.0,0.0,0.0,0.0,0.0,0.0,0.0,0.0,0.0,0.0,0.0,0.0,0.0,0.0,0.0,0.0,0.0,0.0,0.0,0.0,0.0,0.0,0.0,0.0,0.0,0.0,0.0,0.0,0.0,0.0,0.0,0.0,0.0,0.0,0.0,0.0,0.0,0.0,0.0,0.0,0.0,0.0,0.0,0.0,0.0,0.0,0.0,0.0,0.0,0.0,0.0,0.0,0.0,0.0,0.0,0.0,0.0,0.0,0.0,0.0,0.0,0.0,0.0,0.0,0.0,0.0,0.0,0.0,0.0,0.0,0.0,0.0,0.0,0.0,0.0,0.0,0.0,0.0,0.0,0.0,0.0,0.0,0.0,0.0,0.0,0.0,0.0,0.0,0.0,0.0,0.0,0.0,0.0,0.0,0.0,0.0,0.0,-6.5174,-6.6576,-6.7133,-6.7686,-6.8285,-6.6422,-6.5612,0.0,0.0,0.0,0.0,0.0,0.0,0.0,0.0,0.0,0.0,0.0,0.0,0.0,0.0,0.0,0.0,0.0,0.0,0.0,0.0,0.0,0.0,0.0,0.0,0.0,0.0,0.0,0.0,0.0,0.0,0.0,0.0,0.0,0.0,0.0,0.0,0.0,0.0,0.0,0.0,0.0,0.0,0.0,0.0,0.0,0.0,0.0,0.0,0.0,0.0,0.0,0.0,0.0,0.0,0.0,0.0,0.0,0.0,0.0,0.0,0.0,0.0,0.0,0.0,0.0,0.0,0.0,0.0,0.0,0.0,0.0,0.0,0.0,0.0,0.0,0.0,0.0,0.0,0.0,0.0,0.0,0.0,0.0,0.0,0.0,0.0,0.0,0.0,0.0,0.0,0.0,0.0,0.0,0.0,0.0,0.0,0.0,0.0,0.0,0.0,0.0,0.0,0.0,0.0,0.0,0.0,0.0,0.0,-6.5665,-6.7861,-6.8243,-6.8702,-6.9279,-6.7142,-6.5691,0.0,0.0,0.0,0.0,0.0,0.0,0.0,0.0,0.0,0.0,0.0,0.0,0.0,0.0,0.0,0.0,0.0,0.0,0.0,0.0,0.0,0.0,0.0,0.0,0.0,0.0,0.0,0.0,0.0,0.0,0.0,0.0,0.0,0.0,0.0,0.0,0.0,0.0,0.0,0.0,0.0,0.0,0.0,0.0,0.0,0.0,0.0,0.0,0.0,0.0,0.0,0.0,0.0,0.0,0.0,0.0,0.0,0.0,0.0,0.0,0.0,0.0,0.0,0.0,0.0,0.0,0.0,0.0,0.0,0.0,0.0,0.0,0.0,0.0,0.0,0.0,0.0,0.0,0.0,0.0,0.0,0.0,0.0,0.0,0.0,0.0,0.0,0.0,0.0,0.0,0.0,0.0,0.0,0.0,0.0,0.0,0.0,0.0,0.0,0.0,0.0,0.0,0.0,0.0,0.0,0.0,0.0,0.0,-6.6804,-6.7861,-6.8581,-6.903,-6.9166,-6.8243,-6.7188,0.0,0.0,0.0,0.0,0.0,0.0,0.0,0.0,0.0,0.0,0.0,0.0,0.0,0.0,0.0,0.0,0.0,0.0,0.0,0.0,0.0,0.0,0.0,0.0,0.0,0.0,0.0,0.0,0.0,0.0,0.0,0.0,0.0,0.0,0.0,0.0,0.0,0.0,0.0,0.0,0.0,0.0,0.0,0.0,0.0,0.0,0.0,0.0,-5.3218,0.0,0.0,0.0,0.0,0.0,0.0,0.0,0.0,0.0,0.0,0.0,0.0,0.0,0.0,0.0,0.0,0.0,0.0,0.0,0.0,0.0,0.0,0.0,0.0,0.0,0.0,0.0,0.0,0.0,0.0,0.0,0.0,0.0,0.0,0.0,0.0,0.0,0.0,0.0,0.0,0.0,0.0,0.0,0.0,0.0,0.0,0.0,0.0,0.0,0.0,0.0,0.0,0.0,0.0,0.0,0.0,0.0,0.0,0.0,-6.7523,-6.8944,-6.9383,-6.9789,-7.0094,-6.9853,-6.8344,0.0,0.0,0.0,0.0,0.0,0.0,0.0,0.0,0.0,0.0,0.0,0.0,0.0,0.0,0.0,0.0,0.0,0.0,0.0,0.0,0.0,0.0,0.0,0.0,0.0,0.0,0.0,0.0,0.0,0.0,0.0,0.0,0.0,0.0,0.0,0.0,0.0,0.0,0.0,0.0,0.0,0.0,0.0,0.0,0.0,0.0,0.0,0.0,0.0,0.0,0.0,0.0,0.0,0.0,0.0,0.0,0.0,0.0,0.0,0.0,0.0,0.0,0.0,0.0,0.0,0.0,0.0,0.0,0.0,0.0,0.0,0.0,0.0,0.0,0.0,0.0,0.0,0.0,0.0,0.0,0.0,0.0,0.0,0.0,0.0,0.0,0.0,0.0,0.0,0.0,0.0,0.0,0.0,0.0,0.0,0.0,0.0,0.0,0.0,0.0,0.0,0.0,0.0,0.0,0.0,0.0,0.0,-6.6483,-6.803,-7.006,-7.0297,-7.0669,-7.1278,-7.1312,-6.9155,-6.4696,0.0,0.0,0.0,0.0,0.0,0.0,0.0,0.0,0.0,0.0,0.0,0.0,0.0,0.0,0.0,0.0,0.0,0.0,0.0,0.0,0.0,0.0,0.0,0.0,0.0,0.0,0.0,0.0,0.0,0.0,0.0,0.0,0.0,0.0,0.0,0.0,0.0,0.0,-5.0186,-5.1225,0.0,0.0,0.0,0.0,0.0,0.0,0.0,0.0,-5.2849,0.0,0.0,0.0,0.0,0.0,0.0,0.0,0.0,0.0,0.0,0.0,0.0,0.0,0.0,0.0,0.0,0.0,0.0,0.0,0.0,0.0,0.0,0.0,0.0,0.0,0.0,0.0,0.0,0.0,0.0,0.0,0.0,0.0,0.0,0.0,0.0,0.0,0.0,0.0,0.0,0.0,0.0,0.0,0.0,0.0,0.0,0.0,0.0,0.0,0.0,0.0,0.0,0.0,0.0,0.0,0.0,-6.6262,-6.7226,-6.8538,-7.0128,-7.0804,-7.1176,-7.1312,-7.1312,-6.9424,-6.557,0.0,0.0,0.0,0.0,0.0,0.0,0.0,0.0,0.0,0.0,0.0,0.0,0.0,0.0,0.0,0.0,0.0,0.0,0.0,0.0,0.0,0.0,0.0,0.0,0.0,0.0,0.0,0.0,0.0,0.0,0.0,0.0,0.0,0.0,0.0,0.0,0.0,0.0,0.0,-5.4037,-5.4605,0.0,0.0,0.0,0.0,0.0,0.0,0.0,0.0,-5.3729,0.0,0.0,0.0,0.0,0.0,0.0,0.0,0.0,0.0,0.0,0.0,0.0,0.0,0.0,0.0,0.0,0.0,0.0,0.0,0.0,0.0,0.0,0.0,0.0,0.0,0.0,0.0,0.0,0.0,0.0,0.0,0.0,0.0,0.0,0.0,0.0,0.0,0.0,0.0,0.0,0.0,0.0,0.0,0.0,0.0,0.0,0.0,0.0,0.0,0.0,0.0,0.0,0.0,0.0,0.0,-6.6516,-6.7701,-6.8796,-6.9913,-7.0314,-7.0436,-7.0482,-7.1007,-6.967,0.0,0.0,0.0,0.0,0.0,0.0,0.0,0.0,0.0,0.0,0.0,0.0,0.0,0.0,0.0,0.0,0.0,0.0,0.0,0.0,0.0,0.0,0.0,0.0,0.0,0.0,0.0,0.0,0.0,0.0,0.0,0.0,0.0,0.0,0.0,0.0,0.0,0.0,0.0,0.0,-5.4524,-5.5103,-5.7029,0.0,0.0,0.0,0.0,0.0,0.0,-5.3909,-5.3607,0.0,0.0,0.0,0.0,0.0,0.0,0.0,0.0,0.0,0.0,0.0,0.0,0.0,0.0,0.0,0.0,0.0,0.0,0.0,0.0,0.0,0.0,0.0,0.0,0.0,0.0,0.0,0.0,0.0,0.0,0.0,0.0,0.0,0.0,0.0,0.0,0.0,0.0,0.0,0.0,0.0,0.0,0.0,0.0,0.0,0.0,0.0,0.0,0.0,0.0,0.0,0.0,0.0,0.0,0.0,-6.6139,-6.7525,-6.8672,-6.9544,-6.9934,-7.0129,-7.0129,-7.1182,-7.0263,0.0,0.0,0.0,0.0,0.0,0.0,0.0,0.0,0.0,0.0,0.0,0.0,0.0,0.0,0.0,0.0,0.0,0.0,0.0,0.0,0.0,0.0,0.0,0.0,0.0,0.0,0.0,0.0,0.0,0.0,0.0,0.0,0.0,0.0,0.0,0.0,0.0,0.0,0.0,0.0,0.0,-5.5568,-5.7936,-5.7577,0.0,0.0,0.0,0.0,-5.3914,-5.3883,0.0,0.0,0.0,0.0,0.0,0.0,0.0,0.0,0.0,0.0,0.0,0.0,0.0,0.0,0.0,0.0,0.0,0.0,0.0,0.0,0.0,0.0,0.0,0.0,0.0,0.0,0.0,0.0,0.0,0.0,0.0,0.0,0.0,0.0,0.0,0.0,0.0,0.0,0.0,0.0,0.0,0.0,0.0,0.0,0.0,0.0,0.0,0.0,0.0,0.0,0.0,0.0,0.0,0.0,0.0,0.0,-6.4077,-6.6079,-6.7782,-6.9148,-7.0766,-7.1571,-7.1571,-7.266,-7.1515,0.0,0.0,0.0,0.0,0.0,0.0,0.0,0.0,0.0,0.0,0.0,0.0,0.0,0.0,0.0,0.0,0.0,0.0,0.0,0.0,0.0,0.0,0.0,0.0,0.0,0.0,0.0,0.0,0.0,0.0,0.0,0.0,0.0,0.0,0.0,0.0,0.0,0.0,0.0,0.0,0.0,-5.6924,-5.7441,-5.7946,-5.7462,0.0,0.0,-5.6182,-5.4413,-5.4896,0.0,0.0,0.0,0.0,0.0,0.0,0.0,0.0,0.0,0.0,0.0,0.0,0.0,0.0,0.0,0.0,0.0,0.0,0.0,0.0,0.0,0.0,0.0,0.0,0.0,0.0,0.0,0.0,0.0,0.0,0.0,0.0,0.0,0.0,0.0,0.0,0.0,0.0,0.0,0.0,0.0,0.0,0.0,0.0,0.0,0.0,0.0,0.0,0.0,0.0,0.0,0.0,0.0,0.0,0.0,-6.2041,-6.435,-6.6259,-6.8055,-6.9691,-7.0507,-7.0873,-7.0906,-7.195,-7.0542,0.0,0.0,0.0,0.0,0.0,0.0,0.0,0.0,0.0,0.0,0.0,0.0,0.0,0.0,0.0,0.0,0.0,0.0,0.0,0.0,0.0,0.0,0.0,0.0,0.0,0.0,0.0,0.0,0.0,0.0,0.0,0.0,0.0,0.0,0.0,0.0,0.0,0.0,0.0,0.0,0.0,0.0,-5.9056,-5.833,0.0,0.0,0.0,-5.6149,-5.4449,0.0,0.0,0.0,0.0,0.0,0.0,0.0,0.0,0.0,0.0,0.0,0.0,0.0,0.0,0.0,0.0,0.0,0.0,0.0,0.0,0.0,0.0,0.0,0.0,0.0,0.0,0.0,0.0,0.0,0.0,0.0,0.0,0.0,0.0,0.0,0.0,0.0,0.0,0.0,0.0,0.0,0.0,0.0,0.0,0.0,0.0,0.0,0.0,0.0,0.0,0.0,0.0,0.0,0.0,0.0,0.0,0.0,-6.4075,-6.669,-6.853,-6.9596,-7.0317,-7.0603,-7.034,-7.1378,0.0,0.0,0.0,0.0,0.0,0.0,0.0,0.0,0.0,0.0,0.0,0.0,0.0,0.0,0.0,0.0,0.0,0.0,0.0,0.0,0.0,0.0,0.0,0.0,0.0,0.0,0.0,-4.8027,0.0,0.0,0.0,0.0,0.0,0.0,0.0,0.0,0.0,0.0,0.0,0.0,0.0,0.0,-5.807,-5.9412,-5.8321,-5.723,0.0,0.0,-5.637,-5.5469,-5.5951,-5.6059,0.0,0.0,0.0,0.0,0.0,0.0,0.0,0.0,0.0,0.0,0.0,0.0,0.0,0.0,0.0,0.0,0.0,0.0,0.0,0.0,0.0,0.0,0.0,0.0,0.0,0.0,0.0,0.0,0.0,0.0,0.0,0.0,0.0,0.0,0.0,0.0,0.0,0.0,0.0,0.0,0.0,0.0,0.0,0.0,0.0,0.0,0.0,0.0,0.0,0.0,0.0,0.0,0.0,0.0,0.0,-6.2112,-6.6892,-6.8963,-6.8188,-7.0731,-7.1649,-7.064,-7.1649,-7.0228,0.0,0.0,0.0,0.0,0.0,0.0,0.0,0.0,0.0,0.0,0.0,0.0,0.0,0.0,0.0,0.0,0.0,0.0,0.0,0.0,0.0,0.0,0.0,0.0,0.0,0.0,0.0,0.0,0.0,0.0,0.0,0.0,0.0,0.0,0.0,0.0,0.0,0.0,0.0,0.0,0.0,-5.6073,-5.6704,-5.7734,-5.8185,0.0,0.0,-5.7329,-5.8235,-5.7616,-5.6916,-5.6677,0.0,0.0,0.0,0.0,0.0,0.0,0.0,0.0,0.0,0.0,0.0,0.0,0.0,0.0,0.0,0.0,0.0,0.0,0.0,0.0,0.0,0.0,0.0,0.0,0.0,0.0,0.0,0.0,0.0,0.0,0.0,0.0,0.0,0.0,0.0,0.0,0.0,0.0,0.0,0.0,0.0,0.0,0.0,0.0,0.0,0.0,0.0,0.0,0.0,0.0,0.0,0.0,0.0,-6.1888,-6.2487,-6.6443,-6.8831,-6.9577,-7.0696,-7.1044,-7.0599,-7.1044,-6.9568,0.0,0.0,0.0,0.0,0.0,0.0,0.0,0.0,0.0,0.0,0.0,0.0,0.0,0.0,0.0,0.0,0.0,0.0,0.0,0.0,0.0,0.0,0.0,0.0,0.0,0.0,0.0,0.0,-4.9823,-4.9314,-4.897,0.0,0.0,0.0,0.0,0.0,0.0,0.0,0.0,0.0,0.0,-5.7746,-5.8293,-5.7882,0.0,0.0,-5.7298,-5.7268,-5.7715,-5.71,-5.6661,-5.6965,-5.581,0.0,0.0,0.0,0.0,0.0,0.0,0.0,0.0,0.0,0.0,0.0,0.0,0.0,0.0,0.0,0.0,0.0,0.0,0.0,0.0,0.0,0.0,0.0,0.0,0.0,0.0,0.0,0.0,0.0,0.0,0.0,0.0,0.0,0.0,0.0,0.0,0.0,0.0,0.0,0.0,0.0,0.0,0.0,0.0,0.0,0.0,0.0,0.0,0.0,0.0,0.0,0.0,-6.2425,-6.3133,-6.6796,-6.9174,-7.0067,-7.0431,-7.0431,-7.0124,-7.0124,-6.8789,0.0,0.0,0.0,0.0,0.0,0.0,0.0,0.0,0.0,0.0,0.0,0.0,0.0,0.0,0.0,0.0,0.0,0.0,0.0,0.0,0.0,0.0,0.0,0.0,0.0,0.0,0.0,0.0,-5.09,-4.9972,-4.9389,0.0,0.0,0.0,0.0,0.0,0.0,0.0,0.0,0.0,0.0,-5.8461,-5.903,-5.8083,-5.7476,-5.8029,-5.767,-5.7493,-5.7892,-5.7416,-5.7077,-5.7385,0.0,0.0,0.0,0.0,0.0,0.0,0.0,0.0,0.0,0.0,0.0,0.0,0.0,0.0,0.0,0.0,0.0,0.0,0.0,0.0,0.0,0.0,0.0,0.0,0.0,0.0,0.0,0.0,0.0,0.0,-6.2302,0.0,0.0,0.0,0.0,0.0,0.0,0.0,0.0,0.0,0.0,0.0,0.0,0.0,0.0,0.0,0.0,0.0,0.0,0.0,0.0,0.0,0.0,-6.3133,-6.3841,-6.8169,-6.9979,-6.9065,-7.001,-7.0067,-6.9006,-6.8948,-6.7993,-6.5965,0.0,0.0,0.0,0.0,0.0,0.0,0.0,0.0,0.0,0.0,0.0,0.0,0.0,0.0,0.0,0.0,0.0,0.0,0.0,0.0,0.0,0.0,0.0,0.0,0.0,0.0,-5.1289,-5.0584,-4.9972,0.0,0.0,0.0,0.0,0.0,0.0,0.0,0.0,0.0,0.0,-5.6308,-5.7416,-5.8105,-5.8465,-5.8773,-5.9045,-5.8321,-5.8141,-5.942,-5.8934,-5.8507,0.0,0.0,0.0,0.0,0.0,0.0,0.0,0.0,0.0,0.0,0.0,0.0,0.0,0.0,0.0,0.0,0.0,0.0,0.0,0.0,0.0,0.0,0.0,0.0,0.0,0.0,0.0,-6.4598,-6.4086,0.0,0.0,0.0,0.0,0.0,0.0,0.0,0.0,0.0,0.0,0.0,-6.4868,-6.5966,0.0,0.0,0.0,0.0,0.0,0.0,0.0,0.0,0.0,0.0,0.0,0.0,-6.3164,-6.3933,-6.7533,-6.9267,-6.8948,-6.9267,-6.9267,-6.8948,-6.8889,-6.7935,-6.5965,0.0,0.0,0.0,0.0,0.0,0.0,0.0,0.0,0.0,0.0,0.0,0.0,0.0,0.0,0.0,0.0,0.0,0.0,0.0,0.0,0.0,0.0,0.0,0.0,0.0,-5.2247,0.0,0.0,0.0,0.0,0.0,0.0,0.0,0.0,0.0,0.0,0.0,-5.473,-5.6256,-5.7603,-5.868,-5.9338,-5.9721,-5.9915,0.0,0.0,0.0,0.0,0.0,0.0,0.0,0.0,0.0,0.0,0.0,0.0,0.0,0.0,-6.6055,-6.1574,-6.0721,-6.092,-6.1649,0.0,0.0,0.0,0.0,0.0,0.0,0.0,0.0,0.0,0.0,0.0,0.0,0.0,0.0,-6.6718,0.0,-6.4955,0.0,0.0,0.0,0.0,0.0,0.0,0.0,0.0,-6.6254,-6.772,-6.8062,-6.9255,-6.9125,0.0,-6.6919,-6.4902,0.0,0.0,0.0,0.0,0.0,0.0,0.0,0.0,-6.3718,-6.4949,-6.7535,-6.8889,-6.8889,-6.8889,-6.8889,-6.8889,-6.8889,-6.8274,-6.6981,-6.6273,-6.4906,0.0,0.0,0.0,0.0,0.0,0.0,0.0,0.0,0.0,0.0,0.0,0.0,0.0,0.0,0.0,0.0,0.0,0.0,0.0,0.0,0.0,0.0,0.0,-5.2845,0.0,0.0,0.0,0.0,0.0,0.0,0.0,0.0,0.0,-5.3264,-5.497,-5.6675,-5.7962,-5.9099,-6.0057,-6.0685,0.0,0.0,0.0,0.0,0.0,0.0,0.0,-5.8922,-6.0897,-6.0015,-5.9764,-6.1751,-6.4638,-6.6899,-6.7418,0.0,0.0,-6.5326,-6.4465,-6.4664,-6.5392,-6.569,-6.6055,-6.6784,-6.7347,-6.7711,0.0,0.0,0.0,0.0,0.0,0.0,0.0,0.0,-6.8941,-6.8819,0.0,-6.7006,0.0,0.0,0.0,0.0,0.0,-6.469,0.0,0.0,-7.0437,-7.1803,-7.1738,-7.2868,-7.2723,-7.1317,-7.0481,-6.8734,-6.601,-6.3964,0.0,0.0,0.0,0.0,0.0,0.0,-6.4888,-6.6827,-6.8212,-6.8889,-6.8889,-6.8889,-6.8889,-6.8889,-6.8889,-6.8889,-6.8797,-6.7042,-6.5852,-6.5447,-6.1775,0.0,0.0,0.0,0.0,0.0,0.0,0.0,0.0,0.0,0.0,0.0,0.0,0.0,0.0,0.0,0.0,0.0,0.0,0.0,0.0,-5.4581,0.0,0.0,0.0,0.0,0.0,0.0,0.0,0.0,0.0,0.0,-5.5478,-5.7004,-5.865,-5.9877,0.0,0.0,0.0,0.0,-6.1931,-6.2526,-6.1849,-6.1232,-6.1204,-6.141,-6.1583,-6.17,0.0,0.0,-6.369,-6.6355,-6.8394,-6.7685,-7.0174,-7.1852,-7.1024,-6.9566,-6.8937,-6.9633,-6.9268,-6.9103,-6.9831,-7.0891,-7.1852,-7.2247,0.0,0.0,0.0,0.0,-7.0321,-7.1041,-7.2692,-7.1768,-7.1045,-7.045,-6.9108,0.0,0.0,0.0,0.0,0.0,0.0,-6.8609,-6.9992,-7.134,-7.2856,-7.4474,-7.4085,-7.3608,-7.3167,-7.137,-7.007,-6.9214,-6.7869,-6.5011,-6.0886,0.0,0.0,0.0,0.0,-6.5842,-6.6919,-6.8212,-6.8889,-6.8889,-6.8889,-6.8889,-6.8889,-6.8889,-6.8889,-6.8889,-6.8335,-6.7381,-6.5852,-6.4432,0.0,0.0,0.0,0.0,0.0,0.0,0.0,0.0,0.0,0.0,0.0,0.0,0.0,0.0,0.0,0.0,0.0,0.0,0.0,-5.2396,-5.3892,-5.4192,0.0,0.0,0.0,0.0,0.0,0.0,0.0,0.0,0.0,-5.859,-5.9159,-5.9668,0.0,0.0,-6.2391,-6.2151,-6.323,-6.3951,-6.3742,-6.3798,0.0,-6.3243,-6.248,-6.2419,-6.3786,-6.4777,-6.5979,-6.8152,-6.9311,-7.0467,-7.188,-7.2961,-7.3475,-7.321,-7.2051,-7.1388,-7.1951,-7.1985,-7.2084,-7.278,-7.3276,-7.3541,-7.4255,-7.3003,-7.2394,-7.2597,-7.3206,-7.2628,-7.3231,-7.457,-7.3748,-7.3202,-7.2671,-7.1337,-6.9975,-6.8569,-6.7229,0.0,0.0,0.0,-7.1406,-7.2893,-7.328,-7.3997,-7.4932,-7.434,-7.3496,-7.2599,-7.0946,-7.0123,-6.9896,-6.8962,-6.6735,-6.3379,0.0,0.0,-6.3903,-6.5472,-6.6765,-6.7689,-6.8458,-6.8889,-6.8889,-6.8889,-6.8889,-6.8889,-6.8889,-6.8889,-6.8889,-6.8772,-6.8129,-6.6963,-6.5735,-6.4205,0.0,0.0,0.0,0.0,0.0,0.0,0.0,0.0,0.0,0.0,0.0,-5.1201,-4.8552,0.0,0.0,0.0,-5.3347,-5.3982,-5.3593,-5.4999,0.0,0.0,0.0,0.0,0.0,0.0,0.0,-5.8231,-5.8979,-5.9697,-6.0745,-6.1104,-6.1253,-6.1283,-6.254,-6.344,-6.3472,0.0,-6.5081,-6.4737,-6.4967,-6.5015,-6.445,-6.3748,-6.3694,-6.4954,-6.6073,-6.7487,-6.989,-7.0878,-7.2004,-7.3679,-7.4221,-7.4221,-7.4221,-7.3442,-7.2978,-7.3442,-7.3541,-7.3707,-7.4155,-7.4221,-7.4221,-7.5676,-7.5608,-7.4221,-7.4052,-7.4695,-7.4695,-7.4924,-7.5325,-7.5082,-7.5018,-7.4919,-7.3562,-7.2106,-7.0535,-6.9457,0.0,-7.1072,-7.2841,-7.439,-7.5676,-7.558,-7.5015,-7.4038,-7.3803,-7.2632,-7.0599,-6.9912,-6.9358,-6.8886,-6.8304,-6.7689,-6.7104,-6.7073,-6.7012,-6.6919,-6.7012,-6.7689,-6.8858,-6.8889,-6.8889,-6.8889,-6.8889,-6.8889,-6.8889,-6.8889,-6.8889,-6.883,-6.8564,-6.8417,-6.8296,-6.6031,-6.4712,-6.4473,0.0,0.0,0.0,0.0,0.0,0.0,0.0,0.0,0.0,0.0,0.0,0.0,0.0,0.0,0.0,-5.5216,0.0,-5.7124,-5.7184,0.0,0.0,0.0,-5.6077,-5.5688,-5.7693,-5.9159,-5.9308,0.0,0.0,-6.2151,-6.278,-6.3199,-6.3288,-6.3739,-6.4427,-6.5288,-6.5435,-6.5577,-6.5455,-6.5509,-6.5348,-6.4973,-6.4851,-6.4978,-6.5446,-6.6757,-6.8264,-6.9833,-7.1342,-7.2782,-7.4019,-7.4221,-7.4221,-7.4221,-7.4155,-7.4221,-7.4155,-7.4188,-7.4188,-7.4221,-7.4221,-7.4221,-7.5676,-7.5642,-7.5303,-7.527,-7.5439,-7.5439,-7.5493,-7.5566,-7.5325,-7.5228,-7.5179,-7.4655,-7.4305,-7.4064,-7.3778,-7.3956,-7.4484,-7.5006,-7.5371,-7.5628,-7.4819,-7.424,-7.3904,-7.2261,-7.1123,-7.0543,-6.96,-6.8996,-6.8858,-6.8735,-6.8581,-6.8427,-6.8427,-6.7904,-6.6981,-6.7904,-6.8581,-6.8889,-6.8889,-6.8889,-6.8889,-6.8889,-6.8772,-6.8505,-6.8741,-6.8713,-6.8269,-6.8358,-6.8298,-6.8059,-6.7245,-6.6311,-6.5287,-6.125,0.0,0.0,0.0,0.0,0.0,0.0,0.0,0.0,0.0,-4.9876,-4.9254,0.0,-5.1376,0.0,-5.6967,-5.8206,-5.7199,-5.7992,0.0,0.0,-5.7483,-5.7633,-5.9488,-5.9338,-5.9697,-6.1194,-6.1672,-6.2301,-6.3408,-6.3444,-6.3802,-6.4784,-6.5022,-6.4991,-6.4478,-6.5305,-6.5801,-6.5572,-6.5475,-6.5348,-6.506,-6.4996,-6.5094,-6.5475,-6.6818,-6.8323,-6.9833,-7.1374,-7.2782,-7.3935,-7.4221,-7.4221,-7.4255,-7.4221,-7.4221,-7.4221,-7.4221,-7.4221,-7.4221,-7.4221,-7.4221,-7.5676,-7.5676,-7.5676,-7.5676,-7.5676,-7.5676,-7.5662,-7.5484,-7.5373,-7.5277,-7.5325,-7.5325,-7.5373,-7.5436,-7.5436,-7.5566,-7.5676,-7.5676,-7.5676,-7.5628,-7.4489,-7.3752,-7.3187,-7.1397,-7.035,-6.9839,-6.9209,-6.8889,-6.8889,-6.8889,-6.8889,-6.8889,-6.8889,-6.852,-6.7843,-6.852,-6.8735,-6.8458,-6.8735,-6.8889,-6.8889,-6.8889,-6.84,-6.7365,-6.8369,-6.8224,-6.6899,-6.7722,-6.7634,-6.6487,-6.613,-6.5621,-6.4811,-6.2138,-6.0033,0.0,0.0,0.0,0.0,0.0,0.0,0.0,0.0,0.0,0.0,0.0,-5.1996,-5.4198,-5.7772,-5.9484,-5.8118,-5.9189,-5.9997,-5.9997,-5.9608,-5.9907,-6.1403,-6.1164,-6.1283,-6.2391,-6.2665,-6.2967,-6.3682,-6.3981,-6.4362,-6.5008,-6.5332,-6.5329,-6.4849,-6.5316,-6.5694,-6.5348,-6.5285,-6.5222,-6.4996,-6.4996,-6.5222,-6.5919,-6.7427,-6.9147,-7.069,-7.2219,-7.3638,-7.483,-7.4867,-7.48,-7.5065,-7.5132,-7.5032,-7.4734,-7.4668,-7.4535,-7.4288,-7.4221,-7.4221,-7.5946,-7.5879,-7.5946,-7.5879,-7.5709,-7.5811,-7.5667,-7.5373,-7.5373,-7.5373,-7.5373,-7.5614,-7.5676,-7.5676,-7.5676,-7.5676,-7.5676,-7.5676,-7.5676,-7.5628,-7.439,-7.329,-7.2261,-7.0957,-6.9839,-6.8948,-6.8889,-6.8889,-6.8889,-6.8889,-6.8889,-6.8889,-6.8889,-6.8828,-6.8766,-6.8828,-6.8612,-6.8058,-6.8427,-6.8643,-6.8612,-6.8643,-6.7754,-6.6098,-6.7816,-6.7825,-6.5799,-6.7088,-6.6972,-6.4985,-6.4572,-6.4336,-6.4246,-6.3265,-6.1585,0.0,-5.8183,0.0,0.0,0.0,0.0,0.0,0.0,0.0,0.0,-5.2098,-5.2822,-5.3978,-5.8368,-6.0697,-5.9727,-6.0685,-6.1373,-6.1403,-6.1882,-6.2241,-6.2241,-6.272,-6.3109,-6.3141,-6.3385,-6.3506,-6.3743,-6.4449,-6.482,-6.4747,-6.5095,-6.5387,-6.5383,-6.5383,-6.5348,-6.506,-6.4996,-6.5089,-6.5141,-6.5141,-6.546,-6.6592,-6.8362,-7.0297,-7.1893,-7.3391,-7.4764,-7.5894,-7.5761,-7.5595,-7.6192,-7.6258,-7.6059,-7.5529,-7.5397,-7.5132,-7.4453,-7.4221,-7.4221,-7.7198,-7.6724,-7.7299,-7.686,-7.5743,-7.6386,-7.627,-7.5614,-7.5614,-7.5614,-7.5662,-7.5709,-7.5676,-7.5676,-7.5676,-7.5676,-7.5676,-7.5676,-7.5676,-7.5662,-7.3566,-7.2526,-7.2154,-7.018,-6.9093,-6.8889,-6.8889,-6.8889,-6.8889,-6.8889,-6.8889,-6.8889,-6.8889,-6.8612,-6.815,0.0,0.0,0.0,-6.7781,-6.7289,-6.7289,-6.7289,-6.6874,-6.5958,-6.7563,0.0,-6.6763,-6.7276,-6.7245,-6.6582,-6.6491,0.0,0.0,0.0,0.0,0.0,0.0,0.0,0.0,0.0,0.0,0.0,-5.2798,-5.2616,-5.247,-5.465,-5.6369,-5.7197,-5.9597,-6.1439,-6.2246,-6.254,-6.272,-6.272,-6.281,-6.2899,-6.2899,-6.3019,-6.32,-6.3416,-6.3476,-6.3832,-6.4567,-6.4673,-6.4777,-6.5182,-6.5163,-6.5094,-6.5124,-6.5124,-6.5031,-6.4996,-6.5054,-6.5199,-6.5664,-6.5751,-6.6347,-6.7779,-6.9366,-7.108,-7.2743,-7.4192,-7.5339,-7.6253,-7.6192,-7.6125,-7.6324,-7.6291,-7.6357,-7.6125,-7.6125,-7.5728,-7.4469,-7.4221,-7.4221,-7.7773,0.0,-7.7693,-7.7438,0.0,-7.6714,-7.6511,-7.6251,-7.5879,-7.5676,-7.5676,-7.5676,-7.5676,-7.5676,-7.5676,-7.5676,-7.5709,-7.5112,-7.4868,-7.4736,-7.2526,-7.1452,-7.1397,-6.9698,-6.8889,-6.8889,-6.8889,-6.8889,-6.8889,-6.8889,-6.8889,-6.8889,-6.8889,-6.8735,-6.8427,-6.8735,-6.8889,-6.8889,-6.8212,-6.7816,-6.7641,-6.7641,-6.695,-6.5541,-6.7236,0.0,0.0,0.0,0.0,0.0,0.0,0.0,0.0,0.0,0.0,-6.0449,-5.7993,-5.5948,-5.472,-5.493,-5.5046,-5.5072,-5.571,-5.5444,-5.3909,-5.6449,-5.8237,-5.8586,-6.0704,-6.2351,-6.3021,-6.3137,-6.3137,-6.3137,-6.3137,-6.3137,-6.3109,-6.3232,-6.3355,-6.3476,-6.38,-6.4175,-6.467,-6.4739,-6.4843,-6.5163,-6.5094,-6.4996,-6.4996,-6.4996,-6.5083,-6.5402,-6.5751,-6.6041,-6.6396,-6.6909,-6.7545,-6.8983,-7.0707,-7.2464,-7.4164,-7.5212,-7.6175,-7.71,-7.7119,-7.6954,-7.7318,-7.7417,-7.7285,-7.6954,-7.6854,-7.6523,-7.5463,-7.5231,-7.5231,-7.828,-7.813,-7.8066,-7.8015,-7.7893,-7.7223,-7.6886,-7.686,0.0,0.0,0.0,-7.5676,-7.5676,-7.5676,-7.5676,-7.5648,-7.5508,-7.4639,-7.4052,-7.3797,-7.1753,-7.0726,-7.0543,-6.941,-6.8889,-6.8889,-6.8889,-6.8889,-6.8889,-6.8889,-6.8889,-6.8889,-6.8889,-6.8889,-6.8889,-6.883,-6.883,-6.88,-6.8584,-6.8286,-6.805,-6.7991,-6.7021,-6.5062,-6.6909,-6.6942,-6.4988,-6.6463,-6.6523,-6.4635,-6.4515,-6.4397,-6.413,-6.2835,-6.2193,-6.2341,-6.1029,-5.9563,-5.7983,-5.7817,-5.7556,-5.7007,-5.8133,-5.7985,-5.5907,-5.8117,-5.9606,-5.9606,-6.1761,-6.3137,-6.3137,-6.3137,-6.3137,-6.3137,-6.3137,-6.3109,-6.32,-6.3385,-6.3535,-6.3683,-6.4144,-6.4506,-6.4589,-6.4838,-6.4996,-6.4996,-6.4996,-6.5054,-6.5141,-6.5199,-6.5373,-6.5809,-6.6331,-6.6854,-6.716,-6.7877,-6.8967,-7.0121,-7.2011,-7.3919,-7.5441,-7.6234,-7.7007,-7.8126,-7.798,-7.7914,-7.8345,-7.8411,-7.8312,-7.7749,-7.7616,-7.745,-7.6887,-7.6689,-7.6589,-7.9348,-7.8691,-7.9483,-7.901,-7.7697,-7.8402,-7.8028,-7.686,-7.6048,-7.5676,-7.5676,-7.5676,-7.5676,-7.5676,-7.5676,-7.5497,-7.5103,-7.4933,-7.4333,-7.3328,-7.2046,-7.1168,-7.0543,-6.941,-6.8889,-6.8889,-6.8889,-6.8889,-6.8889,-6.8889,-6.8889,-6.8889,-6.8889,-6.8889,-6.8889,-6.8623,-6.8446,-6.8446,-6.7344,-6.6736,-6.6647,-6.6384,-6.5971,-6.5466,-6.6793,-6.7306,-6.6671,-6.688,-6.694,-6.658,-6.658,-6.606,-6.4818,-6.3393,-6.2162,-6.0934,-5.9568,-5.8683,-5.8392,-5.8392,-5.8157,-5.7651,-5.8374,-5.8708,-5.8479,-6.035,-6.1588,-6.1649,-6.2559,-6.3137,-6.3137,-6.3139,-6.3169,-6.3196,-6.3166,-6.323,-6.3475,-6.3506,-6.3771,-6.4259,-6.4425,-6.4648,-6.4833,-6.4973,-6.4996,-6.4996,-6.5054,-6.5199,-6.5612,-6.578,-6.5838,-6.5983,-6.6476,-6.7086,-6.7712,-6.8619,-6.9807,-7.1395,-7.3012,-7.4712,-7.6201,-7.6974,-7.7663,-7.837,-7.8378,-7.8378,-7.8511,-7.8511,-7.8444,-7.8279,-7.8225,-7.8159,-7.7973,-7.8039,-7.7709,-7.9702,-7.933,-7.9428,-7.9244,-7.8758,-7.8621,-7.8111,-7.7435,-7.669,-7.6082,-7.5777,-7.6149,-7.6115,-7.5729,-7.5887,-7.5422,-7.44,-7.3563,-7.2668,-7.1798,-7.0651,-7.001,-6.9672,-6.9151,-6.8889,-6.8889,-6.8889,-6.8889,-6.8889,-6.8889,-6.8889,-6.8889,-6.8682,-6.8623,-6.8564,-6.8358,-6.8179,-6.8179,-6.76,-6.7177,-6.7,-6.6851,-6.6612,-6.6252,-6.6913,-6.7182,-6.6999,-6.6999,-6.6999,-6.6999,-6.626,-6.5543,-6.488,-6.284,-6.1301,-6.062,-5.9315,-5.8523,-5.8523,-5.8523,-5.8719,-5.9264,-6.0374,-6.134,-6.2098,-6.2365,-6.2561,-6.2561,-6.3505,-6.4126,-6.4156,-6.4156,-6.4126,-6.4126,-6.395,-6.3921,-6.404,-6.4035,-6.4173,-6.4451,-6.4643,-6.4838,-6.5002,-6.4996,-6.4996,-6.5025,-6.5228,-6.5682,-6.6163,-6.6755,-6.7149,-6.7109,-6.7692,-6.8232,-6.8419,-6.9435,-7.0618,-7.1764,-7.3993,-7.5681,-7.6718,-7.7389,-7.8134,-7.8403,-7.8511,-7.8511,-7.8544,-7.8511,-7.8511,-7.8457,-7.8188,-7.8178,-7.8398,-7.8398,-7.7839,-7.975,-7.9647,-7.9198,-7.9303,-7.9667,-7.8722,-7.8247,-7.8179,-7.7468,-7.6792,-7.6352,-7.6616,-7.6316,-7.5647,-7.5566,-7.476,-7.3423,-7.2141,-7.1188,-7.0375,-6.9542,-6.9043,-6.8889,-6.8889,-6.8889,-6.8889,-6.8889,-6.8889,-6.8889,-6.8889,-6.8889,-6.8889,-6.8595,-6.8386,-6.8386,-6.8059,-6.791,-6.785,-6.7517,-6.7335,-6.7487,-6.7152,-6.6785,-6.6538,-6.6508,-6.6538,-6.6538,-6.6785,-6.6999,-6.6937,-6.5668,-6.4752,-6.4368,-6.2014,-6.051,-6.0096,-5.9105,-5.8523,-5.8523,-5.8523,-5.9105,-6.0483,-6.1975,-6.3366,-6.4602,-6.4293,-6.3837,-6.3813,-6.4485,-6.4994,-6.4964,-6.4934,-6.4964,-6.4905,-6.4636,-6.4455,-6.4482,-6.4464,-6.4535,-6.4618,-6.4804,-6.4967,-6.4996,-6.4996,-6.5054,-6.5257,-6.5711,-6.6192,-6.6793,-6.7909,-6.8457,-6.8465,-6.8867,-6.927,-6.9228,-7.0276,-7.1307,-7.2141,-7.4652,-7.6199,-7.6855,-7.7665,-7.8403,-7.8511,-7.8511,-7.8643,-7.8742,-7.8809,-7.8908,-7.902,-7.8738,-7.8298,-7.8336,-7.8153,-7.7585,-7.9647,-7.944,-7.9336,-7.9544,-7.9701,-7.9229,-7.8991,-7.8923,-7.8213,-7.7874,-7.7626,-7.6691,-7.5882,-7.5065,-7.4122,-7.3012,-7.1903,-7.1636,-7.0981,-7.0047,-6.9841,-6.9474,-6.892,-6.8889,-6.8889,-6.8889,-6.8889,-6.8889,-6.8889,-6.8889,-6.8889,-6.8889,-6.8595,-6.8386,-6.8327,-6.7819,-6.7548,-6.7548,-6.5981,-6.5919,-6.7274,-6.5919,-6.5134,-6.5071,-6.51,-6.5071,-6.529,-6.6322,-6.6999,-6.6908,-6.5605,-6.4303,-6.3037,-6.1436,-6.0027,-5.885,-5.8594,-5.8523,-5.8523,-5.8523,-5.9175,-6.0483,-6.2042,-6.3496,-6.488,-6.5926,-6.6337,-6.58,-6.5263,-6.5144,-6.5024,-6.5024,-6.4964,-6.4814,-6.4664,-6.4482,-6.4552,-6.448,-6.4618,-6.4915,-6.5002,-6.4996,-6.4996,-6.4996,-6.5199,-6.5705,-6.6138,-6.6886,-6.7975,-6.8895,-6.9502,-6.9243,-6.9293,-6.9524,-6.9963,-7.1088,-7.1954,-7.3046,-7.5098,-7.6532,-7.7082,-7.7806,-7.8544,-7.8887,-7.8709,-7.8941,-7.9339,-7.9483,-7.9736,-7.9958,-7.9704,-7.9242,-7.8242,-7.7916,-7.7518,-7.9388,-7.9094,-7.8969,-7.9127,-7.9495,-7.923,-7.9363,-7.9667,-7.8957,-7.8506,-7.8126,-7.6984,-7.5936,-7.5062,-7.4038,-7.2666,-7.1048,-7.074,-7.0159,-6.932,-6.9289,-6.9135,-6.892,-6.8889,-6.8889,-6.8889,-6.8889,-6.8889,-6.8889,-6.8889,-6.883,-6.8595,-6.8298,-6.8059,-6.7879,-6.7396,-6.7182,-6.7182,-6.5668,-6.5261,-6.5668,-6.4496,-6.411,-6.4816,-6.4909,-6.5353,-6.6073,-6.6723,-6.6999,-6.6846,-6.488,-6.3431,-6.284,-6.0647,-5.9105,-5.8594,-5.8523,-5.8523,-5.8523,-5.9245,-6.0372,-6.1773,-6.3235,-6.4624,-6.6011,-6.6661,-6.6849,-6.664,-6.634,-6.6191,-6.6161,-6.6009,-6.5826,-6.5613,-6.5367,-6.5084,-6.5099,-6.4906,-6.4833,-6.4967,-6.4996,-6.4996,-6.4996,-6.4996,-6.5338,-6.6046,-6.6645,-6.7682,-6.9184,-6.9732,-6.9907,-7.0103,-7.0042,-6.9713,-6.9715,-7.047,-7.1737,-7.3167,-7.5163,-7.6882,-7.7909,-7.8607,-7.9364,-7.966,-7.9703,-7.9769,-8.02,-8.0266,-8.0399,-8.0631,-8.0254,-7.9451,-7.8157,-7.8233,-7.811,-7.9094,-7.8883,-7.8777,-7.9022,-7.9407,-7.9382,-7.95,-7.9616,-7.9111,-7.856,-7.7806,-7.6677,-7.5464,-7.4398,-7.3461,-7.2033,-7.048,-6.9856,-6.9351,-6.892,-6.8889,-6.8889,-6.8889,-6.8889,-6.8889,-6.8889,-6.8889,-6.883,-6.8772,-6.8772,-6.8595,-6.8298,-6.803,-6.7729,-6.7487,-6.7182,-6.6785,-6.6322,-6.5007,-6.4368,-6.4174,-6.2906,-6.2906,-6.421,-6.4688,-6.5416,-6.6384,-6.6814,-6.6999,-6.6937,-6.4339,-6.2773,-6.2707,-6.0054,-5.8523,-5.8594,-5.892,-5.9105,-5.9105,-6.0372,-6.184,-6.3235,-6.4339,-6.548,-6.6661,-6.6999,-6.6999,-6.6969,-6.6937,-6.6816,-6.6876,-6.6629,-6.6444,-6.6228,-6.5727,-6.5475,-6.5319,-6.5124,-6.4967,-6.4996,-6.4996,-6.4996,-6.506,-6.5222,-6.5756,-6.6586,-6.7777,-6.8783,-7.0188,-7.0556,-7.0756,-7.0896,-7.0587,-7.0386,-7.0031,-7.1128,-7.222,-7.3879,-7.6101,-7.7575,-7.8675,-7.9341,-7.9997,-8.0102,-8.0509,-8.0829,-8.0962,-8.0995,-8.1017,-8.0936,-8.055,-7.9865,-7.8866,-7.9102,-7.9268,-7.8936,-7.8936,-7.9232,-7.9336,-7.944,-7.9887,-7.9461,-7.8624,-7.8452,-7.7806,-7.6621,-7.5475,-7.4156,-7.2794,-7.1699,-7.0672,-6.9901,-6.9256,-6.8951,-6.8889,-6.8889,-6.8889,-6.8889,-6.8889,-6.8889,-6.8889,-6.8889,-6.8772,-6.8446,-6.8417,-6.8298,-6.803,-6.7729,-6.7548,-6.7426,-6.703,-6.6322,-6.5134,-6.3757,-6.2972,-6.284,-6.1571,-6.1706,-6.3103,-6.4239,-6.5007,-6.5261,-6.6322,-6.6999,-6.6999,-6.4303,-6.2773,-6.2508,-6.0054,-5.8523,-5.8638,-5.975,-6.0483,-6.0688,-6.1908,-6.3235,-6.4496,-6.488,-6.5543,-6.6785,-6.6999,-6.6999,-6.6999,-6.6753,-6.6568,-6.6506,-6.6444,-6.6195,-6.5664,-6.5538,-6.5348,-6.506,-6.506,-6.4996,-6.4996,-6.4996,-6.4996,-6.5031,-6.5823,-6.6527,-6.7593,-6.955,-7.1043,-7.0983,-7.1828,-7.2012,-7.1463,-7.1108,-7.1151,-7.242,-7.2785,-7.4175,-7.5714,-7.6705,-7.8125,-7.8739,-7.9407,-8.0007,-8.0575,-8.094,-8.126,-8.1591,-8.1745,-8.1774,-8.1598,-8.1244,-8.0534,-7.9957,-8.0326,-8.055,-7.8902,-7.8936,-7.9284,-7.9492,-7.9699,-8.0057,-7.9528,-7.8411,-7.8411,-7.7258,-7.5592,-7.4948,-7.3851,-7.2231,-7.1316,-7.0305,-6.9289,-6.8982,-6.8772,-6.8564,-6.8564,-6.8564,-6.8564,-6.8564,-6.8682,-6.8889,-6.8889,-6.8682,-6.8386,-6.8238,-6.7939,-6.7729,-6.7548,-6.7426,-6.703,-6.6136,-6.5416,-6.4816,-6.3525,-6.2773,-6.2906,-6.3141,-6.3627,-6.4081,-6.4624,-6.5353,-6.6198,-6.6723,-6.66,-6.5668,-6.3822,-6.2375,-6.1369,-5.9568,-5.892,-5.975,-6.0303,-6.1029,-6.2042,-6.3366,-6.4368,-6.488,-6.5731,-6.6384,-6.6876,-6.6999,-6.6999,-6.6937,-6.6691,-6.6444,-6.6195,-6.6007,-6.579,-6.5538,-6.5285,-6.5158,-6.506,-6.4996,-6.4996,-6.4996,-6.4996,-6.4996,-6.5216,-6.5823,-6.6902,-6.8301,-7.0127,-7.1442,-7.2213,-7.2693,-7.2581,-7.2142,-7.2235,-7.2794,-7.3925,-7.3889,-7.447,-7.6085,-7.7368,-7.8694,-7.9629,-8.0198,-8.0819,-8.1665,-8.1856,-8.1889,-8.232,-8.2241,-8.2246,-8.1935,-8.1643,-8.1428,-8.1225,-8.1377,-8.1541,-7.883,-7.8936,-7.9284,-7.9544,-7.9801,-8.0107,-7.9288,-7.7893,-7.7785,-7.6476,-7.4505,-7.4205,-7.3224,-7.166,-7.1015,-7.0002,-6.8746,-6.8772,-6.8713,-6.8386,-6.8505,-6.8535,-6.8476,-6.8535,-6.8623,-6.8713,-6.8654,-6.8417,-6.8119,-6.7939,-6.7669,-6.7365,-6.7365,-6.7243,-6.6785,-6.5605,-6.4909,-6.4624,-6.3496,-6.2972,-6.3496,-6.4432,-6.5134,-6.548,-6.5605,-6.6011,-6.6999,-6.6999,-6.6322,-6.4944,-6.3562,-6.1908,-6.0096,-5.9429,-5.9568,-6.0551,-6.1476,-6.2347,-6.3431,-6.4816,-6.5605,-6.5605,-6.6384,-6.6999,-6.6999,-6.6999,-6.6999,-6.6937,-6.6568,-6.6195,-6.6007,-6.563,-6.5348,-6.5348,-6.5222,-6.5187,-6.5187,-6.5285,-6.5222,-6.5216,-6.5263,-6.5286,-6.5414,-6.621,-6.7257,-6.854,-7.0312,-7.1845,-7.242,-7.3096,-7.3027,-7.259,-7.3102,-7.3887,-7.4941,-7.5256,-7.588,-7.7307,-7.8091,-7.9425,-8.0343,-8.0955,-8.1584,-8.2485,-8.2916,-8.2883,-8.2827,-8.2746,-8.2518,-8.2289,-8.1959,-8.1752,-8.1861,-8.2157,-8.2321,-7.8671,-7.8988,-7.9284,-7.9544,-7.9853,-7.9972,-7.8783,-7.6958,-7.6621,-7.5242,-7.3385,-7.3046,-7.2121,-7.0832,-7.0465,-6.9549,-6.8362,-6.8595,-6.8654,-6.8327,-6.8595,-6.8595,-6.8358,-6.8595,-6.8595,-6.8386,-6.815,-6.785,-6.7578,-6.7548,-6.7365,-6.706,-6.706,-6.6908,-6.6937,-6.5416,-6.4781,-6.4554,-6.3422,-6.3459,-6.4688,-6.5036,-6.5668,-6.6723,-6.6723,-6.6661,-6.6846,-6.6846,-6.6136,-6.4816,-6.3431,-6.1436,-5.9455,-5.9777,-6.062,-6.1273,-6.3272,-6.4624,-6.5007,-6.6136,-6.6785,-6.6785,-6.6999,-6.6999,-6.6999,-6.6999,-6.6999,-6.6937,-6.6444,-6.6007,-6.5882,-6.5441,-6.506,-6.506,-6.5222,-6.5348,-6.5538,-6.5756,-6.5849,-6.5621,-6.574,-6.5896,-6.6119,-6.6883,-6.7876,-6.878,-7.0561,-7.2031,-7.2068,-7.3246,-7.3655,-7.3205,-7.3883,-7.5187,-7.5978,-7.6761,-7.7832,-7.8817,-7.9314,-8.0114,-8.0804,-8.1467,-8.1876,-8.2656,-8.3181,-8.3215,-8.3555,-8.3408,-8.3251,-8.3013,-8.2609,-8.2552,-8.2889,-8.3194,-8.2978,-7.8777,-7.9232,-7.9336,-7.9647,-7.9921,-7.9321,-7.8002,-7.6565,-7.5534,-7.4265,-7.3077,-7.2212,-7.1383,-7.0557,-6.9945,-6.9092,-6.806,-6.8209,-6.8059,-6.7819,-6.791,-6.7939,-6.7819,-6.7879,-6.7999,-6.8059,-6.7789,-6.7608,-6.7487,-6.7304,-6.7121,-6.6969,-6.6999,-6.6446,-6.5605,-6.4239,-6.3601,-6.3942,-6.3235,-6.3695,-6.5431,-6.6092,-6.6538,-6.6846,-6.6073,-6.5543,-6.5543,-6.5543,-6.488,-6.3496,-6.2109,-6.0825,-6.0234,-6.0345,-6.1504,-6.3337,-6.4274,-6.5416,-6.626,-6.6661,-6.6999,-6.6999,-6.6999,-6.6999,-6.6999,-6.6999,-6.6999,-6.6937,-6.6382,-6.6037,-6.5882,-6.5378,-6.5124,-6.5285,-6.5222,-6.5378,-6.5845,-6.6075,-6.6119,-6.5886,-6.6251,-6.6535,-6.6847,-6.7736,-6.8813,-6.9689,-7.1633,-7.2882,-7.2962,-7.4069,-7.4856,-7.409,-7.5294,-7.6299,-7.6958,-7.7801,-7.8911,-7.9659,-8.0117,-8.0702,-8.142,-8.204,-8.2412,-8.2897,-8.3366,-8.3687,-8.4052,-8.4069,-8.3821,-8.4069,-8.4077,-8.4168,-8.4283,-8.4142,-8.3778,-7.8936,-7.9388,-7.9492,-7.9459,-7.9288,-7.8485,-7.717,-7.5618,-7.4501,-7.3414,-7.2274,-7.1565,-7.0677,-6.9824,-6.9245,-6.8516,-6.7699,-6.7608,-6.7548,-6.7426,-6.7608,-6.7608,-6.7548,-6.7487,-6.7608,-6.7729,-6.7487,-6.7304,-6.7304,-6.7121,-6.6999,-6.6999,-6.6538,-6.5794,-6.4752,-6.3037,-6.2398,-6.309,-6.2476,-6.3141,-6.5094,-6.5937,-6.6198,-6.6073,-6.5353,-6.4688,-6.421,-6.3627,-6.2906,-6.2042,-6.1029,-6.062,-6.0688,-6.1611,-6.3009,-6.4467,-6.5416,-6.6136,-6.6846,-6.6937,-6.6999,-6.6999,-6.6999,-6.6999,-6.6999,-6.6999,-6.6999,-6.6937,-6.6506,-6.6132,-6.5945,-6.5567,-6.5402,-6.5826,-6.5431,-6.5558,-6.6143,-6.6368,-6.6493,-6.6497,-6.6919,-6.7239,-6.7575,-6.8247,-6.9588,-7.0694,-7.2116,-7.3642,-7.3866,-7.5006,-7.5105,-7.5324,-7.6263,-7.7089,-7.7801,-7.8817,-7.9963,-8.0481,-8.0809,-8.1458,-8.2126,-8.2724,-8.3194,-8.3656,-8.4102,-8.4201,-8.4473,-8.4398,-8.4247,-8.4778,-8.5235,-8.497,-8.4738,-8.4672,-8.4407,-7.9041,-7.9388,-7.9647,-7.9027,-7.8023,-7.7773,-7.6298,-7.4142,-7.3535,-7.2583,-7.1317,-7.0825,-6.9971,-6.8786,-6.8514,-6.7908,-6.712,-6.706,-6.7121,-6.7182,-6.7487,-6.7608,-6.7091,-6.7274,-6.7274,-6.7152,-6.7091,-6.706,-6.706,-6.6969,-6.6967,-6.6719,-6.5752,-6.4804,-6.4144,-6.1979,-6.1643,-6.2537,-6.1493,-6.2248,-6.464,-6.4973,-6.488,-6.4816,-6.4688,-6.4016,-6.2707,-6.1639,-6.0893,-6.062,-6.0688,-6.0756,-6.1369,-6.3496,-6.4752,-6.5134,-6.6322,-6.6723,-6.6999,-6.6999,-6.6999,-6.6999,-6.6999,-6.6999,-6.6999,-6.6999,-6.6937,-6.6876,-6.6568,-6.6257,-6.5945,-6.5718,-6.5792,-6.6172,-6.6031,-6.6192,-6.6642,-6.6627,-6.6902,-6.7334,-6.7691,-6.7928,-6.8024,-6.8739,-6.9986,-7.1118,-7.2298,-7.364,-7.459,-7.5529,-7.5936,-7.6462,-7.7216,-7.796,-7.866,-7.9471,-8.0606,-8.1528,-8.1851,-8.2432,-8.2936,-8.3507,-8.3928,-8.439,-8.457,-8.4668,-8.4866,-8.4919,-8.5103,-8.5556,-8.5633,-8.5302,-8.5235,-8.5335,-8.5136,-7.8777,-7.9041,-7.9094,-7.8551,-7.7533,-7.6701,-7.5353,-7.3657,-7.2027,-7.1315,-7.073,-6.9665,-6.8967,-6.8483,-6.7939,-6.7455,-6.709,-6.6999,-6.6999,-6.703,-6.7182,-6.657,-6.6044,-6.6661,-6.657,-6.5856,-6.66,-6.6999,-6.6999,-6.6937,-6.6622,-6.6055,-6.5548,-6.4538,-6.3086,-6.2244,-6.2159,-6.2452,-6.1765,-6.2069,-6.3772,-6.4605,-6.4368,-6.3431,-6.3366,-6.2641,-6.1369,-6.0825,-6.062,-6.062,-6.062,-6.1678,-6.3403,-6.4496,-6.5416,-6.626,-6.6661,-6.6999,-6.6999,-6.6999,-6.6999,-6.6999,-6.6999,-6.6999,-6.6999,-6.6999,-6.6876,-6.6691,-6.6319,-6.6007,-6.5752,-6.5723,-6.588,-6.6119,-6.6674,-6.6891,-6.6546,-6.7159,-6.7896,-6.7866,-6.8227,-6.845,-6.8885,-7.0057,-7.1369,-7.2261,-7.361,-7.5056,-7.5866,-7.6358,-7.69,-7.738,-7.8023,-7.8817,-7.9565,-8.0239,-8.1187,-8.242,-8.2994,-8.3474,-8.3953,-8.4366,-8.472,-8.5017,-8.4757,-8.4795,-8.5467,-8.586,-8.6184,-8.6185,-8.6461,-8.6362,-8.6362,-8.6395,-8.603,-7.8777,-7.8936,-7.9041,-7.8089,-7.6524,-7.5759,-7.4351,-7.252,-7.1059,-7.0163,-6.9931,-6.8872,-6.8116,-6.7846,-6.7455,-6.7182,-6.6999,-6.6999,-6.6999,-6.6876,-6.6384,-6.5668,-6.5261,-6.5794,-6.5668,-6.5227,-6.6322,-6.6937,-6.6876,-6.6476,-6.5958,-6.5499,-6.4501,-6.34,-6.254,-6.1729,-6.1764,-6.1917,-6.1705,-6.2124,-6.3279,-6.3761,-6.3131,-6.2175,-6.1908,-6.1369,-6.0688,-6.062,-6.062,-6.0825,-6.1678,-6.3206,-6.4688,-6.5543,-6.6136,-6.6999,-6.6999,-6.6999,-6.6999,-6.6999,-6.6999,-6.6999,-6.6999,-6.6999,-6.6999,-6.6999,-6.6876,-6.6753,-6.6382,-6.6218,-6.6134,-6.6212,-6.6273,-6.6484,-6.724,-6.7422,-6.6418,-6.7429,-6.8128,-6.8314,-6.8567,-6.903,-6.9366,-7.1191,-7.2558,-7.3617,-7.4946,-7.6208,-7.7222,-7.7581,-7.7901,-7.8279,-7.9132,-8.0012,-8.0884,-8.1617,-8.2471,-8.3578,-8.4189,-8.4656,-8.4829,-8.516,-8.5307,-8.5379,-8.505,-8.5027,-8.5662,-8.6197,-8.6249,-8.642,-8.7077,-8.7256,-8.709,-8.6991,-8.666,-7.8691,-7.8691,-7.885,-7.7369,-7.5056,-7.4821,-7.3321,-7.1006,-7.0145,-6.9516,-6.8887,-6.8228,-6.7569,-6.6999,-6.709,-6.6999,-6.6999,-6.6999,-6.6874,-6.6379,-6.5504,-6.4589,-6.4698,-6.5002,-6.488,-6.4816,-6.6198,-6.6751,-6.6562,-6.5592,-6.5174,-6.4766,-6.2921,-6.2182,-6.2184,-6.1251,-6.1042,-6.1631,-6.1998,-6.2,-6.2532,-6.2735,-6.2175,-6.0688,-6.0825,-6.0825,-6.0756,-6.0961,-6.1301,-6.1165,-6.3562,-6.4688,-6.5227,-6.6414,-6.6876,-6.6999,-6.6999,-6.6999,-6.6999,-6.6999,-6.6999,-6.6999,-6.6999,-6.6999,-6.6999,-6.6999,-6.6937,-6.6691,-6.6689,-6.6697,-6.6931,-6.7006,-6.7007,-6.7086,-6.7646,-6.7609,-6.7289,-6.758,-6.8218,-6.8712,-6.8799,-6.947,-7.0423,-7.1738,-7.3334,-7.4599,-7.5949,-7.7239,-7.7995,-7.8375,-7.8691,-7.9101,-8.011,-8.1365,-8.2203,-8.3128,-8.3985,-8.4877,-8.5327,-8.5736,-8.5683,-8.5893,-8.5959,-8.5792,-8.4914,-8.4944,-8.5698,-8.6013,-8.6136,-8.6623,-8.723,-8.7289,-8.7256,-8.719,-8.6958,-7.7069,-7.7013,-7.6078,-7.4767,-7.3445,-7.3261,-7.2117,-7.0205,-6.9512,-6.8884,-6.8166,-6.7508,-6.7148,-6.6999,-6.6999,-6.6999,-6.6999,-6.6906,-6.6714,-6.574,-6.4087,-6.3574,-6.4008,-6.4526,-6.4332,-6.4239,-6.5856,-6.6589,-6.6002,-6.5599,-6.4842,-6.3721,-6.3062,-6.2507,-6.2059,-6.2236,-6.2346,-6.2388,-6.2797,-6.2314,-6.1614,-6.2175,-6.1571,-5.9568,-6.0165,-6.062,-6.1165,-6.2811,-6.3887,-6.4146,-6.4531,-6.548,-6.626,-6.6785,-6.6999,-6.6999,-6.6999,-6.6999,-6.6999,-6.6999,-6.6999,-6.6999,-6.6999,-6.6999,-6.6999,-6.7029,-6.6783,-6.6471,-6.6576,-6.7025,-6.7509,-6.7654,-6.7638,-6.7754,-6.8131,-6.8305,-6.7928,-6.8218,-6.8625,-6.8905,-6.947,-7.0252,-7.1153,-7.3256,-7.4672,-7.5618,-7.6776,-7.8125,-7.8691,-7.9037,-7.9416,-7.9764,-8.1216,-8.238,-8.3001,-8.3933,-8.4985,-8.5512,-8.5953,-8.586,-8.5898,-8.5842,-8.5639,-8.511,-8.4443,-8.4857,-8.5548,-8.5734,-8.5857,-8.6623,-8.7289,-8.7289,-8.7289,-8.7289,-8.7289,-7.6249,-7.5675,-7.4944,-7.393,-7.2922,-7.2736,-7.1743,-7.0123,-6.9273,-6.8615,-6.7926,-6.7268,-6.6999,-6.6999,-6.6999,-6.6999,-6.6874,-6.6553,-6.595,-6.5154,-6.4025,-6.3336,-6.3201,-6.4613,-6.5131,-6.4347,-6.6273,-6.6723,-6.5938,-6.5268,-6.4504,-6.3126,-6.2399,-6.1682,-6.1743,-6.256,-6.2856,-6.3004,-6.3357,-6.2922,-6.2018,-6.1571,-6.1369,-6.0096,-6.0825,-6.1908,-6.2811,-6.3952,-6.5163,-6.5668,-6.5886,-6.6136,-6.6785,-6.6999,-6.6999,-6.6999,-6.6999,-6.6999,-6.6999,-6.6999,-6.6999,-6.6999,-6.6999,-6.6999,-6.7027,-6.7115,-6.7076,-6.6849,-6.7005,-6.7347,-6.7791,-6.787,-6.7957,-6.8276,-6.8334,-6.8363,-6.8392,-6.8625,-6.876,-6.9001,-6.9641,-7.0825,-7.2284,-7.4209,-7.5465,-7.6182,-7.6556,-7.7839,-7.8785,-7.9195,-7.9859,-8.065,-8.2202,-8.3307,-8.3804,-8.4646,-8.5768,-8.6058,-8.6141,-8.5633,-8.5168,-8.5108,-8.4984,-8.4539,-8.4219,-8.4571,-8.5172,-8.536,-8.5919,-8.6777,-8.7289,-8.7289,-8.7289,-8.7289,-8.7289,-7.5528,-7.4442,-7.4171,-7.3476,-7.258,-7.2425,-7.143,-6.9879,-6.9243,-6.8525,-6.7807,-6.7208,-6.6999,-6.6999,-6.6999,-6.6937,-6.6648,-6.63,-6.5647,-6.4383,-6.4223,-6.3483,-6.3332,-6.4842,-6.5954,-6.5298,-6.6744,-6.6814,-6.5713,-6.4759,-6.3859,-6.2903,-6.1867,-6.1715,-6.1894,-6.2757,-6.3875,-6.4296,-6.4215,-6.3592,-6.2554,-6.1504,-6.0715,-6.0974,-6.2727,-6.3951,-6.48,-6.5484,-6.597,-6.7057,-6.7059,-6.6999,-6.6999,-6.6999,-6.6999,-6.6999,-6.6999,-6.6999,-6.6999,-6.6999,-6.6999,-6.6999,-6.7148,-6.7178,-6.7236,-6.7436,-6.7482,-6.7462,-6.7554,-6.7677,-6.7995,-6.8102,-6.8334,-6.8567,-6.8305,-6.8392,-6.8799,-6.8973,-6.9031,-6.9263,-7.057,-7.2079,-7.3043,-7.4462,-7.5589,-7.6612,-7.6987,-7.7615,-7.8564,-7.9669,-8.0491,-8.1411,-8.2969,-8.4543,-8.5192,-8.5253,-8.6349,-8.6179,-8.6164,-8.5423,-8.4667,-8.4603,-8.4603,-8.4411,-8.4347,-8.473,-8.5235,-8.5734,-8.638,-8.711,-8.7289,-8.7289,-8.7289,-8.7289,-8.7289,-7.4291,-7.3046,-7.1982,-7.1375,-7.1247,-7.1247,-7.0457,-6.9336,-6.9034,-6.8286,-6.7238,-6.7029,-6.6999,-6.6999,-6.6999,-6.6619,-6.6387,-6.6033,-6.534,-6.4068,-6.3984,-6.3716,-6.4595,-6.5733,-6.6106,-6.586,-6.6556,-6.6421,-6.5295,-6.4205,-6.3253,-6.2571,-6.2931,-6.3323,-6.3901,-6.5529,-6.6022,-6.565,-6.5343,-6.4367,-6.3044,-6.1832,-6.1206,-6.1946,-6.4338,-6.5983,-6.6504,-6.7137,-6.759,-6.7747,-6.7268,-6.7089,-6.6995,-6.6995,-6.7089,-6.6999,-6.6999,-6.6999,-6.6999,-6.6999,-6.6999,-6.7119,-6.7448,-6.7777,-6.7894,-6.7998,-6.8067,-6.7948,-6.7903,-6.8053,-6.8596,-6.8567,-6.8654,-6.877,-6.877,-6.8857,-6.9379,-6.9622,-6.9758,-7.0059,-7.1755,-7.3083,-7.3669,-7.4432,-7.5621,-7.6681,-7.7433,-7.7999,-7.888,-8.0267,-8.1628,-8.262,-8.377,-8.5314,-8.6672,-8.6546,-8.6765,-8.6066,-8.5734,-8.5077,-8.4539,-8.4347,-8.4219,-8.4539,-8.473,-8.4984,-8.5518,-8.6136,-8.6595,-8.717,-8.7289,-8.7289,-8.7289,-8.7289,-8.7289,-7.3598,-7.1822,-7.1148,-7.0709,-7.05,-7.0769,-6.9961,-6.8645,-6.8824,-6.8256,-6.7298,-6.6999,-6.6999,-6.7089,-6.7388,-6.7204,-6.668,-6.5182,-6.4889,-6.4621,-6.4721,-6.5244,-6.6165,-6.7305,-6.7341,-6.6933,-6.6634,-6.5649,-6.4468,-6.399,-6.3058,-6.2482,-6.3231,-6.374,-6.4221,-6.585,-6.6946,-6.6672,-6.5791,-6.4747,-6.3796,-6.289,-6.2907,-6.3879,-6.6067,-6.7736,-6.8028,-6.8199,-6.8495,-6.8435,-6.8196,-6.7641,-6.7301,-6.7492,-6.7687,-6.7117,-6.7029,-6.6999,-6.6999,-6.6999,-6.7119,-6.7508,-6.7837,-6.8073,-6.821,-6.8398,-6.8543,-6.8437,-6.8377,-6.8479,-6.877,-6.876,-6.876,-6.876,-6.8857,-6.9176,-6.9651,-6.9962,-7.0643,-7.1301,-7.2433,-7.3313,-7.332,-7.4336,-7.5652,-7.6682,-7.7715,-7.853,-7.9315,-8.0769,-8.2387,-8.3096,-8.4027,-8.5041,-8.638,-8.6623,-8.6563,-8.5919,-8.5548,-8.492,-8.4603,-8.4475,-8.4857,-8.536,-8.5518,-8.558,-8.589,-8.6535,-8.6897,-8.7196,-8.7289,-8.7289,-8.7289,-8.7289,-8.7289,-7.2923,-7.0709,-7.0709,-7.035,-6.9931,-7.029,-6.9542,-6.8315,-6.8555,-6.8106,-6.7089,-6.6999,-6.6999,-6.7147,-6.74,-6.7495,-6.7094,-6.4496,-6.4528,-6.5304,-6.5516,-6.6225,-6.7725,-6.8576,-6.8458,-6.6749,-6.6087,-6.5076,-6.3929,-6.345,-6.3105,-6.3152,-6.347,-6.4155,-6.5084,-6.7132,-6.7305,-6.6574,-6.561,-6.4769,-6.4315,-6.4576,-6.5001,-6.5436,-6.793,-6.9389,-6.9385,-6.9239,-6.9213,-6.9123,-6.8877,-6.8249,-6.7253,-6.8151,-6.8277,-6.7257,-6.7083,-6.7208,-6.7208,-6.7238,-6.7478,-6.7837,-6.8163,-6.8393,-6.8585,-6.885,-6.8884,-6.8847,-6.8799,-6.877,-6.876,-6.876,-6.876,-6.8857,-6.9041,-6.9535,-7.0632,-7.139,-7.2454,-7.3052,-7.356,-7.4167,-7.483,-7.4795,-7.6243,-7.7495,-7.8498,-7.9345,-8.0161,-8.1463,-8.2768,-8.3348,-8.4058,-8.4729,-8.5548,-8.6013,-8.5919,-8.5548,-8.5485,-8.5235,-8.492,-8.473,-8.533,-8.5984,-8.6319,-8.6441,-8.6717,-8.6837,-8.711,-8.7289,-8.7289,-8.7289,-8.7289,-8.7289,-8.7289,-7.1899,-7.0111,-7.0081,-6.9722,-6.9183,-6.9243,-6.8794,-6.8016,-6.8076,-6.7687,-6.7089,-6.7029,-6.7059,-6.7046,-6.6827,-6.6432,-6.5596,-6.4796,-6.4327,-6.5028,-6.553,-6.6582,-6.762,-6.7791,-6.7478,-6.6207,-6.5076,-6.4436,-6.363,-6.281,-6.3011,-6.3738,-6.5071,-6.6495,-6.7415,-6.8648,-6.9345,-6.7696,-6.6168,-6.4569,-6.3499,-6.4638,-6.6003,-6.7525,-6.9293,-7.053,-7.038,-7.0081,-6.9871,-6.9812,-6.9269,-6.8304,-6.7282,-6.8151,-6.7993,-6.7447,-6.7377,-6.7867,-6.7867,-6.7867,-6.7956,-6.8313,-6.8691,-6.9124,-6.9157,-6.9082,-6.9057,-6.8837,-6.8789,-6.8915,-6.8973,-6.8915,-6.8857,-6.936,-7.0019,-7.1266,-7.2438,-7.3466,-7.4389,-7.5495,-7.6172,-7.6647,-7.7246,-7.6961,-7.6957,-7.8212,-7.928,-8.0063,-8.0945,-8.2091,-8.2958,-8.3442,-8.3798,-8.4411,-8.5047,-8.5423,-8.5772,-8.5395,-8.5523,-8.5648,-8.565,-8.562,-8.5861,-8.6446,-8.681,-8.7017,-8.711,-8.717,-8.7289,-8.7289,-8.7289,-8.7289,-8.7289,-8.7289,-8.7289,-7.0745,-7.0055,-6.9991,-6.9363,-6.8525,-6.8824,-6.8375,-6.7627,-6.7807,-6.7807,-6.7597,-6.7537,-6.7522,-6.7225,-6.6519,-6.5512,-6.4812,-6.4382,-6.4752,-6.547,-6.6376,-6.7631,-6.8862,-6.829,-6.7007,-6.5922,-6.4758,-6.3692,-6.3085,-6.2667,-6.2741,-6.4274,-6.5652,-6.7025,-6.8519,-6.9286,-6.9073,-6.7834,-6.6103,-6.4473,-6.4149,-6.5222,-6.6822,-6.8247,-6.9992,-7.0729,-7.0829,-7.0709,-7.05,-7.0311,-6.953,-6.8099,-6.7035,-6.7035,-6.6832,-6.5612,-6.6929,-6.7929,-6.8489,-6.8492,-6.8704,-6.9,-6.9312,-6.9311,-6.9302,-6.9132,-6.8963,-6.8828,-6.9176,-6.935,-6.9466,-6.9699,-7.0467,-7.1057,-7.1451,-7.3164,-7.4626,-7.5638,-7.6647,-7.7684,-7.8659,-7.9038,-7.9164,-7.8685,-7.8486,-7.9109,-7.9957,-8.0515,-8.1373,-8.2336,-8.295,-8.3374,-8.3668,-8.3961,-8.4539,-8.5047,-8.5938,-8.5972,-8.6137,-8.6263,-8.6542,-8.6663,-8.6905,-8.6947,-8.7116,-8.7263,-8.7322,-8.7289,-8.7289,-8.7289,-8.7289,-8.7289,-8.7289,-8.7289,-8.7289,-6.9632,-6.9482,-6.9482,-6.8794,-6.7777,-6.8286,-6.7926,-6.7148,-6.7717,-6.7956,-6.7954,-6.773,-6.7648,-6.7227,-6.5912,-6.4802,-6.4868,-6.4419,-6.5467,-6.6675,-6.7737,-6.8677,-6.8994,-6.8218,-6.6793,-6.592,-6.4102,-6.3085,-6.2545,-6.2545,-6.3426,-6.4779,-6.6454,-6.7564,-6.8383,-6.8721,-6.8393,-6.6927,-6.5241,-6.4553,-6.4956,-6.6328,-6.781,-6.9124,-7.0206,-7.0919,-7.0919,-7.0889,-7.0889,-7.0015,-6.9332,-6.7871,-6.6216,-6.6188,-6.5838,-6.5359,-6.6594,-6.8218,-6.8773,-6.9104,-6.9509,-6.9714,-6.9719,-6.9464,-6.9124,-6.8895,-6.8973,-6.9118,-6.9437,-6.9757,-7.0047,-7.0424,-7.1287,-7.2291,-7.3334,-7.5197,-7.6933,-7.7936,-7.8815,-7.9696,-8.052,-8.0999,-8.0934,-8.0352,-8.021,-8.0386,-8.0719,-8.1056,-8.1834,-8.2776,-8.3105,-8.3435,-8.3607,-8.3833,-8.4411,-8.5018,-8.5816,-8.6678,-8.6844,-8.7195,-8.7631,-8.7845,-8.7996,-8.7876,-8.772,-8.772,-8.7919,-8.7587,-8.7289,-8.7289,-8.7289,-8.7289,-8.7289,-8.7289,-8.7289,-6.8675,-6.8106,-6.8198,-6.7747,-6.7119,-6.7089,-6.7119,-6.7059,-6.7687,-6.8016,-6.813,-6.7313,-6.7371,-6.6941,-6.539,-6.4756,-6.6005,-6.4824,-6.6174,-6.777,-6.8625,-6.8797,-6.8528,-6.7381,-6.578,-6.4464,-6.3232,-6.2396,-6.247,-6.3646,-6.4851,-6.6244,-6.7151,-6.8112,-6.8451,-6.818,-6.6706,-6.5467,-6.4201,-6.4967,-6.6103,-6.7564,-6.9048,-7.0301,-7.0789,-7.0919,-7.0919,-7.0789,-7.0206,-6.9182,-6.8344,-6.722,-6.5324,-6.5324,-6.4895,-6.4724,-6.6551,-6.793,-6.8486,-6.9341,-6.9897,-6.9948,-6.9856,-6.9553,-6.9176,-6.8954,-6.9089,-6.9641,-6.9989,-7.0359,-7.0581,-7.0923,-7.2187,-7.4021,-7.5695,-7.7309,-7.8937,-8.029,-8.117,-8.1798,-8.2162,-8.243,-8.2331,-8.1681,-8.1582,-8.1729,-8.1467,-8.1709,-8.2548,-8.336,-8.3329,-8.3498,-8.3513,-8.3867,-8.4443,-8.534,-8.6773,-8.7795,-8.8313,-8.863,-8.9099,-8.9155,-8.8999,-8.8857,-8.8647,-8.8581,-8.8449,-8.8184,-8.7852,-8.7455,-8.7289,-8.7289,-8.7289,-8.7289,-8.7289,-6.8226,-6.7926,-6.7537,-6.7238,-6.6999,-6.6999,-6.6999,-6.7119,-6.7687,-6.8495,-6.9086,-6.8327,-6.7507,-6.6656,-6.602,-6.5005,-6.5368,-6.6706,-6.7633,-6.8248,-6.8683,-6.8683,-6.7975,-6.6454,-6.468,-6.3938,-6.2741,-6.2593,-6.3499,-6.4707,-6.5538,-6.6594,-6.711,-6.7907,-6.7975,-6.6958,-6.4978,-6.4038,-6.3892,-6.4995,-6.6356,-6.7936,-6.9625,-7.1326,-7.1009,-7.1188,-7.1237,-7.009,-6.9345,-6.8412,-6.6971,-6.5494,-6.4201,-6.4129,-6.3646,-6.3453,-6.5892,-6.722,-6.7907,-6.9119,-7.0366,-7.0005,-6.9884,-6.978,-6.9457,-6.9408,-6.9757,-7.0221,-7.0726,-7.1225,-7.215,-7.2768,-7.3955,-7.6215,-7.8031,-7.9499,-8.0842,-8.2171,-8.2536,-8.2791,-8.3095,-8.345,-8.3253,-8.2956,-8.2953,-8.2982,-8.2657,-8.2524,-8.3262,-8.397,-8.4033,-8.433,-8.444,-8.5085,-8.576,-8.6878,-8.7922,-8.8725,-8.9623,-8.985,-9.0105,-9.0105,-8.9944,-8.9712,-8.9509,-8.931,-8.9078,-8.8813,-8.8415,-8.7885,-8.7521,-8.7289,-8.7289,-8.7289,-8.7289,-6.7687,-6.7627,-6.7178,-6.6999,-6.6999,-6.6999,-6.7119,-6.7388,-6.8016,-6.8687,-6.9518,-6.8509,-6.7353,-6.6328,-6.5738,-6.588,-6.602,-6.7422,-6.8654,-6.9086,-6.9019,-6.8519,-6.7289,-6.5751,-6.4056,-6.3573,-6.3379,-6.3379,-6.4083,-6.5707,-6.6412,-6.6496,-6.6284,-6.6735,-6.6651,-6.5434,-6.3612,-6.3452,-6.4617,-6.5997,-6.752,-6.9234,-7.0481,-7.205,-7.1816,-7.1391,-7.117,-7.0127,-6.8688,-6.7339,-6.5843,-6.4391,-6.3433,-6.2667,-6.2123,-6.2964,-6.4518,-6.6342,-6.7151,-6.8885,-7.0617,-7.0532,-7.0231,-7.0279,-7.0186,-7.0145,-7.0366,-7.0988,-7.1691,-7.257,-7.3584,-7.454,-7.616,-7.8469,-7.9889,-8.1298,-8.2478,-8.3677,-8.3584,-8.3632,-8.3739,-8.3572,-8.3637,-8.3374,-8.3471,-8.3498,-8.3423,-8.3322,-8.3771,-8.4413,-8.4926,-8.5326,-8.5724,-8.6534,-8.7499,-8.8194,-8.8848,-8.9537,-9.028,-9.0639,-9.0834,-9.0801,-9.0767,-9.0635,-9.037,-9.0039,-8.9807,-8.9608,-8.8979,-8.825,-8.7919,-8.7654,-8.7289,-8.7289,-8.7289,-6.7029,-6.6999,-6.6999,-6.6999,-6.7059,-6.6999,-6.7388,-6.8016,-6.8704,-6.9025,-6.8882,-6.7507,-6.6534,-6.5795,-6.55,-6.5978,-6.7312,-6.8412,-6.9316,-6.9781,-6.875,-6.777,-6.6286,-6.4752,-6.3499,-6.2741,-6.3158,-6.4011,-6.4717,-6.5988,-6.6777,-6.67,-6.6101,-6.5298,-6.5151,-6.427,-6.4168,-6.5186,-6.6934,-6.8174,-6.95,-7.1196,-7.2261,-7.2737,-7.2624,-7.2068,-7.1004,-7.0141,-6.8541,-6.6191,-6.5363,-6.4048,-6.2813,-6.2509,-6.2359,-6.2756,-6.5088,-6.6426,-6.686,-6.9508,-7.0813,-7.1221,-7.1043,-7.0934,-7.1063,-7.1021,-7.0976,-7.1656,-7.2687,-7.3547,-7.4757,-7.6385,-7.8515,-8.027,-8.1657,-8.2788,-8.3877,-8.4272,-8.4047,-8.3833,-8.3513,-8.3274,-8.3537,-8.3634,-8.3828,-8.392,-8.4068,-8.4318,-8.4603,-8.5183,-8.586,-8.6614,-8.711,-8.7858,-8.8661,-8.9153,-8.9779,-9.0469,-9.09,-9.1165,-9.1331,-9.1297,-9.1297,-9.1331,-9.1132,-9.0767,-9.0602,-9.0469,-8.984,-8.9177,-8.8449,-8.8051,-8.762,-8.7289,-8.7289,-6.6999,-6.6999,-6.6999,-6.7238,-6.7597,-6.7627,-6.8016,-6.8704,-6.9393,-6.9853,-6.9677,-6.8142,-6.7476,-6.7301,-6.6788,-6.7022,-6.8258,-6.9706,-7.0498,-6.9153,-6.7907,-6.6356,-6.4967,-6.3865,-6.3085,-6.3526,-6.4229,-6.5985,-6.8013,-6.7635,-6.7438,-6.7385,-6.629,-6.4592,-6.4254,-6.3927,-6.4304,-6.5748,-6.7402,-6.8911,-7.0435,-7.2066,-7.3163,-7.3522,-7.3223,-7.2324,-7.101,-7.0076,-6.7993,-6.5721,-6.49,-6.3887,-6.3171,-6.3069,-6.36,-6.4578,-6.6802,-6.8681,-7.0029,-7.1934,-7.206,-7.206,-7.1753,-7.1649,-7.1864,-7.1534,-7.1772,-7.2578,-7.3901,-7.4892,-7.6184,-7.8318,-8.0296,-8.1881,-8.3137,-8.3894,-8.4589,-8.4368,-8.4091,-8.3931,-8.3636,-8.3699,-8.3862,-8.4537,-8.473,-8.5181,-8.5433,-8.5542,-8.5825,-8.6411,-8.7093,-8.7942,-8.8698,-8.9252,-8.9858,-9.0193,-9.0469,-9.0966,-9.1264,-9.1397,-9.1529,-9.1562,-9.1529,-9.1463,-9.1496,-9.1496,-9.1231,-9.0966,-9.0767,-9.0237,-8.9376,-8.8548,-8.8018,-8.7587,-8.7289,-6.6999,-6.6999,-6.6999,-6.7358,-6.7926,-6.7986,-6.8465,-6.9333,-7.0021,-7.0152,-6.947,-6.8231,-6.7687,-6.7698,-6.7363,-6.7574,-6.8363,-6.8797,-6.9086,-6.7702,-6.6356,-6.5253,-6.4129,-6.3306,-6.3573,-6.4328,-6.5815,-6.7607,-6.9269,-6.8806,-6.8599,-6.8256,-6.7237,-6.6888,-6.6222,-6.6043,-6.6336,-6.7967,-6.9664,-7.0675,-7.1943,-7.3019,-7.3851,-7.4001,-7.367,-7.2808,-7.1149,-6.9543,-6.7792,-6.5996,-6.4677,-6.3958,-6.3931,-6.4439,-6.5021,-6.6243,-6.8021,-7.0284,-7.256,-7.304,-7.3278,-7.3902,-7.2847,-7.2542,-7.2783,-7.2682,-7.3174,-7.4038,-7.5298,-7.6491,-7.7833,-8.0054,-8.1729,-8.3245,-8.3878,-8.4608,-8.4493,-8.4251,-8.3962,-8.3831,-8.3733,-8.3927,-8.4506,-8.5246,-8.5857,-8.6405,-8.6921,-8.7045,-8.709,-8.7613,-8.8237,-8.9055,-8.9708,-9.016,-9.0637,-9.1048,-9.1268,-9.1529,-9.1562,-9.1562,-9.1562,-9.1562,-9.1562,-9.1562,-9.1562,-9.1562,-9.1562,-9.1397,-9.1165,-9.0734,-9.0072,-8.9277,-8.8515,-8.8051,-8.7687,-6.6999,-6.6999,-6.6999,-6.7358,-6.7897,-6.8106,-6.8854,-7.0021,-7.062,-6.9755,-6.782,-6.782,-6.738,-6.6652,-6.5918,-6.6435,-6.7382,-6.7021,-6.6649,-6.6174,-6.511,-6.4419,-6.4129,-6.3938,-6.4283,-6.5529,-6.7228,-6.8993,-6.9952,-7.0263,-7.0135,-6.9499,-6.9198,-6.9133,-6.8965,-6.8835,-6.916,-7.0477,-7.1308,-7.2327,-7.3388,-7.4224,-7.454,-7.4629,-7.4433,-7.3099,-7.1539,-7.0001,-6.7996,-6.6266,-6.4846,-6.4454,-6.4627,-6.5453,-6.5951,-6.7065,-6.9152,-7.1849,-7.3823,-7.3892,-7.4484,-7.4968,-7.3989,-7.3938,-7.4021,-7.4018,-7.4479,-7.5584,-7.6924,-7.8117,-7.9547,-8.127,-8.2972,-8.3832,-8.4374,-8.4504,-8.4315,-8.4025,-8.3766,-8.3602,-8.3537,-8.3892,-8.5149,-8.5986,-8.7014,-8.8079,-8.8661,-8.8924,-8.8993,-8.8925,-8.9447,-8.9903,-9.0486,-9.0869,-9.1282,-9.1533,-9.1596,-9.1562,-9.1562,-9.1562,-9.1562,-9.1562,-9.1562,-9.1562,-9.1562,-9.1562,-9.1562,-9.1562,-9.1529,-9.1066,-9.0602,-9.0072,-8.931,-8.8714,-8.8283,-6.6999,-6.6999,-6.6999,-6.7358,-6.8076,-6.8974,-6.9871,-7.062,-7.0859,-6.969,-6.7791,-6.7725,-6.6921,-6.5918,-6.5649,-6.6028,-6.6367,-6.6412,-6.5652,-6.4967,-6.4201,-6.3499,-6.3379,-6.3846,-6.4953,-6.6733,-6.8675,-7.0868,-7.2139,-7.2413,-7.1266,-7.0103,-7.0679,-7.1101,-7.1494,-7.1364,-7.1856,-7.2156,-7.2728,-7.3485,-7.4287,-7.4839,-7.4988,-7.5018,-7.4988,-7.365,-7.2302,-7.0809,-6.8907,-6.7341,-6.6876,-6.6715,-6.6815,-6.8071,-6.916,-7.0286,-7.1866,-7.3444,-7.4473,-7.4539,-7.4881,-7.5618,-7.4903,-7.476,-7.4965,-7.5298,-7.5643,-7.7074,-7.8521,-7.97,-8.0662,-8.2161,-8.3354,-8.3899,-8.4283,-8.4123,-8.3961,-8.3733,-8.3471,-8.3471,-8.3406,-8.444,-8.5728,-8.6981,-8.8008,-8.9429,-9.0335,-9.047,-9.0508,-9.0355,-9.0324,-9.0678,-9.0933,-9.1249,-9.1375,-9.1562,-9.1562,-9.1562,-9.1562,-9.1562,-9.1562,-9.1562,-9.1562,-9.1562,-9.1562,-9.1562,-9.1562,-9.1562,-9.1562,-9.1562,-9.1198,-9.0701,-9.0138,-8.9442,-8.8747,-6.6999,-6.6999,-6.6999,-6.7358,-6.8014,-6.8491,-6.9033,-6.9536,-6.969,-6.887,-6.7725,-6.6806,-6.6122,-6.554,-6.4931,-6.4858,-6.5411,-6.4608,-6.3938,-6.3573,-6.3426,-6.2815,-6.2768,-6.4227,-6.602,-6.7877,-6.9985,-7.2392,-7.3623,-7.4021,-7.3207,-7.2749,-7.2504,-7.3211,-7.4001,-7.4232,-7.4244,-7.405,-7.4085,-7.4317,-7.4793,-7.5288,-7.5407,-7.5497,-7.5437,-7.4484,-7.3368,-7.1923,-7.0511,-6.91,-6.8875,-6.8941,-6.8984,-6.9951,-7.1907,-7.3009,-7.3716,-7.4668,-7.537,-7.52,-7.5523,-7.5875,-7.5832,-7.567,-7.5861,-7.6194,-7.733,-7.8677,-7.995,-8.1149,-8.1976,-8.2827,-8.3281,-8.3766,-8.3798,-8.3798,-8.3602,-8.3406,-8.334,-8.3372,-8.4021,-8.5053,-8.6274,-8.7588,-8.8969,-9.0328,-9.1011,-9.1143,-9.1147,-9.1057,-9.0996,-9.1123,-9.1312,-9.15,-9.1562,-9.1562,-9.1562,-9.1562,-9.1562,-9.1562,-9.1562,-9.1562,-9.1562,-9.1562,-9.1562,-9.1562,-9.1562,-9.1562,-9.1562,-9.1562,-9.1562,-9.1198,-9.0602,-8.9873,-8.9177,-6.6999,-6.6999,-6.6999,-6.7234,-6.7674,-6.7084,-6.7107,-6.7467,-6.742,-6.7362,-6.6777,-6.5459,-6.4846,-6.4343,-6.3656,-6.3551,-6.3684,-6.3085,-6.2741,-6.2048,-6.2321,-6.2246,-6.354,-6.5472,-6.7184,-6.9034,-7.1119,-7.3521,-7.4254,-7.4882,-7.5527,-7.6006,-7.6014,-7.6093,-7.6033,-7.6133,-7.6003,-7.5784,-7.5378,-7.5389,-7.5717,-7.6036,-7.6215,-7.6514,-7.6225,-7.5565,-7.4704,-7.3631,-7.2519,-7.1386,-7.0809,-7.0887,-7.124,-7.1623,-7.3763,-7.4474,-7.4778,-7.526,-7.5641,-7.5627,-7.5991,-7.6428,-7.6687,-7.6752,-7.7019,-7.7466,-7.8609,-7.9642,-8.0854,-8.1896,-8.2689,-8.2919,-8.3277,-8.3471,-8.3471,-8.3471,-8.3406,-8.3274,-8.3274,-8.3469,-8.4473,-8.5535,-8.6854,-8.8204,-8.9614,-9.1007,-9.1496,-9.1562,-9.1562,-9.15,-9.1437,-9.1471,-9.15,-9.1562,-9.1562,-9.1562,-9.1562,-9.1562,-9.1562,-9.1562,-9.1562,-9.1562,-9.1562,-9.1562,-9.1562,-9.1562,-9.1562,-9.1562,-9.1562,-9.1562,-9.1562,-9.1562,-9.1066,-9.0304,-8.9608,-6.6999,-6.6999,-6.6999,-6.677,-6.6347,-6.6571,-6.6385,-6.5912,-6.4805,-6.4483,-6.43,-6.4193,-6.3506,-6.253,-6.2538,-6.2535,-6.2391,-6.2396,-6.2048,-6.2074,-6.2074,-6.2799,-6.3907,-6.6269,-6.816,-7.0344,-7.2444,-7.451,-7.5189,-7.5996,-7.6534,-7.6634,-7.6792,-7.674,-7.7023,-7.7023,-7.7023,-7.7053,-7.6754,-7.6425,-7.6664,-7.6634,-7.6724,-7.6844,-7.6553,-7.6553,-7.5791,-7.4911,-7.3964,-7.3221,-7.3221,-7.358,-7.4081,-7.4431,-7.4737,-7.51,-7.5057,-7.5437,-7.5684,-7.5827,-7.6089,-7.6409,-7.6837,-7.777,-7.8453,-7.8908,-7.9657,-8.0618,-8.1535,-8.2446,-8.3076,-8.3142,-8.3208,-8.3208,-8.3208,-8.3208,-8.3208,-8.3208,-8.3208,-8.4053,-8.4957,-8.6114,-8.7435,-8.8788,-9.0262,-9.107,-9.143,-9.1562,-9.1562,-9.1562,-9.1562,-9.15,-9.1562,-9.1562,-9.1562,-9.1562,-9.1562,-9.1562,-9.1562,-9.1562,-9.1562,-9.1562,-9.1562,-9.1562,-9.1562,-9.1562,-9.1562,-9.1562,-9.1562,-9.1562,-9.1562,-9.1562,-9.1364,-9.0734,-9.0039,-6.6999,-6.6937,-6.6322,-6.5924,-6.5607,-6.5088,-6.4691,-6.4245,-6.3244,-6.2725,-6.2698,-6.2758,-6.2318,-6.145,-6.1917,-6.2048,-6.2048,-6.2048,-6.2048,-6.1999,-6.246,-6.3437,-6.498,-6.7046,-6.9138,-7.1249,-7.3576,-7.5318,-7.5966,-7.6005,-7.6204,-7.6938,-7.6985,-7.6949,-7.7408,-7.7682,-7.7652,-7.7741,-7.7622,-7.7622,-7.7562,-7.7442,-7.7502,-7.7532,-7.7401,-7.73,-7.7075,-7.6253,-7.5363,-7.4551,-7.4132,-7.4918,-7.5406,-7.5641,-7.5597,-7.5728,-7.5653,-7.5534,-7.5795,-7.594,-7.6131,-7.6496,-7.7105,-7.8209,-7.8687,-7.9253,-8.0863,-8.1875,-8.2312,-8.3142,-8.3142,-8.3208,-8.3208,-8.3208,-8.3208,-8.3208,-8.3208,-8.3208,-8.3725,-8.4631,-8.5599,-8.6789,-8.8077,-8.9393,-9.0677,-9.1235,-9.1562,-9.1562,-9.1562,-9.1562,-9.1562,-9.1562,-9.1562,-9.1562,-9.1562,-9.1562,-9.1562,-9.1562,-9.1562,-9.1562,-9.1562,-9.1562,-9.1562,-9.1562,-9.1562,-9.1562,-9.1562,-9.1562,-9.1562,-9.1562,-9.1562,-9.1562,-9.1297,-9.0966,-9.0204,-6.6846,-6.66,-6.5504,-6.5051,-6.5002,-6.3391,-6.2784,-6.292,-6.2381,-6.2022,-6.2018,-6.1599,-6.1581,-6.1816,-6.2048,-6.2048,-6.2048,-6.2048,-6.2048,-6.226,-6.2574,-6.4134,-6.6047,-6.8026,-7.0221,-7.2578,-7.4912,-7.5807,-7.6395,-7.6162,-7.6417,-7.7364,-7.737,-7.7107,-7.8325,-7.8759,-7.8609,-7.8519,-7.8519,-7.8639,-7.8519,-7.8178,-7.8065,-7.8022,-7.7848,-7.7572,-7.7327,-7.699,-7.5985,-7.5583,-7.4819,-7.5583,-7.6089,-7.6269,-7.6312,-7.6205,-7.6218,-7.6305,-7.645,-7.6421,-7.6554,-7.6986,-7.777,-7.847,-7.8975,-8.0151,-8.1839,-8.2646,-8.3076,-8.324,-8.3208,-8.3208,-8.3208,-8.3208,-8.3208,-8.3208,-8.3208,-8.3303,-8.4208,-8.521,-8.6405,-8.7467,-8.8718,-9.0064,-9.0776,-9.1397,-9.1562,-9.1562,-9.1562,-9.1562,-9.1562,-9.1562,-9.1562,-9.1562,-9.1562,-9.1562,-9.1562,-9.1562,-9.1562,-9.1562,-9.1562,-9.1562,-9.1562,-9.1562,-9.1562,-9.1562,-9.1562,-9.1562,-9.1562,-9.1562,-9.1562,-9.1496,-9.1099,-9.0701,-9.0105,-6.6322,-6.5319,-6.5431,-6.4605,-6.3183,-6.297,-6.2729,-6.2259,-6.2119,-6.2048,-6.1947,-6.1921,-6.1921,-6.2048,-6.2048,-6.2048,-6.1973,-6.2025,-6.2339,-6.2679,-6.3142,-6.5133,-6.7367,-6.9559,-7.184,-7.418,-7.6304,-7.7162,-7.696,-7.6447,-7.6886,-7.8333,-7.6886,-7.7166,-7.847,-7.8789,-7.8789,-7.8789,-7.8789,-7.8789,-7.8717,-7.8248,-7.749,-7.6945,-7.6068,-7.4983,-7.4399,-7.4964,-7.4916,-7.5049,-7.543,-7.6092,-7.6392,-7.6513,-7.6496,-7.6421,-7.6538,-7.6538,-7.6538,-7.6687,-7.6911,-7.7623,-7.847,-7.9332,-8.0011,-8.0917,-8.2244,-8.2979,-8.3274,-8.3306,-8.324,-8.3208,-8.3208,-8.3208,-8.3208,-8.3208,-8.3208,-8.3783,-8.4589,-8.582,-8.7115,-8.8212,-8.9401,-9.0398,-9.1169,-9.1562,-9.1562,-9.1562,-9.1562,-9.1562,-9.1562,-9.1562,-9.1562,-9.1562,-9.1562,-9.1562,-9.1562,-9.1562,-9.1562,-9.1562,-9.1562,-9.1562,-9.1562,-9.1562,-9.1562,-9.1562,-9.1562,-9.1562,-9.1562,-9.1562,-9.1562,-9.143,-9.0999,-9.0436,-8.9807]},{"header":{"parameterUnit":"m.s-1","parameterCategory":1,"la1":31.0,"la2":29.5877,"lo1":-88.7671,"lo2":-86.6584,"dx":0.0162,"dy":0.0185,"nx":115,"ny":88,"refTime":"2023-01-12T06:00:00:Z","depth":0,"parameterNumber":3,"parameterNumberName":"V-component_of_WINDS"},"data":[0.0,0.0,0.0,0.0,0.0,0.0,0.0,0.0,0.0,0.0,0.0,0.0,0.0,0.0,0.0,0.0,0.0,0.0,0.0,0.0,0.0,0.0,0.0,0.0,0.0,0.0,0.0,0.0,0.0,0.0,0.0,0.0,0.0,0.0,0.0,0.0,0.0,0.0,0.0,0.0,0.0,0.0,0.0,0.0,0.0,0.0,0.0,0.0,0.0,0.0,0.0,0.0,0.0,0.0,0.0,0.0,0.0,0.0,0.0,0.0,0.0,0.0,0.0,0.0,0.0,0.0,0.0,0.0,0.0,0.0,0.0,0.0,0.0,0.0,0.0,0.0,0.0,0.0,0.0,0.0,0.0,0.0,0.0,0.0,0.0,0.0,0.0,0.0,0.0,0.0,0.0,0.0,0.0,0.0,0.0,0.0,0.0,0.0,0.0,0.0,0.0,0.0,0.0,0.0,0.0,0.0,0.0,0.0,0.0,0.0,0.0,0.0,0.0,0.0,0.0,0.0,0.0,0.0,0.0,0.0,0.0,0.0,0.0,0.0,0.0,0.0,0.0,0.0,0.0,0.0,0.0,0.0,0.0,0.0,0.0,0.0,0.0,0.0,0.0,0.0,0.0,0.0,0.0,0.0,0.0,0.0,0.0,0.0,0.0,0.0,0.0,0.0,0.0,0.0,0.0,0.0,0.0,0.0,0.0,0.0,0.0,0.0,0.0,0.0,0.0,0.0,0.0,0.0,0.0,0.0,0.0,0.0,0.0,0.0,0.0,0.0,0.0,0.0,0.0,0.0,0.0,0.0,0.0,0.0,0.0,0.0,0.0,0.0,0.0,0.0,0.0,0.0,0.0,0.0,0.0,0.0,0.0,0.0,0.0,0.0,0.0,0.0,0.0,0.0,0.0,0.0,0.0,0.0,0.0,0.0,0.0,0.0,0.0,0.0,0.0,0.0,0.0,0.0,0.0,0.0,0.0,0.0,0.0,0.0,0.0,0.0,0.0,0.0,0.0,0.0,0.0,0.0,0.0,0.0,0.0,0.0,0.0,0.0,0.0,0.0,0.0,0.0,0.0,0.0,0.0,0.0,0.0,0.0,0.0,0.0,0.0,0.0,0.0,0.0,0.0,0.0,0.0,0.0,0.0,0.0,0.0,0.0,0.0,0.0,0.0,0.0,0.0,0.0,0.0,0.0,0.0,0.0,0.0,0.0,0.0,0.0,0.0,0.0,0.0,0.0,0.0,0.0,0.0,0.0,0.0,0.0,0.0,0.0,0.0,0.0,0.0,0.0,0.0,0.0,0.0,0.0,0.0,0.0,0.0,0.0,0.0,0.0,0.0,0.0,0.0,0.0,0.0,0.0,0.0,0.0,0.0,0.0,0.0,0.0,0.0,0.0,0.0,0.0,0.0,0.0,0.0,0.0,0.0,0.0,0.0,0.0,0.0,0.0,0.0,0.0,0.0,0.0,0.0,0.0,0.0,0.0,0.0,0.0,0.0,0.0,0.0,0.0,0.0,0.0,0.0,0.0,0.0,0.0,0.0,0.0,0.0,0.0,0.0,0.0,0.0,0.0,0.0,0.0,0.0,0.0,0.0,0.0,0.0,0.0,0.0,0.0,0.0,0.0,0.0,0.0,0.0,0.0,0.0,0.0,0.0,0.0,0.0,0.0,0.0,0.0,0.0,0.0,0.0,0.0,0.0,0.0,0.0,0.0,0.0,0.0,0.0,0.0,0.0,0.0,0.0,0.0,0.0,0.0,0.0,0.0,0.0,0.0,0.0,0.0,0.0,0.0,0.0,0.0,0.0,0.0,0.0,0.0,0.0,0.0,0.0,0.0,0.0,0.0,0.0,0.0,0.0,0.0,0.0,0.0,0.0,0.0,0.0,0.0,0.0,0.0,0.0,0.0,0.0,0.0,0.0,0.0,0.0,0.0,0.0,0.0,0.0,0.0,0.0,0.0,0.0,0.0,0.0,0.0,0.0,0.0,0.0,0.0,0.0,0.0,0.0,0.0,0.0,0.0,0.0,0.0,0.0,0.0,0.0,0.0,0.0,0.0,0.0,0.0,0.0,0.0,0.0,0.0,0.0,0.0,0.0,0.0,0.0,0.0,0.0,0.0,0.0,0.0,0.0,0.0,0.0,0.0,0.0,0.0,0.0,0.0,0.0,0.0,0.0,0.0,0.0,0.0,0.0,0.0,0.0,0.0,0.0,0.0,0.0,0.0,0.0,0.0,0.0,0.0,0.0,0.0,0.0,0.0,0.0,0.0,0.0,0.0,0.0,0.0,0.0,0.0,0.0,0.0,0.0,0.0,0.0,0.0,0.0,0.0,0.0,0.0,0.0,0.0,0.0,0.0,0.0,0.0,0.0,0.0,0.0,0.0,0.0,0.0,0.0,0.0,0.0,0.0,0.0,0.0,0.0,0.0,0.0,0.0,0.0,0.0,0.0,0.0,0.0,0.0,0.0,0.0,0.0,0.0,0.0,0.0,0.0,0.0,0.0,0.0,0.0,0.0,0.0,0.0,0.0,0.0,0.0,0.0,0.0,0.0,0.0,0.0,0.0,0.0,0.0,0.0,0.0,0.0,0.0,0.0,0.0,0.0,0.0,0.0,0.0,0.0,0.0,0.0,0.0,0.0,0.0,0.0,0.0,0.0,0.0,0.0,0.0,0.0,0.0,0.0,0.0,0.0,0.0,0.0,0.0,0.0,0.0,0.0,0.0,0.0,0.0,0.0,0.0,0.0,0.0,0.0,0.0,0.0,0.0,0.0,0.0,0.0,0.0,0.0,0.0,0.0,0.0,0.0,0.0,0.0,0.0,0.0,0.0,0.0,0.0,0.0,0.0,0.0,0.0,0.0,0.0,0.0,0.0,0.0,0.0,0.0,0.0,0.0,0.0,0.0,0.0,0.0,0.0,0.0,0.0,0.0,0.0,0.0,0.0,0.0,0.0,0.0,0.0,0.0,0.0,0.0,0.0,0.0,0.0,0.0,0.0,0.0,0.0,0.0,0.0,0.0,0.0,0.0,0.0,0.0,0.0,0.0,0.0,0.0,0.0,0.0,0.0,0.0,0.0,0.0,0.0,0.0,0.0,0.0,0.0,0.0,0.0,0.0,0.0,0.0,0.0,0.0,0.0,0.0,0.0,0.0,0.0,0.0,0.0,0.0,0.0,0.0,0.0,0.0,0.0,0.0,0.0,0.0,0.0,0.0,0.0,0.0,0.0,0.0,0.0,0.0,0.0,0.0,0.0,0.0,0.0,0.0,0.0,0.0,0.0,0.0,0.0,0.0,0.0,0.0,0.0,0.0,0.0,0.0,0.0,0.0,0.0,0.0,0.0,0.0,0.0,0.0,0.0,0.0,0.0,0.0,0.0,0.0,0.0,0.0,0.0,0.0,0.0,0.0,0.0,0.0,0.0,0.0,0.0,0.0,0.0,0.0,0.0,0.0,0.0,0.0,0.0,0.0,0.0,0.0,0.0,0.0,0.0,0.0,0.0,0.0,0.0,0.0,0.0,0.0,0.0,0.0,0.0,0.0,0.0,0.0,0.0,0.0,0.0,0.0,0.0,0.0,0.0,0.0,0.0,0.0,0.0,0.0,0.0,0.0,0.0,0.0,0.0,0.0,0.0,0.0,0.0,0.0,0.0,0.0,0.0,0.0,0.0,0.0,0.0,0.0,0.0,0.0,0.0,0.0,0.0,0.0,0.0,0.0,0.0,0.0,0.0,0.0,0.0,0.0,0.0,0.0,0.0,0.0,0.0,0.0,0.0,0.0,0.0,0.0,0.0,0.0,0.0,0.0,0.0,0.0,0.0,0.0,0.0,0.0,0.0,0.0,0.0,0.0,0.0,0.0,0.0,0.0,0.0,0.0,0.0,0.0,0.0,0.0,0.0,0.0,0.0,0.0,0.0,0.0,0.0,0.0,0.0,0.0,0.0,0.0,0.0,0.0,0.0,0.0,0.0,0.0,0.0,0.0,0.0,0.0,0.0,0.0,0.0,0.0,0.0,0.0,0.0,0.0,0.0,0.0,0.0,0.0,0.0,0.0,0.0,0.0,0.0,0.0,0.0,0.0,0.0,0.0,0.0,0.0,0.0,0.0,0.0,0.0,0.0,0.0,0.0,0.0,0.0,0.0,0.0,0.0,0.0,0.0,0.0,0.0,0.0,0.0,0.0,0.0,0.0,0.0,0.0,0.0,0.0,0.0,0.0,0.0,0.0,0.0,0.0,0.0,0.0,0.0,-3.6035,0.0,0.0,0.0,-3.6016,0.0,0.0,0.0,0.0,0.0,0.0,0.0,0.0,0.0,0.0,0.0,0.0,0.0,0.0,0.0,0.0,0.0,0.0,0.0,0.0,0.0,0.0,0.0,0.0,0.0,0.0,0.0,0.0,0.0,0.0,0.0,0.0,0.0,0.0,0.0,0.0,0.0,0.0,0.0,0.0,0.0,0.0,0.0,0.0,0.0,0.0,0.0,0.0,0.0,0.0,0.0,0.0,0.0,0.0,0.0,0.0,0.0,0.0,0.0,0.0,0.0,0.0,0.0,0.0,0.0,0.0,0.0,0.0,0.0,0.0,0.0,0.0,0.0,0.0,0.0,0.0,0.0,0.0,0.0,0.0,0.0,0.0,0.0,0.0,0.0,0.0,0.0,0.0,0.0,0.0,0.0,0.0,0.0,0.0,0.0,0.0,0.0,0.0,0.0,0.0,0.0,0.0,0.0,0.0,0.0,0.0,0.0,0.0,0.0,0.0,-3.6035,-3.6035,-3.6035,-3.6035,-3.6016,0.0,0.0,0.0,0.0,0.0,0.0,0.0,0.0,0.0,0.0,0.0,0.0,0.0,0.0,0.0,0.0,0.0,0.0,0.0,0.0,0.0,0.0,0.0,0.0,0.0,0.0,0.0,0.0,0.0,0.0,0.0,0.0,0.0,0.0,0.0,0.0,0.0,0.0,0.0,0.0,0.0,0.0,0.0,0.0,0.0,0.0,0.0,0.0,0.0,0.0,0.0,0.0,0.0,0.0,0.0,0.0,0.0,0.0,0.0,0.0,0.0,0.0,0.0,0.0,0.0,0.0,0.0,0.0,0.0,0.0,0.0,0.0,0.0,0.0,0.0,0.0,0.0,0.0,0.0,0.0,0.0,0.0,0.0,0.0,0.0,0.0,0.0,0.0,0.0,0.0,0.0,0.0,0.0,0.0,0.0,0.0,0.0,0.0,0.0,0.0,0.0,0.0,0.0,0.0,0.0,0.0,0.0,0.0,0.0,0.0,0.0,0.0,-3.5947,-3.5772,-3.5607,0.0,0.0,0.0,0.0,0.0,0.0,0.0,0.0,0.0,0.0,0.0,0.0,0.0,0.0,0.0,0.0,0.0,0.0,0.0,0.0,0.0,0.0,0.0,0.0,0.0,0.0,0.0,0.0,0.0,0.0,0.0,0.0,0.0,0.0,0.0,0.0,0.0,0.0,0.0,0.0,0.0,0.0,0.0,0.0,0.0,0.0,0.0,0.0,0.0,0.0,0.0,0.0,0.0,0.0,0.0,0.0,0.0,0.0,0.0,0.0,0.0,0.0,0.0,0.0,0.0,0.0,0.0,0.0,0.0,0.0,0.0,0.0,0.0,0.0,0.0,0.0,0.0,0.0,0.0,0.0,0.0,0.0,0.0,0.0,0.0,0.0,0.0,0.0,0.0,0.0,0.0,0.0,0.0,0.0,0.0,0.0,0.0,0.0,0.0,0.0,0.0,0.0,0.0,0.0,0.0,0.0,0.0,0.0,0.0,0.0,-3.6035,-3.6035,-3.5675,0.0,-3.4556,0.0,0.0,0.0,0.0,0.0,0.0,0.0,0.0,0.0,0.0,0.0,0.0,0.0,0.0,0.0,0.0,0.0,0.0,0.0,0.0,0.0,0.0,0.0,0.0,0.0,0.0,0.0,0.0,0.0,0.0,0.0,0.0,0.0,0.0,0.0,0.0,0.0,0.0,0.0,0.0,0.0,0.0,0.0,0.0,0.0,0.0,0.0,0.0,0.0,0.0,0.0,0.0,0.0,0.0,0.0,0.0,0.0,0.0,0.0,0.0,0.0,0.0,0.0,0.0,0.0,0.0,0.0,0.0,0.0,0.0,0.0,0.0,0.0,0.0,0.0,0.0,0.0,0.0,0.0,0.0,0.0,0.0,0.0,0.0,0.0,0.0,0.0,0.0,0.0,0.0,0.0,0.0,0.0,0.0,0.0,0.0,0.0,0.0,0.0,0.0,0.0,0.0,0.0,0.0,0.0,0.0,0.0,0.0,0.0,0.0,-3.6035,-3.6035,-3.5879,-3.5298,0.0,0.0,0.0,0.0,0.0,0.0,0.0,0.0,0.0,0.0,0.0,0.0,0.0,0.0,0.0,0.0,0.0,0.0,0.0,0.0,0.0,0.0,0.0,0.0,0.0,0.0,0.0,0.0,0.0,0.0,0.0,0.0,0.0,0.0,0.0,0.0,0.0,0.0,0.0,0.0,0.0,0.0,0.0,0.0,0.0,0.0,0.0,0.0,0.0,0.0,0.0,0.0,0.0,0.0,0.0,0.0,0.0,0.0,0.0,0.0,0.0,0.0,0.0,0.0,0.0,0.0,0.0,0.0,0.0,0.0,0.0,0.0,0.0,0.0,0.0,0.0,0.0,0.0,0.0,0.0,0.0,0.0,0.0,0.0,0.0,0.0,0.0,0.0,0.0,0.0,0.0,0.0,0.0,0.0,0.0,0.0,0.0,0.0,0.0,0.0,0.0,0.0,0.0,0.0,0.0,0.0,0.0,0.0,0.0,0.0,-3.6035,-3.5879,-3.5675,-3.5811,-3.522,-3.3842,0.0,0.0,0.0,0.0,0.0,0.0,0.0,0.0,0.0,0.0,0.0,0.0,0.0,0.0,0.0,0.0,0.0,0.0,0.0,0.0,0.0,0.0,0.0,0.0,0.0,0.0,0.0,0.0,0.0,0.0,0.0,0.0,0.0,0.0,0.0,0.0,0.0,0.0,0.0,0.0,0.0,0.0,0.0,0.0,0.0,0.0,0.0,0.0,0.0,0.0,0.0,0.0,0.0,0.0,0.0,0.0,0.0,0.0,0.0,0.0,0.0,0.0,0.0,0.0,0.0,0.0,0.0,0.0,0.0,0.0,0.0,0.0,0.0,0.0,0.0,0.0,0.0,0.0,0.0,0.0,0.0,0.0,0.0,0.0,0.0,0.0,0.0,0.0,0.0,0.0,0.0,0.0,0.0,0.0,0.0,0.0,0.0,0.0,0.0,0.0,0.0,0.0,0.0,0.0,0.0,0.0,0.0,0.0,-3.6035,-3.6035,-3.5675,-3.499,-3.5333,-3.4592,0.0,0.0,0.0,0.0,0.0,0.0,0.0,0.0,0.0,0.0,0.0,0.0,0.0,0.0,0.0,0.0,0.0,0.0,0.0,0.0,0.0,0.0,0.0,0.0,0.0,0.0,0.0,0.0,0.0,0.0,0.0,0.0,0.0,0.0,0.0,0.0,0.0,0.0,0.0,0.0,0.0,0.0,0.0,0.0,0.0,0.0,0.0,0.0,0.0,0.0,0.0,0.0,0.0,0.0,0.0,0.0,0.0,0.0,0.0,0.0,0.0,0.0,0.0,0.0,0.0,0.0,0.0,0.0,0.0,0.0,0.0,0.0,0.0,0.0,0.0,0.0,0.0,0.0,0.0,0.0,0.0,0.0,0.0,0.0,0.0,0.0,0.0,0.0,0.0,0.0,0.0,0.0,0.0,0.0,0.0,0.0,0.0,0.0,0.0,0.0,0.0,0.0,0.0,0.0,0.0,0.0,0.0,0.0,0.0,-3.6035,-3.6035,-3.5158,-3.3554,-3.3831,-3.3239,0.0,0.0,0.0,0.0,0.0,0.0,0.0,0.0,0.0,0.0,0.0,0.0,0.0,0.0,0.0,0.0,0.0,0.0,0.0,0.0,0.0,0.0,0.0,0.0,0.0,0.0,0.0,0.0,0.0,0.0,0.0,0.0,0.0,0.0,0.0,0.0,0.0,0.0,0.0,0.0,0.0,0.0,0.0,0.0,0.0,0.0,0.0,0.0,0.0,0.0,0.0,0.0,0.0,0.0,0.0,0.0,0.0,0.0,0.0,0.0,0.0,0.0,0.0,0.0,0.0,0.0,0.0,0.0,0.0,0.0,0.0,0.0,0.0,0.0,0.0,0.0,0.0,0.0,0.0,0.0,0.0,0.0,0.0,0.0,0.0,0.0,0.0,0.0,0.0,0.0,0.0,0.0,0.0,0.0,0.0,0.0,0.0,0.0,0.0,0.0,0.0,0.0,0.0,0.0,0.0,0.0,0.0,0.0,0.0,-3.5947,-3.5382,-3.4314,-3.2683,-3.2246,-3.1687,0.0,0.0,0.0,0.0,0.0,0.0,0.0,0.0,0.0,0.0,0.0,0.0,0.0,0.0,0.0,0.0,0.0,0.0,0.0,0.0,0.0,0.0,0.0,0.0,0.0,0.0,0.0,0.0,0.0,0.0,0.0,0.0,0.0,0.0,0.0,0.0,0.0,0.0,0.0,0.0,0.0,0.0,0.0,0.0,0.0,0.0,0.0,0.0,0.0,0.0,0.0,0.0,0.0,0.0,0.0,0.0,0.0,0.0,0.0,0.0,0.0,0.0,0.0,0.0,0.0,0.0,0.0,0.0,0.0,0.0,0.0,0.0,0.0,0.0,0.0,0.0,0.0,0.0,0.0,0.0,0.0,0.0,0.0,0.0,0.0,0.0,0.0,0.0,0.0,0.0,0.0,0.0,0.0,0.0,0.0,0.0,0.0,0.0,0.0,0.0,0.0,0.0,0.0,0.0,0.0,0.0,0.0,0.0,-3.6035,-3.5947,-3.4264,-3.3224,-3.2543,-3.0926,-3.0265,0.0,0.0,0.0,0.0,0.0,0.0,0.0,0.0,0.0,0.0,0.0,0.0,0.0,0.0,0.0,0.0,0.0,0.0,0.0,0.0,0.0,0.0,0.0,0.0,0.0,0.0,0.0,0.0,0.0,0.0,0.0,0.0,0.0,0.0,0.0,0.0,0.0,0.0,0.0,0.0,0.0,0.0,0.0,0.0,0.0,0.0,0.0,0.0,0.0,0.0,0.0,0.0,0.0,0.0,0.0,0.0,0.0,0.0,0.0,0.0,0.0,0.0,0.0,0.0,0.0,0.0,0.0,0.0,0.0,0.0,0.0,0.0,0.0,0.0,0.0,0.0,0.0,0.0,0.0,0.0,0.0,0.0,0.0,0.0,0.0,0.0,0.0,0.0,0.0,0.0,0.0,0.0,0.0,0.0,0.0,0.0,0.0,0.0,0.0,0.0,0.0,0.0,0.0,0.0,0.0,0.0,0.0,0.0,0.0,-3.6035,-3.6028,-3.4511,-3.1582,-3.1922,-3.1412,0.0,0.0,0.0,0.0,0.0,0.0,0.0,0.0,0.0,0.0,0.0,0.0,0.0,0.0,0.0,0.0,0.0,0.0,0.0,0.0,0.0,0.0,0.0,0.0,0.0,0.0,0.0,0.0,0.0,0.0,0.0,0.0,0.0,0.0,0.0,0.0,0.0,0.0,0.0,0.0,0.0,0.0,0.0,0.0,0.0,0.0,0.0,0.0,0.0,0.0,0.0,0.0,0.0,0.0,0.0,0.0,0.0,0.0,0.0,0.0,0.0,0.0,0.0,0.0,0.0,0.0,0.0,0.0,0.0,0.0,0.0,0.0,0.0,0.0,0.0,0.0,0.0,0.0,0.0,0.0,0.0,0.0,0.0,0.0,0.0,0.0,0.0,0.0,0.0,0.0,0.0,0.0,0.0,0.0,0.0,0.0,0.0,0.0,0.0,0.0,0.0,0.0,0.0,0.0,0.0,0.0,0.0,0.0,0.0,-3.6523,-3.6361,-3.4968,-3.2227,-3.2394,-3.1847,-3.0557,0.0,0.0,0.0,0.0,0.0,0.0,0.0,0.0,0.0,0.0,0.0,0.0,0.0,0.0,0.0,0.0,0.0,0.0,0.0,0.0,0.0,0.0,0.0,0.0,0.0,0.0,0.0,0.0,0.0,0.0,0.0,0.0,0.0,0.0,0.0,0.0,0.0,0.0,0.0,0.0,0.0,0.0,0.0,0.0,0.0,0.0,0.0,0.0,0.0,0.0,0.0,0.0,0.0,0.0,0.0,0.0,0.0,0.0,0.0,0.0,0.0,0.0,0.0,0.0,0.0,0.0,0.0,0.0,0.0,0.0,0.0,0.0,0.0,0.0,0.0,0.0,0.0,0.0,0.0,0.0,0.0,0.0,0.0,0.0,0.0,0.0,0.0,0.0,0.0,0.0,0.0,0.0,0.0,0.0,0.0,0.0,0.0,0.0,0.0,0.0,0.0,0.0,0.0,0.0,0.0,0.0,0.0,0.0,-3.7344,-3.5653,-3.4703,-3.4451,-3.2478,-3.1697,0.0,0.0,0.0,0.0,0.0,0.0,0.0,0.0,0.0,0.0,0.0,0.0,0.0,0.0,0.0,0.0,0.0,0.0,0.0,0.0,0.0,0.0,0.0,0.0,0.0,0.0,0.0,0.0,0.0,0.0,0.0,0.0,0.0,0.0,0.0,0.0,0.0,0.0,0.0,0.0,0.0,0.0,0.0,0.0,0.0,0.0,0.0,0.0,0.0,0.0,0.0,0.0,0.0,0.0,0.0,0.0,0.0,0.0,0.0,0.0,0.0,0.0,0.0,0.0,0.0,0.0,0.0,0.0,0.0,0.0,0.0,0.0,0.0,0.0,0.0,0.0,0.0,0.0,0.0,0.0,0.0,0.0,0.0,0.0,0.0,0.0,0.0,0.0,0.0,0.0,0.0,0.0,0.0,0.0,0.0,0.0,0.0,0.0,0.0,0.0,0.0,0.0,0.0,0.0,0.0,0.0,0.0,0.0,0.0,-3.7754,-3.7615,-3.6509,-3.4446,-3.4649,-3.4162,0.0,0.0,0.0,0.0,0.0,0.0,0.0,0.0,0.0,0.0,0.0,0.0,0.0,0.0,0.0,0.0,0.0,0.0,0.0,0.0,0.0,0.0,0.0,0.0,0.0,0.0,0.0,0.0,0.0,0.0,0.0,0.0,0.0,0.0,0.0,0.0,0.0,0.0,0.0,0.0,0.0,0.0,0.0,0.0,0.0,0.0,0.0,0.0,0.0,0.0,0.0,0.0,0.0,0.0,0.0,0.0,0.0,0.0,0.0,0.0,0.0,0.0,0.0,0.0,0.0,0.0,0.0,0.0,0.0,0.0,0.0,0.0,0.0,0.0,0.0,0.0,0.0,0.0,0.0,0.0,0.0,0.0,0.0,0.0,0.0,0.0,0.0,0.0,0.0,0.0,0.0,0.0,0.0,0.0,0.0,0.0,0.0,0.0,0.0,0.0,0.0,0.0,0.0,0.0,0.0,0.0,0.0,0.0,-3.7818,-3.8437,-3.8564,-3.7906,-3.6403,-3.6724,-3.6089,0.0,0.0,0.0,0.0,0.0,0.0,0.0,0.0,0.0,0.0,0.0,0.0,0.0,0.0,0.0,0.0,0.0,0.0,0.0,0.0,0.0,0.0,0.0,0.0,0.0,0.0,0.0,0.0,0.0,0.0,0.0,0.0,0.0,0.0,0.0,0.0,0.0,0.0,0.0,0.0,0.0,0.0,0.0,0.0,0.0,0.0,0.0,0.0,0.0,0.0,0.0,0.0,0.0,0.0,0.0,0.0,0.0,0.0,0.0,0.0,0.0,0.0,0.0,0.0,0.0,0.0,0.0,0.0,0.0,0.0,0.0,0.0,0.0,0.0,0.0,0.0,0.0,0.0,0.0,0.0,0.0,0.0,0.0,0.0,0.0,0.0,0.0,0.0,0.0,0.0,0.0,0.0,0.0,0.0,0.0,0.0,0.0,0.0,0.0,0.0,0.0,0.0,0.0,0.0,0.0,0.0,0.0,0.0,-3.8295,-3.918,-3.8906,-3.8969,-3.9296,-3.8472,-3.7546,0.0,0.0,0.0,0.0,0.0,0.0,0.0,0.0,0.0,0.0,0.0,0.0,0.0,0.0,0.0,0.0,0.0,0.0,0.0,0.0,0.0,0.0,0.0,0.0,0.0,0.0,0.0,0.0,0.0,0.0,0.0,0.0,0.0,0.0,0.0,0.0,0.0,0.0,0.0,0.0,0.0,0.0,0.0,0.0,0.0,0.0,0.0,0.0,0.0,0.0,0.0,0.0,0.0,0.0,0.0,0.0,0.0,0.0,0.0,0.0,0.0,0.0,0.0,0.0,0.0,0.0,0.0,0.0,0.0,0.0,0.0,0.0,0.0,0.0,0.0,0.0,0.0,0.0,0.0,0.0,0.0,0.0,0.0,0.0,0.0,0.0,0.0,0.0,0.0,0.0,0.0,0.0,0.0,0.0,0.0,0.0,0.0,0.0,0.0,0.0,0.0,0.0,0.0,0.0,0.0,0.0,0.0,0.0,-3.8667,-3.918,-3.9495,-3.9654,-3.9732,-3.8906,-3.7916,0.0,0.0,0.0,0.0,0.0,0.0,0.0,0.0,0.0,0.0,0.0,0.0,0.0,0.0,0.0,0.0,0.0,0.0,0.0,0.0,0.0,0.0,0.0,0.0,0.0,0.0,0.0,0.0,0.0,0.0,0.0,0.0,0.0,0.0,0.0,0.0,0.0,0.0,0.0,0.0,0.0,0.0,0.0,0.0,0.0,0.0,0.0,0.0,-3.7524,0.0,0.0,0.0,0.0,0.0,0.0,0.0,0.0,0.0,0.0,0.0,0.0,0.0,0.0,0.0,0.0,0.0,0.0,0.0,0.0,0.0,0.0,0.0,0.0,0.0,0.0,0.0,0.0,0.0,0.0,0.0,0.0,0.0,0.0,0.0,0.0,0.0,0.0,0.0,0.0,0.0,0.0,0.0,0.0,0.0,0.0,0.0,0.0,0.0,0.0,0.0,0.0,0.0,0.0,0.0,0.0,0.0,0.0,0.0,-3.8984,-3.9805,-4.0059,-4.0293,-4.0469,-4.0025,-3.9359,0.0,0.0,0.0,0.0,0.0,0.0,0.0,0.0,0.0,0.0,0.0,0.0,0.0,0.0,0.0,0.0,0.0,0.0,0.0,0.0,0.0,0.0,0.0,0.0,0.0,0.0,0.0,0.0,0.0,0.0,0.0,0.0,0.0,0.0,0.0,0.0,0.0,0.0,0.0,0.0,0.0,0.0,0.0,0.0,0.0,0.0,0.0,0.0,0.0,0.0,0.0,0.0,0.0,0.0,0.0,0.0,0.0,0.0,0.0,0.0,0.0,0.0,0.0,0.0,0.0,0.0,0.0,0.0,0.0,0.0,0.0,0.0,0.0,0.0,0.0,0.0,0.0,0.0,0.0,0.0,0.0,0.0,0.0,0.0,0.0,0.0,0.0,0.0,0.0,0.0,0.0,0.0,0.0,0.0,0.0,0.0,0.0,0.0,0.0,0.0,0.0,0.0,0.0,0.0,0.0,0.0,0.0,-3.8675,-3.9277,-4.0449,-4.0586,-4.0801,-4.1152,-4.1172,-4.0837,-4.0133,0.0,0.0,0.0,0.0,0.0,0.0,0.0,0.0,0.0,0.0,0.0,0.0,0.0,0.0,0.0,0.0,0.0,0.0,0.0,0.0,0.0,0.0,0.0,0.0,0.0,0.0,0.0,0.0,0.0,0.0,0.0,0.0,0.0,0.0,0.0,0.0,0.0,0.0,-4.1554,-4.102,0.0,0.0,0.0,0.0,0.0,0.0,0.0,0.0,-4.1105,0.0,0.0,0.0,0.0,0.0,0.0,0.0,0.0,0.0,0.0,0.0,0.0,0.0,0.0,0.0,0.0,0.0,0.0,0.0,0.0,0.0,0.0,0.0,0.0,0.0,0.0,0.0,0.0,0.0,0.0,0.0,0.0,0.0,0.0,0.0,0.0,0.0,0.0,0.0,0.0,0.0,0.0,0.0,0.0,0.0,0.0,0.0,0.0,0.0,0.0,0.0,0.0,0.0,0.0,0.0,0.0,-3.9129,-3.9107,-3.957,-4.0488,-4.0879,-4.1094,-4.1172,-4.1172,-4.0996,-4.0576,0.0,0.0,0.0,0.0,0.0,0.0,0.0,0.0,0.0,0.0,0.0,0.0,0.0,0.0,0.0,0.0,0.0,0.0,0.0,0.0,0.0,0.0,0.0,0.0,0.0,0.0,0.0,0.0,0.0,0.0,0.0,0.0,0.0,0.0,0.0,0.0,0.0,0.0,0.0,-4.2313,-4.19,0.0,0.0,0.0,0.0,0.0,0.0,0.0,0.0,-4.1883,0.0,0.0,0.0,0.0,0.0,0.0,0.0,0.0,0.0,0.0,0.0,0.0,0.0,0.0,0.0,0.0,0.0,0.0,0.0,0.0,0.0,0.0,0.0,0.0,0.0,0.0,0.0,0.0,0.0,0.0,0.0,0.0,0.0,0.0,0.0,0.0,0.0,0.0,0.0,0.0,0.0,0.0,0.0,0.0,0.0,0.0,0.0,0.0,0.0,0.0,0.0,0.0,0.0,0.0,0.0,-3.9083,-4.0378,-4.1439,-4.2008,-4.2249,-4.2427,-4.235,-4.1618,-4.0732,0.0,0.0,0.0,0.0,0.0,0.0,0.0,0.0,0.0,0.0,0.0,0.0,0.0,0.0,0.0,0.0,0.0,0.0,0.0,0.0,0.0,0.0,0.0,0.0,0.0,0.0,0.0,0.0,0.0,0.0,0.0,0.0,0.0,0.0,0.0,0.0,0.0,0.0,0.0,0.0,-4.1555,-4.0588,-4.0118,0.0,0.0,0.0,0.0,0.0,0.0,-4.1459,-4.2166,0.0,0.0,0.0,0.0,0.0,0.0,0.0,0.0,0.0,0.0,0.0,0.0,0.0,0.0,0.0,0.0,0.0,0.0,0.0,0.0,0.0,0.0,0.0,0.0,0.0,0.0,0.0,0.0,0.0,0.0,0.0,0.0,0.0,0.0,0.0,0.0,0.0,0.0,0.0,0.0,0.0,0.0,0.0,0.0,0.0,0.0,0.0,0.0,0.0,0.0,0.0,0.0,0.0,0.0,0.0,-3.9642,-4.2092,-4.3644,-4.4092,-4.3912,-4.3822,-4.3822,-4.2244,-4.0566,0.0,0.0,0.0,0.0,0.0,0.0,0.0,0.0,0.0,0.0,0.0,0.0,0.0,0.0,0.0,0.0,0.0,0.0,0.0,0.0,0.0,0.0,0.0,0.0,0.0,0.0,0.0,0.0,0.0,0.0,0.0,0.0,0.0,0.0,0.0,0.0,0.0,0.0,0.0,0.0,0.0,-3.9545,-3.9355,-3.757,0.0,0.0,0.0,0.0,-4.2217,-4.2383,0.0,0.0,0.0,0.0,0.0,0.0,0.0,0.0,0.0,0.0,0.0,0.0,0.0,0.0,0.0,0.0,0.0,0.0,0.0,0.0,0.0,0.0,0.0,0.0,0.0,0.0,0.0,0.0,0.0,0.0,0.0,0.0,0.0,0.0,0.0,0.0,0.0,0.0,0.0,0.0,0.0,0.0,0.0,0.0,0.0,0.0,0.0,0.0,0.0,0.0,0.0,0.0,0.0,0.0,0.0,0.0,-4.2613,-4.4257,-4.5505,-4.6203,-4.53,-4.4831,-4.4831,-4.3121,-4.1289,0.0,0.0,0.0,0.0,0.0,0.0,0.0,0.0,0.0,0.0,0.0,0.0,0.0,0.0,0.0,0.0,0.0,0.0,0.0,0.0,0.0,0.0,0.0,0.0,0.0,0.0,0.0,0.0,0.0,0.0,0.0,0.0,0.0,0.0,0.0,0.0,0.0,0.0,0.0,0.0,0.0,-4.0604,-3.911,-3.8993,-3.977,0.0,0.0,-4.1953,-4.4655,-4.4059,0.0,0.0,0.0,0.0,0.0,0.0,0.0,0.0,0.0,0.0,0.0,0.0,0.0,0.0,0.0,0.0,0.0,0.0,0.0,0.0,0.0,0.0,0.0,0.0,0.0,0.0,0.0,0.0,0.0,0.0,0.0,0.0,0.0,0.0,0.0,0.0,0.0,0.0,0.0,0.0,0.0,0.0,0.0,0.0,0.0,0.0,0.0,0.0,0.0,0.0,0.0,0.0,0.0,0.0,0.0,-4.4663,-4.3609,-4.6073,-4.7322,-4.7007,-4.6557,-4.6356,-4.6378,-4.4741,-4.3228,0.0,0.0,0.0,0.0,0.0,0.0,0.0,0.0,0.0,0.0,0.0,0.0,0.0,0.0,0.0,0.0,0.0,0.0,0.0,0.0,0.0,0.0,0.0,0.0,0.0,0.0,0.0,0.0,0.0,0.0,0.0,0.0,0.0,0.0,0.0,0.0,0.0,0.0,0.0,0.0,0.0,0.0,-4.021,-4.037,0.0,0.0,0.0,-4.3671,-4.5285,0.0,0.0,0.0,0.0,0.0,0.0,0.0,0.0,0.0,0.0,0.0,0.0,0.0,0.0,0.0,0.0,0.0,0.0,0.0,0.0,0.0,0.0,0.0,0.0,0.0,0.0,0.0,0.0,0.0,0.0,0.0,0.0,0.0,0.0,0.0,0.0,0.0,0.0,0.0,0.0,0.0,0.0,0.0,0.0,0.0,0.0,0.0,0.0,0.0,0.0,0.0,0.0,0.0,0.0,0.0,0.0,0.0,-4.497,-4.79,-4.9221,-4.8731,-4.8102,-4.7959,-4.8344,-4.6798,0.0,0.0,0.0,0.0,0.0,0.0,0.0,0.0,0.0,0.0,0.0,0.0,0.0,0.0,0.0,0.0,0.0,0.0,0.0,0.0,0.0,0.0,0.0,0.0,0.0,0.0,0.0,-4.03,0.0,0.0,0.0,0.0,0.0,0.0,0.0,0.0,0.0,0.0,0.0,0.0,0.0,0.0,-4.2287,-4.1891,-4.2275,-4.3224,0.0,0.0,-4.5343,-4.5523,-4.6534,-4.6831,0.0,0.0,0.0,0.0,0.0,0.0,0.0,0.0,0.0,0.0,0.0,0.0,0.0,0.0,0.0,0.0,0.0,0.0,0.0,0.0,0.0,0.0,0.0,0.0,0.0,0.0,0.0,0.0,0.0,0.0,0.0,0.0,0.0,0.0,0.0,0.0,0.0,0.0,0.0,0.0,0.0,0.0,0.0,0.0,0.0,0.0,0.0,0.0,0.0,0.0,0.0,0.0,0.0,0.0,0.0,-4.8092,-4.961,-5.1146,-5.2559,-5.0104,-4.9473,-5.0971,-4.9473,-4.7258,0.0,0.0,0.0,0.0,0.0,0.0,0.0,0.0,0.0,0.0,0.0,0.0,0.0,0.0,0.0,0.0,0.0,0.0,0.0,0.0,0.0,0.0,0.0,0.0,0.0,0.0,0.0,0.0,0.0,0.0,0.0,0.0,0.0,0.0,0.0,0.0,0.0,0.0,0.0,0.0,0.0,-4.3514,-4.4103,-4.5005,-4.6075,0.0,0.0,-4.7259,-4.6012,-4.697,-4.7022,-4.4581,0.0,0.0,0.0,0.0,0.0,0.0,0.0,0.0,0.0,0.0,0.0,0.0,0.0,0.0,0.0,0.0,0.0,0.0,0.0,0.0,0.0,0.0,0.0,0.0,0.0,0.0,0.0,0.0,0.0,0.0,0.0,0.0,0.0,0.0,0.0,0.0,0.0,0.0,0.0,0.0,0.0,0.0,0.0,0.0,0.0,0.0,0.0,0.0,0.0,0.0,0.0,0.0,0.0,-4.857,-4.882,-5.0984,-5.2104,-5.1956,-5.0894,-5.0675,-5.1293,-5.0675,-4.9852,0.0,0.0,0.0,0.0,0.0,0.0,0.0,0.0,0.0,0.0,0.0,0.0,0.0,0.0,0.0,0.0,0.0,0.0,0.0,0.0,0.0,0.0,0.0,0.0,0.0,0.0,0.0,0.0,-4.1806,-4.1379,-4.1,0.0,0.0,0.0,0.0,0.0,0.0,0.0,0.0,0.0,0.0,-4.5116,-4.5749,-4.6767,0.0,0.0,-4.8937,-4.8911,-4.8322,-4.8446,-4.7755,-4.5413,-4.4793,0.0,0.0,0.0,0.0,0.0,0.0,0.0,0.0,0.0,0.0,0.0,0.0,0.0,0.0,0.0,0.0,0.0,0.0,0.0,0.0,0.0,0.0,0.0,0.0,0.0,0.0,0.0,0.0,0.0,0.0,0.0,0.0,0.0,0.0,0.0,0.0,0.0,0.0,0.0,0.0,0.0,0.0,0.0,0.0,0.0,0.0,0.0,0.0,0.0,0.0,0.0,0.0,-4.8772,-4.9325,-5.1486,-5.2363,-5.2084,-5.1524,-5.1524,-5.2007,-5.2007,-5.1836,0.0,0.0,0.0,0.0,0.0,0.0,0.0,0.0,0.0,0.0,0.0,0.0,0.0,0.0,0.0,0.0,0.0,0.0,0.0,0.0,0.0,0.0,0.0,0.0,0.0,0.0,0.0,0.0,-4.271,-4.1932,-4.1351,0.0,0.0,0.0,0.0,0.0,0.0,0.0,0.0,0.0,0.0,-4.6606,-4.7271,-4.8308,-4.9089,-4.9343,-4.9582,-4.943,-4.8901,-4.9038,-4.8533,-4.6263,0.0,0.0,0.0,0.0,0.0,0.0,0.0,0.0,0.0,0.0,0.0,0.0,0.0,0.0,0.0,0.0,0.0,0.0,0.0,0.0,0.0,0.0,0.0,0.0,0.0,0.0,0.0,0.0,0.0,0.0,-3.6152,0.0,0.0,0.0,0.0,0.0,0.0,0.0,0.0,0.0,0.0,0.0,0.0,0.0,0.0,0.0,0.0,0.0,0.0,0.0,0.0,0.0,0.0,-4.9325,-4.9878,-5.0904,-5.2137,-5.3596,-5.216,-5.2084,-5.3672,-5.3747,-5.3002,-5.1537,0.0,0.0,0.0,0.0,0.0,0.0,0.0,0.0,0.0,0.0,0.0,0.0,0.0,0.0,0.0,0.0,0.0,0.0,0.0,0.0,0.0,0.0,0.0,0.0,0.0,0.0,-4.3037,-4.2539,-4.1932,0.0,0.0,0.0,0.0,0.0,0.0,0.0,0.0,0.0,0.0,-4.7143,-4.8071,-4.8648,-4.9494,-4.9976,-4.9654,-4.9482,-4.8786,-4.7159,-4.8689,-4.9202,0.0,0.0,0.0,0.0,0.0,0.0,0.0,0.0,0.0,0.0,0.0,0.0,0.0,0.0,0.0,0.0,0.0,0.0,0.0,0.0,0.0,0.0,0.0,0.0,0.0,0.0,0.0,-3.8336,-3.8127,0.0,0.0,0.0,0.0,0.0,0.0,0.0,0.0,0.0,0.0,0.0,-4.4582,-4.4914,0.0,0.0,0.0,0.0,0.0,0.0,0.0,0.0,0.0,0.0,0.0,0.0,-4.9349,-4.995,-5.1937,-5.3271,-5.3747,-5.3271,-5.3271,-5.3747,-5.3822,-5.3077,-5.1537,0.0,0.0,0.0,0.0,0.0,0.0,0.0,0.0,0.0,0.0,0.0,0.0,0.0,0.0,0.0,0.0,0.0,0.0,0.0,0.0,0.0,0.0,0.0,0.0,0.0,-4.384,0.0,0.0,0.0,0.0,0.0,0.0,0.0,0.0,0.0,0.0,0.0,-4.5924,-4.7205,-4.8335,-4.9238,-4.9791,-5.067,-5.1285,0.0,0.0,0.0,0.0,0.0,0.0,0.0,0.0,0.0,0.0,0.0,0.0,0.0,0.0,-4.2081,-3.8569,-3.7943,-3.8067,-3.8523,0.0,0.0,0.0,0.0,0.0,0.0,0.0,0.0,0.0,0.0,0.0,0.0,0.0,0.0,-3.9891,0.0,-4.1481,0.0,0.0,0.0,0.0,0.0,0.0,0.0,0.0,-4.5323,-4.5036,-4.4517,-4.476,-4.5105,0.0,-4.6423,-4.7371,0.0,0.0,0.0,0.0,0.0,0.0,0.0,0.0,-4.9782,-5.0744,-5.2764,-5.3822,-5.3822,-5.3822,-5.3822,-5.3822,-5.3822,-5.3341,-5.2331,-5.1778,-5.1053,0.0,0.0,0.0,0.0,0.0,0.0,0.0,0.0,0.0,0.0,0.0,0.0,0.0,0.0,0.0,0.0,0.0,0.0,0.0,0.0,0.0,0.0,0.0,-4.4342,0.0,0.0,0.0,0.0,0.0,0.0,0.0,0.0,0.0,-4.4694,-4.6125,-4.7556,-4.8636,-4.959,-5.0393,-5.0921,0.0,0.0,0.0,0.0,0.0,0.0,0.0,-5.2129,-5.2241,-5.0806,-4.9156,-4.7921,-4.707,-4.5764,-4.3573,0.0,0.0,-4.082,-4.0282,-4.0406,-4.0862,-4.1048,-4.1276,-4.1731,-4.2083,-4.2311,0.0,0.0,0.0,0.0,0.0,0.0,0.0,0.0,-4.0508,-4.0638,0.0,-4.3203,0.0,0.0,0.0,0.0,0.0,-4.415,0.0,0.0,-4.5307,-4.4976,-4.5154,-4.3459,-4.4455,-4.7878,-4.7652,-4.8801,-5.1226,-4.9974,0.0,0.0,0.0,0.0,0.0,0.0,-5.0696,-5.2211,-5.3293,-5.3822,-5.3822,-5.3822,-5.3822,-5.3822,-5.3822,-5.3822,-5.375,-5.2379,-5.1681,-5.1943,-4.9029,0.0,0.0,0.0,0.0,0.0,0.0,0.0,0.0,0.0,0.0,0.0,0.0,0.0,0.0,0.0,0.0,0.0,0.0,0.0,0.0,-4.5799,0.0,0.0,0.0,0.0,0.0,0.0,0.0,0.0,0.0,0.0,-4.6552,-4.7832,-4.9213,-5.0243,0.0,0.0,0.0,0.0,-5.2894,-5.3521,-5.341,-5.3346,-5.3438,-5.4092,-5.4604,-5.4707,0.0,0.0,-5.0888,-5.0002,-4.8673,-4.544,-4.4921,-4.4898,-4.4381,-4.347,-4.3077,-4.3511,-4.3284,-4.318,-4.3635,-4.4298,-4.4898,-4.1817,0.0,0.0,0.0,0.0,-4.101,-4.1638,-4.2605,-4.3016,-4.3005,-4.2855,-4.4772,0.0,0.0,0.0,0.0,0.0,0.0,-4.3814,-4.4697,-4.4686,-4.4537,-4.4197,-4.4846,-4.5773,-4.6838,-4.9052,-5.0559,-5.1332,-5.2078,-5.0792,-4.7569,0.0,0.0,0.0,0.0,-5.1441,-5.2283,-5.3293,-5.3822,-5.3822,-5.3822,-5.3822,-5.3822,-5.3822,-5.3822,-5.3822,-5.3389,-5.2644,-5.1681,-5.1022,0.0,0.0,0.0,0.0,0.0,0.0,0.0,0.0,0.0,0.0,0.0,0.0,0.0,0.0,0.0,0.0,0.0,0.0,0.0,-4.3966,-4.5221,-4.5472,0.0,0.0,0.0,0.0,0.0,0.0,0.0,0.0,0.0,-4.9163,-4.964,-5.0067,0.0,0.0,-5.2352,-5.2151,-5.3174,-5.4258,-5.4923,-5.5337,0.0,-5.6323,-5.5888,-5.5956,-5.7181,-5.7184,-5.5732,-5.1707,-5.0937,-4.9801,-4.6457,-4.5924,-4.5912,-4.5747,-4.5022,-4.4608,-4.496,-4.4981,-4.5043,-4.5478,-4.5788,-4.5954,-4.2871,-4.2148,-4.1797,-4.1914,-4.2266,-4.225,-4.2922,-4.4035,-4.4422,-4.442,-4.4315,-4.6216,-4.566,-4.3368,-4.4078,0.0,0.0,0.0,-4.3011,-4.3798,-4.414,-4.4462,-4.4802,-4.5779,-4.7048,-4.828,-5.0139,-5.1416,-5.2313,-5.3155,-5.2139,-4.9517,0.0,0.0,-4.9926,-5.1153,-5.2163,-5.2884,-5.3485,-5.3822,-5.3822,-5.3822,-5.3822,-5.3822,-5.3822,-5.3822,-5.3822,-5.3972,-5.3588,-5.2671,-5.2522,-5.1993,0.0,0.0,0.0,0.0,0.0,0.0,0.0,0.0,0.0,0.0,0.0,-5.1989,-5.1612,0.0,0.0,0.0,-4.6579,-4.5296,-4.497,-4.615,0.0,0.0,0.0,0.0,0.0,0.0,0.0,-4.8862,-4.949,-5.0092,-5.0971,-5.1272,-5.1398,-5.1423,-5.2477,-5.335,-5.3614,0.0,-5.5462,-5.6399,-5.6849,-5.7268,-5.7903,-5.7399,-5.7225,-5.8101,-5.7184,-5.5385,-5.219,-5.0908,-4.9371,-4.7052,-4.6266,-4.6266,-4.6266,-4.5892,-4.5602,-4.5892,-4.5954,-4.6057,-4.6225,-4.6266,-4.6266,-4.3691,-4.3652,-4.2851,-4.2754,-4.3125,-4.3125,-4.3585,-4.437,-4.478,-4.4964,-4.5127,-4.709,-4.6826,-4.4936,-4.3718,0.0,-4.4303,-4.3121,-4.2949,-4.3691,-4.3856,-4.474,-4.6264,-4.6566,-4.8302,-5.1293,-5.091,-5.1792,-5.3699,-5.3365,-5.2884,-5.2427,-5.2403,-5.2355,-5.2283,-5.2355,-5.2884,-5.3798,-5.3822,-5.3822,-5.3822,-5.3822,-5.3822,-5.3822,-5.3822,-5.3822,-5.3897,-5.4173,-5.4421,-5.4447,-5.371,-5.3226,-5.3147,0.0,0.0,0.0,0.0,0.0,0.0,0.0,0.0,0.0,0.0,0.0,0.0,0.0,0.0,0.0,-4.9066,0.0,-4.7933,-4.7983,0.0,0.0,0.0,-4.7054,-4.6728,-4.841,-4.964,-4.9766,0.0,0.0,-5.2151,-5.2678,-5.303,-5.3105,-5.3602,-5.4421,-5.5761,-5.601,-5.6504,-5.7655,-5.783,-5.807,-5.8373,-5.8392,-5.825,-5.7901,-5.6264,-5.43,-5.2266,-5.0187,-4.8288,-4.659,-4.6266,-4.6266,-4.6266,-4.6225,-4.6266,-4.6225,-4.6246,-4.6246,-4.6266,-4.6266,-4.6266,-4.3691,-4.3672,-4.3476,-4.3457,-4.3555,-4.3555,-4.3696,-4.3958,-4.437,-4.4534,-4.4616,-4.5413,-4.5312,-4.4502,-4.4221,-4.3999,-4.3874,-4.3523,-4.3516,-4.3774,-4.5067,-4.5941,-4.6405,-4.8855,-5.0498,-5.137,-5.2447,-5.3302,-5.3798,-5.3702,-5.3582,-5.3461,-5.3461,-5.3053,-5.2331,-5.3053,-5.3582,-5.3822,-5.3822,-5.3822,-5.3822,-5.3822,-5.3972,-5.4248,-5.3948,-5.4047,-5.4669,-5.4496,-5.457,-5.4868,-5.4941,-5.4663,-5.3818,-5.2428,0.0,0.0,0.0,0.0,0.0,0.0,0.0,0.0,0.0,-5.3955,-5.213,0.0,-5.0487,0.0,-5.2315,-5.0933,-4.8208,-4.8661,0.0,0.0,-4.8234,-4.836,-4.9916,-4.9791,-5.0092,-5.1348,-5.1749,-5.2277,-5.3206,-5.3709,-5.4252,-5.5087,-5.5411,-5.5507,-5.5804,-5.652,-5.72,-5.7759,-5.7927,-5.807,-5.8452,-5.8523,-5.8355,-5.7927,-5.6191,-5.4225,-5.2266,-5.0209,-4.8288,-4.6649,-4.6266,-4.6266,-4.6287,-4.6266,-4.6266,-4.6266,-4.6266,-4.6266,-4.6266,-4.6266,-4.6266,-4.3691,-4.3691,-4.3691,-4.3691,-4.3691,-4.3691,-4.3793,-4.4021,-4.4288,-4.4452,-4.437,-4.437,-4.4288,-4.4103,-4.4103,-4.3958,-4.3691,-4.3691,-4.3691,-4.3774,-4.5535,-4.6647,-4.7528,-5.0109,-5.1701,-5.2389,-5.3346,-5.3822,-5.3822,-5.3822,-5.3822,-5.3822,-5.3822,-5.3534,-5.3004,-5.3534,-5.3702,-5.3485,-5.3702,-5.3822,-5.3822,-5.3822,-5.356,-5.3107,-5.3536,-5.3784,-5.3692,-5.4353,-5.4525,-5.4202,-5.4514,-5.4455,-5.3903,-5.2953,-5.2996,0.0,0.0,0.0,0.0,0.0,0.0,0.0,0.0,0.0,0.0,0.0,-5.2796,-5.2798,-5.2592,-5.1368,-4.8875,-4.9665,-5.0343,-5.0343,-5.0017,-5.0268,-5.1523,-5.1322,-5.1423,-5.2352,-5.2815,-5.3305,-5.3911,-5.4765,-5.558,-5.6386,-5.6667,-5.679,-5.6746,-5.7281,-5.7739,-5.807,-5.8141,-5.8212,-5.8523,-5.8523,-5.8212,-5.7303,-5.5336,-5.3299,-5.1832,-4.9403,-4.7479,-4.6987,-4.6782,-4.674,-4.6906,-4.6947,-4.6885,-4.6699,-4.6658,-4.6575,-4.6308,-4.6266,-4.6266,-4.3848,-4.3808,-4.3848,-4.3808,-4.3711,-4.3769,-4.4017,-4.4288,-4.4288,-4.4288,-4.4288,-4.3876,-4.3691,-4.3691,-4.3691,-4.3691,-4.3691,-4.3691,-4.3691,-4.3774,-4.5698,-4.7368,-4.8855,-5.073,-5.2389,-5.3747,-5.3822,-5.3822,-5.3822,-5.3822,-5.3822,-5.3822,-5.3822,-5.3774,-5.3726,-5.3774,-5.3606,-5.3173,-5.3461,-5.363,-5.3606,-5.363,-5.3054,-5.1874,-5.3103,-5.3469,-5.2692,-5.4206,-5.4597,-5.357,-5.3823,-5.3984,-5.3909,-5.3558,-5.4366,0.0,-5.6432,0.0,0.0,0.0,0.0,0.0,0.0,0.0,0.0,-5.7481,-5.5907,-5.2126,-5.1753,-5.127,-5.0117,-5.0921,-5.1498,-5.1523,-5.1925,-5.2226,-5.2226,-5.2628,-5.2955,-5.3099,-5.3778,-5.4359,-5.4683,-5.5778,-5.6721,-5.7158,-5.7591,-5.785,-5.7973,-5.7973,-5.807,-5.8452,-5.8523,-5.8478,-5.8653,-5.8653,-5.8297,-5.7001,-5.4866,-5.2494,-5.1637,-4.8923,-4.6945,-4.7424,-4.7341,-4.7237,-4.761,-4.7651,-4.7527,-4.7196,-4.7113,-4.6947,-4.6411,-4.6266,-4.6266,-4.457,-4.4297,-4.4629,-4.4375,-4.373,-4.4101,-4.4146,-4.3876,-4.3876,-4.3876,-4.3793,-4.3711,-4.3691,-4.3691,-4.3691,-4.3691,-4.3691,-4.3691,-4.3691,-4.3793,-4.6867,-4.846,-4.9013,-5.1931,-5.3497,-5.3822,-5.3822,-5.3822,-5.3822,-5.3822,-5.3822,-5.3822,-5.3822,-5.3606,-5.3245,0.0,0.0,0.0,-5.2956,-5.2572,-5.2572,-5.2572,-5.272,-5.3055,-5.3863,0.0,-5.5403,-5.5458,-5.5556,-5.5622,-5.5669,0.0,0.0,0.0,0.0,0.0,0.0,0.0,0.0,0.0,0.0,0.0,-5.8639,-5.8435,-5.8146,-5.8477,-5.6987,-5.2872,-5.3544,-5.3762,-5.2463,-5.2477,-5.2628,-5.2628,-5.2703,-5.2779,-5.2779,-5.2879,-5.3149,-5.3923,-5.4214,-5.4759,-5.588,-5.6592,-5.7184,-5.7669,-5.816,-5.8355,-5.8381,-5.8381,-5.8426,-5.8523,-5.8575,-5.8706,-5.9124,-5.9202,-5.8828,-5.8017,-5.6296,-5.4051,-5.2127,-5.0043,-4.8227,-4.788,-4.761,-4.7568,-4.7693,-4.7672,-4.7713,-4.7568,-4.7568,-4.732,-4.6533,-4.6266,-4.6266,-4.4902,0.0,-4.5196,-4.4935,0.0,-4.4626,-4.4508,-4.4023,-4.3808,-4.3691,-4.3691,-4.3691,-4.3691,-4.3691,-4.3691,-4.3691,-4.3711,-4.4576,-4.4985,-4.5128,-4.846,-5.0031,-5.0109,-5.2641,-5.3822,-5.3822,-5.3822,-5.3822,-5.3822,-5.3822,-5.3822,-5.3822,-5.3822,-5.3702,-5.3461,-5.3702,-5.3822,-5.3822,-5.3293,-5.3103,-5.3324,-5.3324,-5.3254,-5.3074,-5.4084,0.0,0.0,0.0,0.0,0.0,0.0,0.0,0.0,0.0,0.0,-5.8247,-5.9662,-6.0524,-6.064,-6.0872,-6.1135,-6.1164,-6.0531,-5.9979,-5.9741,-5.871,-5.7104,-5.4992,-5.4299,-5.3725,-5.2998,-5.2861,-5.2861,-5.2861,-5.2861,-5.2861,-5.2955,-5.3293,-5.3753,-5.4334,-5.5095,-5.6033,-5.6714,-5.7403,-5.7874,-5.816,-5.8355,-5.8523,-5.8523,-5.8523,-5.8601,-5.8889,-5.9202,-5.9464,-5.9653,-5.9196,-5.8587,-5.75,-5.5366,-5.3376,-5.181,-4.9782,-4.8296,-4.8294,-4.8189,-4.8086,-4.8314,-4.8376,-4.8293,-4.8086,-4.8024,-4.7817,-4.7154,-4.701,-4.701,-4.5195,-4.5222,-4.5641,-4.5497,-4.5085,-4.5148,-4.4951,-4.4375,0.0,0.0,0.0,-4.3691,-4.3691,-4.3691,-4.3691,-4.3896,-4.4367,-4.5739,-4.661,-4.7014,-5.0009,-5.1385,-5.137,-5.302,-5.3822,-5.3822,-5.3822,-5.3822,-5.3822,-5.3822,-5.3822,-5.3822,-5.3822,-5.3822,-5.3822,-5.3897,-5.3897,-5.3873,-5.3705,-5.3832,-5.4129,-5.4204,-5.379,-5.2921,-5.4303,-5.4694,-5.3811,-5.5032,-5.5204,-5.4235,-5.4135,-5.4275,-5.453,-5.5959,-5.7996,-6.0729,-6.2375,-6.3456,-6.4115,-6.4212,-6.3922,-6.3312,-6.1798,-6.097,-6.1145,-5.8499,-5.6812,-5.6812,-5.4402,-5.2861,-5.2861,-5.2861,-5.2861,-5.2861,-5.2861,-5.2955,-5.3149,-5.3778,-5.4384,-5.4872,-5.6129,-5.7195,-5.7395,-5.7997,-5.8523,-5.8523,-5.8523,-5.8575,-5.8653,-5.8706,-5.8862,-5.9255,-5.9725,-6.0195,-6.0206,-5.9396,-5.8127,-5.7163,-5.4634,-5.2362,-5.1125,-4.9507,-4.8588,-4.8937,-4.8728,-4.8686,-4.8955,-4.8997,-4.8935,-4.8583,-4.85,-4.8396,-4.8045,-4.792,-4.7858,-4.6158,-4.6121,-4.6237,-4.5962,-4.5653,-4.5608,-4.5163,-4.4375,-4.3906,-4.3691,-4.3691,-4.3691,-4.3691,-4.3691,-4.3691,-4.4693,-4.6475,-4.6823,-4.7698,-4.9228,-5.1153,-5.1707,-5.137,-5.302,-5.3822,-5.3822,-5.3822,-5.3822,-5.3822,-5.3822,-5.3822,-5.3822,-5.3822,-5.3822,-5.3822,-5.4098,-5.4322,-5.4322,-5.3448,-5.3084,-5.3132,-5.3398,-5.3661,-5.3846,-5.4938,-5.5606,-5.582,-5.5995,-5.6045,-5.5867,-5.5867,-5.6421,-5.7726,-5.9115,-6.0688,-6.2414,-6.3879,-6.4746,-6.4851,-6.4851,-6.459,-6.3888,-6.2054,-6.0927,-6.0822,-5.7899,-5.5943,-5.5876,-5.4142,-5.2861,-5.2861,-5.298,-5.3005,-5.2911,-5.2886,-5.3174,-5.3974,-5.4239,-5.4949,-5.6353,-5.6874,-5.7447,-5.812,-5.8373,-5.8523,-5.8523,-5.8575,-5.8706,-5.8948,-5.9228,-5.9281,-5.9411,-5.9856,-6.0405,-6.0701,-5.9913,-5.8705,-5.8073,-5.5898,-5.3538,-5.1883,-5.0587,-4.9596,-4.9209,-4.8976,-4.8976,-4.9059,-4.9059,-4.9017,-4.8914,-4.8999,-4.8958,-4.896,-4.9001,-4.8794,-4.6714,-4.6729,-4.7255,-4.7028,-4.6392,-4.5621,-4.5098,-4.4707,-4.4277,-4.3926,-4.375,-4.3965,-4.3945,-4.3833,-4.526,-4.6106,-4.6717,-4.8806,-5.006,-5.0625,-5.2279,-5.2876,-5.274,-5.3422,-5.3822,-5.3822,-5.3822,-5.3822,-5.3822,-5.3822,-5.3822,-5.3822,-5.4023,-5.4098,-5.4173,-5.4496,-5.4719,-5.4719,-5.4255,-5.4157,-5.4376,-5.4498,-5.4789,-5.5224,-5.5651,-5.5999,-5.6219,-5.6219,-5.6219,-5.6219,-5.6968,-5.7733,-5.8418,-6.0551,-6.2109,-6.2773,-6.4167,-6.4996,-6.4996,-6.4996,-6.4503,-6.3414,-6.1705,-6.0411,-5.9576,-5.7524,-5.6207,-5.6207,-5.4719,-5.3808,-5.3833,-5.3833,-5.3808,-5.3808,-5.4018,-5.4233,-5.4696,-5.542,-5.6155,-5.7021,-5.757,-5.7997,-5.84,-5.8523,-5.8523,-5.8549,-5.8732,-5.8752,-5.8151,-5.8543,-5.9278,-6.0028,-6.002,-6.0234,-6.12,-5.9566,-5.8343,-5.8114,-5.5379,-5.3116,-5.1747,-5.0738,-4.9657,-4.923,-4.9059,-4.9059,-4.908,-4.9059,-4.9059,-4.9144,-4.9572,-4.9805,-5.0186,-5.0548,-5.0549,-4.7094,-4.7268,-4.7941,-4.7768,-4.6927,-4.568,-4.5176,-4.5137,-4.4726,-4.4336,-4.4082,-4.4793,-4.4842,-4.467,-4.699,-4.7972,-4.8024,-5.0749,-5.2078,-5.2193,-5.3362,-5.3942,-5.3822,-5.3822,-5.3822,-5.3822,-5.3822,-5.3822,-5.3822,-5.3822,-5.3822,-5.3822,-5.4197,-5.4397,-5.4397,-5.4868,-5.5115,-5.5189,-5.5533,-5.5754,-5.5632,-5.5974,-5.6412,-5.6703,-5.6678,-5.6703,-5.6703,-5.6412,-5.6219,-5.6292,-5.759,-5.856,-5.8982,-6.1341,-6.2934,-6.3328,-6.4361,-6.4996,-6.4996,-6.4996,-6.4361,-6.2906,-6.1436,-6.0,-5.8551,-5.7258,-5.6478,-5.6209,-5.5197,-5.4536,-5.4511,-5.4607,-5.4632,-5.4703,-5.4961,-5.5172,-5.5561,-5.6534,-5.7221,-5.7421,-5.8094,-5.8497,-5.8523,-5.8523,-5.8575,-5.8758,-5.8778,-5.8177,-5.7426,-5.7744,-5.8727,-5.991,-5.9865,-5.9818,-6.1113,-5.9362,-5.7872,-5.777,-5.4487,-5.237,-5.1474,-5.0316,-4.923,-4.9059,-4.9059,-4.9142,-4.9204,-4.9245,-4.9307,-4.9497,-5.0162,-5.0847,-5.136,-5.1851,-5.2209,-4.7268,-4.7615,-4.7788,-4.7441,-4.6947,-4.5974,-4.5605,-4.5566,-4.5156,-4.4961,-4.5157,-4.6652,-4.7072,-4.6906,-4.8597,-5.018,-5.1288,-5.1927,-5.2884,-5.4114,-5.4443,-5.4279,-5.3846,-5.3822,-5.3822,-5.3822,-5.3822,-5.3822,-5.3822,-5.3822,-5.3822,-5.3822,-5.4197,-5.4397,-5.4472,-5.5164,-5.5558,-5.5558,-5.7231,-5.7303,-5.5827,-5.7303,-5.8134,-5.8205,-5.8232,-5.8205,-5.8018,-5.6895,-5.6219,-5.6267,-5.7661,-5.9052,-6.0345,-6.1975,-6.3394,-6.4647,-6.4932,-6.4996,-6.4996,-6.4996,-6.4296,-6.2906,-6.1369,-5.9862,-5.8418,-5.7056,-5.6034,-5.5581,-5.5005,-5.4662,-5.4561,-5.4683,-5.4875,-5.5112,-5.5228,-5.5561,-5.6611,-5.7047,-5.7421,-5.8321,-5.84,-5.8523,-5.8523,-5.8523,-5.8706,-5.8902,-5.8002,-5.7379,-5.7545,-5.73,-5.7548,-5.9009,-5.9312,-5.9642,-6.0151,-5.9123,-5.7879,-5.6686,-5.3938,-5.2231,-5.1626,-5.0528,-4.908,-4.9414,-4.9183,-4.9328,-4.9576,-4.9787,-4.9825,-5.0206,-5.0899,-5.183,-5.228,-5.2555,-5.2656,-4.7701,-4.8113,-4.8392,-4.8134,-4.7295,-4.6205,-4.582,-4.5996,-4.5586,-4.6128,-4.7525,-4.928,-4.8961,-4.7132,-5.041,-5.1832,-5.1738,-5.2945,-5.3713,-5.4159,-5.4135,-5.4015,-5.3846,-5.3822,-5.3822,-5.3822,-5.3822,-5.3822,-5.3822,-5.3822,-5.3897,-5.4197,-5.457,-5.4868,-5.509,-5.5681,-5.5999,-5.5999,-5.759,-5.7992,-5.759,-5.8841,-5.9262,-5.8489,-5.8444,-5.7947,-5.7184,-5.6485,-5.6219,-5.634,-5.8418,-5.9931,-6.0551,-6.2802,-6.4361,-6.4932,-6.4996,-6.4996,-6.4996,-6.4232,-6.3066,-6.1639,-6.0139,-5.8701,-5.7256,-5.6558,-5.6093,-5.5917,-5.5666,-5.5541,-5.5516,-5.5757,-5.5973,-5.6162,-5.6448,-5.6952,-5.7468,-5.7804,-5.812,-5.8497,-5.8523,-5.8523,-5.8523,-5.8523,-5.8317,-5.8048,-5.7299,-5.7044,-5.6149,-5.6216,-5.7116,-5.8046,-5.9033,-6.0201,-6.0736,-5.9131,-5.7962,-5.7293,-5.5112,-5.2963,-5.2427,-5.1659,-5.0561,-5.0019,-4.9804,-4.9845,-5.0115,-5.0156,-5.0239,-5.0751,-5.1993,-5.3213,-5.359,-5.3894,-5.3935,-4.8113,-4.8458,-4.863,-4.8306,-4.7595,-4.641,-4.6363,-4.7014,-4.6716,-4.7788,-4.9807,-5.1598,-5.1021,-4.9243,-5.2399,-5.3302,-5.251,-5.3723,-5.4183,-5.3846,-5.3822,-5.3822,-5.3822,-5.3822,-5.3822,-5.3822,-5.3822,-5.3897,-5.3972,-5.3972,-5.4197,-5.457,-5.4967,-5.5337,-5.5632,-5.5999,-5.6412,-5.6895,-5.8276,-5.8982,-5.9192,-6.0483,-6.0483,-5.9096,-5.863,-5.7876,-5.6823,-5.6438,-5.6219,-5.6292,-5.8956,-6.062,-6.0688,-6.3422,-6.4996,-6.4932,-6.4583,-6.4361,-6.4361,-6.3066,-6.1571,-6.0139,-5.8956,-5.7804,-5.6558,-5.6219,-5.6219,-5.6194,-5.6292,-5.6314,-5.6365,-5.6656,-5.6874,-5.7065,-5.7641,-5.7927,-5.8044,-5.8381,-5.8497,-5.8523,-5.8523,-5.8523,-5.8452,-5.8212,-5.7667,-5.7248,-5.6872,-5.67,-5.5456,-5.6375,-5.7682,-5.8313,-6.0021,-6.0916,-6.1146,-5.9684,-5.8482,-5.7332,-5.5417,-5.3816,-5.3317,-5.239,-5.1456,-5.0418,-5.043,-5.0508,-5.0591,-5.0611,-5.0871,-5.1438,-5.2685,-5.3997,-5.4076,-5.4492,-5.3972,-4.8372,-4.8372,-4.7961,-4.7788,-4.7615,-4.6706,-4.7275,-4.8654,-4.8784,-4.9807,-5.1682,-5.3341,-5.3508,-5.2525,-5.4398,-5.4967,-5.4367,-5.3987,-5.387,-5.3822,-5.3822,-5.3822,-5.3822,-5.3822,-5.3822,-5.3822,-5.3822,-5.3972,-5.4322,-5.4421,-5.457,-5.4967,-5.5337,-5.5558,-5.5705,-5.612,-5.6895,-5.8134,-5.9584,-6.0414,-6.0551,-6.184,-6.1706,-6.0276,-5.9122,-5.8276,-5.7992,-5.6895,-5.6219,-5.6219,-5.9052,-6.062,-6.0893,-6.3422,-6.4996,-6.4839,-6.3655,-6.2906,-6.2707,-6.1504,-6.0139,-5.8841,-5.8418,-5.7733,-5.6412,-5.6219,-5.6219,-5.6219,-5.651,-5.6729,-5.6801,-5.6874,-5.7163,-5.7713,-5.7856,-5.807,-5.8452,-5.8452,-5.8523,-5.8523,-5.8523,-5.8523,-5.8426,-5.7472,-5.7197,-5.6969,-5.5944,-5.538,-5.6842,-5.8035,-5.9231,-6.0498,-6.1813,-6.2535,-5.9964,-5.9335,-5.8475,-5.7314,-5.6114,-5.4324,-5.3361,-5.2434,-5.1585,-5.0839,-5.07,-5.0777,-5.0984,-5.1328,-5.172,-5.236,-5.3266,-5.4193,-5.3931,-5.3167,-5.2685,-4.8351,-4.8372,-4.7874,-4.7528,-4.7181,-4.6571,-4.7314,-4.8997,-4.8997,-5.0653,-5.3176,-5.4079,-5.4522,-5.4926,-5.5219,-5.4928,-5.4135,-5.3894,-5.3972,-5.4173,-5.4173,-5.4173,-5.4173,-5.4173,-5.4023,-5.3822,-5.3822,-5.4023,-5.4397,-5.4645,-5.5016,-5.5337,-5.5558,-5.5705,-5.612,-5.7112,-5.7876,-5.8489,-5.9889,-6.062,-6.0483,-6.0181,-5.9723,-5.9236,-5.8701,-5.7947,-5.704,-5.6485,-5.6631,-5.759,-5.9515,-6.1029,-6.2042,-6.3879,-6.4583,-6.3655,-6.3131,-6.2375,-6.1369,-6.0,-5.8982,-5.8418,-5.7518,-5.6823,-5.6365,-5.6219,-5.6219,-5.6292,-5.6583,-5.6874,-5.7163,-5.7379,-5.7569,-5.7856,-5.8141,-5.8284,-5.8452,-5.8523,-5.8523,-5.8523,-5.8523,-5.8523,-5.8336,-5.7472,-5.6637,-5.6303,-5.5408,-5.5566,-5.6673,-5.8082,-5.9831,-6.1208,-6.2242,-6.231,-6.0534,-5.9834,-5.9236,-5.7988,-5.6729,-5.5487,-5.4345,-5.3713,-5.2987,-5.1527,-5.115,-5.117,-5.1439,-5.164,-5.2144,-5.2703,-5.3655,-5.3768,-5.3507,-5.2847,-5.2449,-4.8544,-4.8372,-4.7874,-4.7441,-4.7007,-4.6483,-4.7641,-4.9743,-4.9913,-5.1827,-5.4754,-5.516,-5.5555,-5.5987,-5.5733,-5.5062,-5.4195,-5.3972,-5.4047,-5.4397,-5.4248,-5.4272,-5.4347,-5.4272,-5.4098,-5.4047,-5.4122,-5.4421,-5.4794,-5.5016,-5.5411,-5.5779,-5.5779,-5.5926,-5.6412,-5.7661,-5.8444,-5.8701,-5.9862,-6.0414,-5.9862,-5.8912,-5.8134,-5.7804,-5.7661,-5.7256,-5.6219,-5.6219,-5.6895,-5.8347,-5.9793,-6.1504,-6.3328,-6.4009,-6.3879,-6.284,-6.188,-6.1002,-5.9931,-5.8489,-5.7661,-5.7661,-5.6823,-5.6219,-5.6219,-5.6219,-5.6219,-5.6292,-5.6729,-5.7163,-5.7379,-5.781,-5.807,-5.807,-5.8212,-5.831,-5.831,-5.8141,-5.8212,-5.8336,-5.8634,-5.8784,-5.8641,-5.7682,-5.7063,-5.6626,-5.618,-5.6384,-5.7734,-5.9324,-6.1006,-6.2547,-6.285,-6.2412,-6.0957,-6.013,-5.915,-5.7991,-5.6997,-5.5873,-5.4961,-5.4477,-5.3744,-5.2423,-5.1812,-5.1791,-5.1882,-5.2083,-5.2444,-5.2803,-5.3098,-5.3344,-5.3034,-5.2719,-5.2318,-4.8802,-4.8286,-4.7874,-4.7441,-4.692,-4.6638,-4.8397,-5.1179,-5.1682,-5.367,-5.6438,-5.6813,-5.6474,-5.6091,-5.5925,-5.557,-5.4866,-5.4197,-5.4122,-5.4472,-5.4197,-5.4197,-5.4496,-5.4197,-5.4197,-5.4397,-5.4818,-5.5189,-5.546,-5.5558,-5.5779,-5.6146,-5.6146,-5.6267,-5.6292,-5.7876,-5.8586,-5.8894,-6.0054,-5.9958,-5.863,-5.8302,-5.759,-5.6485,-5.6485,-5.6558,-5.634,-5.634,-5.7112,-5.8489,-5.9931,-6.1975,-6.4037,-6.3684,-6.2773,-6.2081,-6.0043,-5.8701,-5.8276,-5.7112,-5.6412,-5.6412,-5.6219,-5.6219,-5.6219,-5.6219,-5.6219,-5.6292,-5.6874,-5.7379,-5.7523,-5.8025,-5.8452,-5.8452,-5.8212,-5.807,-5.7856,-5.7667,-5.7621,-5.8057,-5.8804,-5.9333,-5.9143,-5.8397,-5.7843,-5.8227,-5.8166,-5.8591,-6.0205,-6.1597,-6.3465,-6.434,-6.3381,-6.1705,-6.0978,-6.0243,-5.8917,-5.7659,-5.6705,-5.5707,-5.4631,-5.3922,-5.3298,-5.2152,-5.1978,-5.1998,-5.2338,-5.2499,-5.2528,-5.2758,-5.2882,-5.2972,-5.2806,-5.2618,-5.2229,-4.863,-4.7961,-4.7788,-4.7268,-4.6726,-4.7661,-4.9573,-5.1765,-5.3258,-5.5079,-5.671,-5.6927,-5.6527,-5.5998,-5.5637,-5.5329,-5.4991,-5.4744,-5.4868,-5.5164,-5.5115,-5.5016,-5.5164,-5.509,-5.4942,-5.4868,-5.5263,-5.5485,-5.5632,-5.5852,-5.6072,-5.6194,-5.6219,-5.675,-5.7661,-5.9122,-6.0092,-6.0414,-6.0534,-6.005,-5.8915,-5.758,-5.6703,-5.634,-5.7184,-5.7733,-5.7733,-5.7733,-5.8418,-5.9862,-6.1301,-6.2575,-6.3197,-6.3037,-6.1908,-5.9974,-5.9026,-5.7876,-5.6968,-5.6558,-5.6219,-5.6219,-5.6219,-5.6219,-5.6219,-5.6219,-5.6219,-5.6292,-5.6946,-5.7405,-5.7523,-5.8096,-5.8381,-5.8141,-5.8212,-5.8096,-5.7744,-5.8074,-5.8497,-5.8935,-5.9522,-5.9908,-5.9794,-5.9142,-5.9032,-5.9389,-5.9445,-6.0079,-6.163,-6.2013,-6.2534,-6.3559,-6.2067,-6.0827,-5.9991,-5.8894,-5.7464,-5.6558,-5.5839,-5.5336,-5.4275,-5.3404,-5.2755,-5.243,-5.2346,-5.2421,-5.2649,-5.2915,-5.3015,-5.2915,-5.3049,-5.2978,-5.2794,-5.2578,-5.235,-4.8372,-4.7701,-4.7528,-4.7508,-4.7641,-4.8805,-5.0716,-5.3071,-5.4627,-5.5951,-5.6976,-5.7053,-5.6724,-5.6165,-5.5824,-5.5607,-5.5435,-5.5485,-5.5558,-5.5705,-5.5485,-5.5485,-5.5558,-5.5632,-5.5485,-5.5337,-5.5632,-5.5852,-5.5852,-5.6072,-5.6219,-5.6219,-5.6703,-5.7446,-5.856,-6.0345,-6.1452,-6.1192,-6.1261,-6.0576,-5.8997,-5.7698,-5.704,-5.7184,-5.7947,-5.863,-5.9096,-5.9723,-6.0483,-6.1369,-6.2375,-6.2773,-6.2707,-6.1746,-6.0318,-5.8815,-5.7876,-5.7112,-5.634,-5.6292,-5.6219,-5.6219,-5.6219,-5.6219,-5.6219,-5.6219,-5.6219,-5.6292,-5.6801,-5.7235,-5.7451,-5.7882,-5.8245,-5.8238,-5.8271,-5.8128,-5.7878,-5.8332,-5.8958,-5.9482,-6.0123,-6.041,-6.0445,-6.0513,-6.0226,-6.0378,-6.0512,-6.0571,-6.1707,-6.1556,-6.205,-6.2092,-6.0935,-5.9823,-5.8894,-5.7527,-5.5991,-5.5313,-5.4763,-5.4428,-5.3844,-5.321,-5.2618,-5.2911,-5.2936,-5.2999,-5.3299,-5.3638,-5.3801,-5.3621,-5.3261,-5.3095,-5.295,-5.2909,-5.2743,-4.8199,-4.7701,-4.7268,-4.8073,-4.9467,-4.9786,-5.1949,-5.5113,-5.5791,-5.6454,-5.7238,-5.7225,-5.6914,-5.6451,-5.6228,-5.6104,-5.6196,-5.6146,-5.6072,-5.5999,-5.5632,-5.5485,-5.6047,-5.5827,-5.5827,-5.5974,-5.6047,-5.6146,-5.6146,-5.6194,-5.6317,-5.6732,-5.779,-5.8735,-5.9685,-6.1709,-6.2319,-6.1589,-6.2303,-6.1438,-5.8973,-5.8373,-5.8418,-5.8489,-5.863,-5.9306,-6.0688,-6.1773,-6.2508,-6.2773,-6.2707,-6.2641,-6.2042,-5.9862,-5.856,-5.8134,-5.6895,-5.6485,-5.6219,-5.6219,-5.6219,-5.6219,-5.6219,-5.6219,-5.6219,-5.6219,-5.6292,-5.6365,-5.6729,-5.7091,-5.7451,-5.7888,-5.8336,-5.8673,-5.8419,-5.8177,-5.8315,-5.8688,-5.932,-5.9834,-6.0549,-6.1163,-6.1115,-6.1487,-6.1376,-6.1144,-6.1205,-6.1246,-6.1078,-6.1162,-6.1218,-6.0685,-5.9787,-5.8747,-5.7808,-5.6686,-5.5269,-5.4604,-5.4048,-5.366,-5.3602,-5.3072,-5.3211,-5.3504,-5.3877,-5.394,-5.4066,-5.4491,-5.4347,-5.3852,-5.3509,-5.3302,-5.3261,-5.3323,-5.3199,-4.863,-4.8199,-4.8113,-4.8846,-5.0231,-5.1492,-5.3378,-5.5631,-5.6909,-5.7364,-5.7404,-5.6919,-5.66,-5.6327,-5.6005,-5.5977,-5.6171,-5.6219,-5.6219,-5.612,-5.5999,-5.6605,-5.7159,-5.6558,-5.6605,-5.7374,-5.6631,-5.6219,-5.6219,-5.6292,-5.7026,-5.8569,-5.9019,-6.0579,-6.2811,-6.3756,-6.3947,-6.3552,-6.3404,-6.2613,-6.065,-5.907,-5.8982,-5.9931,-6.0,-6.0756,-6.2042,-6.2575,-6.2773,-6.2773,-6.2773,-6.1678,-5.9904,-5.8841,-5.7876,-5.6968,-5.6558,-5.6219,-5.6219,-5.6219,-5.6219,-5.6219,-5.6219,-5.6219,-5.6219,-5.6219,-5.6365,-5.6583,-5.7019,-5.7379,-5.779,-5.8531,-5.9059,-5.9143,-5.8989,-5.892,-5.9134,-5.9679,-6.0202,-6.0706,-6.1297,-6.1633,-6.1617,-6.1709,-6.1631,-6.1309,-6.1221,-6.1187,-6.0618,-6.0061,-5.9811,-5.951,-5.8794,-5.7659,-5.6622,-5.5664,-5.4761,-5.4037,-5.3512,-5.3051,-5.3099,-5.3103,-5.3713,-5.4554,-5.5173,-5.533,-5.5371,-5.5625,-5.4905,-5.4247,-5.4027,-5.3965,-5.3965,-5.3985,-5.3758,-4.863,-4.8372,-4.8199,-4.9509,-5.1616,-5.2801,-5.4766,-5.7042,-5.7929,-5.8096,-5.7519,-5.69,-5.6526,-5.6301,-5.5977,-5.5999,-5.6219,-5.6219,-5.6219,-5.6365,-5.6823,-5.759,-5.7992,-5.7446,-5.759,-5.8089,-5.6895,-5.6292,-5.6365,-5.6776,-5.7971,-5.9365,-6.0676,-6.2439,-6.4339,-6.5333,-6.5085,-6.4398,-6.3897,-6.2943,-6.1108,-5.998,-6.0303,-6.1233,-6.1504,-6.2042,-6.2707,-6.2773,-6.2773,-6.2575,-6.1678,-6.0112,-5.863,-5.7733,-5.7112,-5.6219,-5.6219,-5.6219,-5.6219,-5.6219,-5.6219,-5.6219,-5.6219,-5.6219,-5.6219,-5.6219,-5.6365,-5.651,-5.6946,-5.7435,-5.8125,-5.9097,-5.9673,-5.9731,-5.9882,-5.9912,-5.9803,-6.0315,-6.094,-6.1376,-6.1738,-6.1747,-6.137,-6.1478,-6.1018,-6.0416,-6.0017,-5.9808,-5.9523,-5.8861,-5.8436,-5.8453,-5.8022,-5.7072,-5.6242,-5.5311,-5.4457,-5.3759,-5.3893,-5.3156,-5.3394,-5.3602,-5.4609,-5.5578,-5.6293,-5.6679,-5.643,-5.6111,-5.5744,-5.5188,-5.4809,-5.4524,-5.442,-5.4358,-5.4151,-4.8695,-4.8695,-4.8437,-5.0484,-5.3661,-5.3988,-5.6008,-5.8793,-5.8728,-5.8202,-5.7675,-5.7124,-5.6572,-5.6219,-5.6171,-5.6219,-5.6219,-5.6219,-5.6488,-5.7069,-5.7953,-5.8797,-5.9026,-5.84,-5.8418,-5.8489,-5.704,-5.6634,-5.6975,-5.8031,-5.92,-6.0793,-6.2921,-6.4251,-6.5386,-6.6261,-6.5603,-6.424,-6.3504,-6.268,-6.1316,-6.0715,-6.1233,-6.2707,-6.2575,-6.2575,-6.2641,-6.2442,-6.2109,-6.2242,-5.9793,-5.863,-5.8089,-5.6848,-5.6365,-5.6219,-5.6219,-5.6219,-5.6219,-5.6219,-5.6219,-5.6219,-5.6219,-5.6219,-5.6219,-5.6219,-5.6292,-5.6583,-5.6707,-5.7597,-5.8697,-5.9674,-6.0201,-6.0405,-6.0775,-6.0875,-6.0588,-6.0849,-6.1424,-6.1868,-6.1947,-6.1193,-6.0814,-6.0597,-6.0452,-5.9073,-5.8806,-5.8601,-5.8507,-5.8127,-5.7963,-5.7999,-5.7406,-5.6576,-5.5839,-5.5021,-5.4281,-5.3683,-5.4359,-5.4226,-5.4455,-5.4852,-5.5689,-5.6516,-5.741,-5.7295,-5.6588,-5.6393,-5.6205,-5.5451,-5.4639,-5.4544,-5.4524,-5.4482,-5.4337,-5.1011,-5.1095,-5.2409,-5.4197,-5.5975,-5.6215,-5.7236,-5.8779,-5.8328,-5.7801,-5.7198,-5.6646,-5.6344,-5.6219,-5.6219,-5.6219,-5.6219,-5.639,-5.6979,-5.8804,-5.9631,-6.0462,-6.0344,-5.9387,-5.9079,-5.9122,-5.7374,-5.7124,-5.8393,-5.9195,-6.0997,-6.4,-6.4594,-6.6157,-6.7429,-6.6304,-6.5556,-6.4323,-6.2935,-6.2314,-6.2018,-6.1233,-6.184,-6.3879,-6.3263,-6.2773,-6.2242,-6.0524,-5.9445,-5.9166,-5.8745,-5.7804,-5.6968,-5.6412,-5.6219,-5.6219,-5.6219,-5.6219,-5.6219,-5.6219,-5.6219,-5.6219,-5.6219,-5.6219,-5.6219,-5.6244,-5.6536,-5.7022,-5.7619,-5.865,-5.999,-6.0649,-6.0901,-6.1006,-6.1346,-6.1502,-6.1163,-6.1424,-6.179,-6.177,-6.1193,-6.0533,-6.0502,-5.9189,-5.8603,-5.7892,-5.7593,-5.7414,-5.7435,-5.7424,-5.7699,-5.7952,-5.7265,-5.6618,-5.5985,-5.5291,-5.4533,-5.4215,-5.4758,-5.5625,-5.5783,-5.6013,-5.6818,-5.7678,-5.858,-5.8049,-5.7026,-5.6746,-5.6559,-5.5451,-5.4544,-5.4544,-5.4544,-5.4544,-5.4544,-5.216,-5.2988,-5.3952,-5.5332,-5.6717,-5.6956,-5.758,-5.845,-5.8127,-5.7575,-5.6997,-5.6445,-5.6219,-5.6219,-5.6219,-5.6219,-5.6488,-5.7346,-5.8863,-6.0492,-6.1291,-6.1834,-6.1972,-6.0385,-5.9421,-5.9351,-5.761,-5.7747,-5.9111,-6.0598,-6.2427,-6.5512,-6.6043,-6.6873,-6.7824,-6.6214,-6.4523,-6.328,-6.226,-6.1699,-6.1614,-6.184,-6.2042,-6.3328,-6.2575,-6.1504,-6.0524,-5.9375,-5.816,-5.759,-5.74,-5.7112,-5.6412,-5.6219,-5.6219,-5.6219,-5.6219,-5.6219,-5.6219,-5.6219,-5.6219,-5.6219,-5.6219,-5.6219,-5.6367,-5.6566,-5.7036,-5.7601,-5.8375,-5.9584,-6.0906,-6.111,-6.1189,-6.1476,-6.1529,-6.1555,-6.1581,-6.179,-6.2048,-6.1721,-6.0939,-6.0224,-5.9454,-5.837,-5.7385,-5.6887,-5.6908,-5.6813,-5.7504,-5.7539,-5.8021,-5.806,-5.7425,-5.6855,-5.6261,-5.5628,-5.4904,-5.4957,-5.5407,-5.6545,-5.7312,-5.7541,-5.7863,-5.851,-5.8971,-5.8396,-5.7585,-5.7306,-5.6465,-5.5283,-5.4544,-5.4544,-5.4544,-5.4544,-5.4544,-5.3131,-5.4708,-5.5009,-5.5999,-5.7218,-5.7352,-5.7843,-5.8376,-5.8102,-5.7499,-5.6897,-5.6394,-5.6219,-5.6219,-5.6219,-5.6292,-5.7175,-5.8528,-6.0419,-6.2719,-6.2155,-6.2521,-6.2508,-6.0997,-5.9385,-5.8537,-5.802,-5.8594,-6.0347,-6.1993,-6.4138,-6.5997,-6.6489,-6.7056,-6.7103,-6.5271,-6.3182,-6.1685,-6.1205,-6.1009,-6.107,-6.1908,-6.2735,-6.2865,-6.1507,-6.0291,-5.9378,-5.8447,-5.76,-5.6392,-5.6269,-5.6219,-5.6219,-5.6219,-5.6219,-5.6219,-5.6219,-5.6219,-5.6219,-5.6219,-5.6219,-5.6219,-5.6344,-5.6369,-5.6543,-5.7215,-5.7763,-5.8386,-5.9113,-6.0272,-6.1088,-6.1319,-6.1529,-6.1738,-6.1502,-6.1581,-6.1947,-6.2104,-6.2156,-6.1956,-6.0942,-5.9947,-5.9017,-5.8046,-5.6961,-5.6174,-5.6191,-5.6391,-5.7211,-5.7883,-5.848,-5.8473,-5.7826,-5.649,-5.5722,-5.5629,-5.501,-5.5565,-5.609,-5.7213,-5.8326,-5.8418,-5.8418,-5.8695,-5.8787,-5.8234,-5.7492,-5.6746,-5.5829,-5.483,-5.4544,-5.4544,-5.4544,-5.4544,-5.4544,-5.4847,-5.6558,-5.8031,-5.8837,-5.8993,-5.8993,-5.8598,-5.8051,-5.7926,-5.7298,-5.642,-5.6244,-5.6219,-5.6219,-5.6219,-5.715,-5.8606,-6.0112,-6.2006,-6.3929,-6.3015,-6.234,-6.2107,-6.0498,-5.9392,-5.9431,-5.9534,-6.0731,-6.2506,-6.4345,-6.5931,-6.7541,-6.7045,-6.6729,-6.574,-6.3558,-6.1566,-6.0819,-6.0403,-6.0418,-6.1014,-6.1967,-6.2967,-6.2899,-6.1188,-5.9935,-5.9357,-5.8104,-5.7093,-5.6846,-5.6445,-5.6294,-5.6465,-5.6465,-5.6294,-5.6219,-5.6219,-5.6219,-5.6219,-5.6219,-5.6219,-5.6319,-5.6595,-5.6872,-5.7096,-5.782,-5.8521,-5.9196,-6.0076,-6.1141,-6.1764,-6.1738,-6.1816,-6.1921,-6.1921,-6.1999,-6.2469,-6.255,-6.2398,-6.2119,-6.0879,-5.9711,-5.8862,-5.8022,-5.7114,-5.6871,-5.7167,-5.7453,-5.8102,-5.872,-5.9306,-5.8932,-5.8249,-5.6602,-5.5084,-5.5136,-5.501,-5.6026,-5.6746,-5.7656,-5.851,-5.8787,-5.8971,-5.851,-5.8234,-5.7863,-5.7141,-5.6205,-5.5567,-5.4735,-5.4544,-5.4544,-5.4544,-5.4544,-5.4544,-5.5838,-5.829,-5.9173,-5.9332,-5.9156,-5.9382,-5.8704,-5.76,-5.775,-5.7273,-5.647,-5.6219,-5.6219,-5.6294,-5.6545,-5.7907,-6.0039,-6.2398,-6.3766,-6.4481,-6.3324,-6.205,-6.1699,-5.9809,-5.9709,-6.0399,-6.1596,-6.2983,-6.4468,-6.5544,-6.7033,-6.7889,-6.6923,-6.6005,-6.5209,-6.249,-6.0676,-6.0164,-6.0551,-6.1041,-6.1473,-6.2344,-6.277,-6.2229,-6.0539,-5.9142,-5.8746,-5.8247,-5.7474,-5.7424,-5.7223,-5.7516,-5.7735,-5.739,-5.6796,-5.6443,-5.6244,-5.6219,-5.6219,-5.6219,-5.6319,-5.6646,-5.6922,-5.7247,-5.7872,-5.8676,-5.9583,-6.0415,-6.0895,-6.1659,-6.1921,-6.2048,-6.2048,-6.2048,-6.1999,-6.2287,-6.2576,-6.2581,-6.2225,-6.1709,-6.0376,-5.9367,-5.9109,-5.8208,-5.7267,-5.7392,-5.8033,-5.8508,-5.8958,-5.9358,-5.9858,-5.9408,-5.87,-5.7361,-5.5829,-5.5451,-5.5546,-5.6465,-5.7026,-5.7956,-5.8418,-5.8603,-5.8049,-5.7306,-5.7141,-5.7048,-5.658,-5.5661,-5.5094,-5.4619,-5.4544,-5.4544,-5.4544,-5.4544,-5.4544,-5.659,-5.9332,-5.9332,-5.9031,-5.8679,-5.8981,-5.8353,-5.7323,-5.7524,-5.7148,-5.6294,-5.6219,-5.6219,-5.6468,-5.7438,-5.9061,-6.1615,-6.4496,-6.5235,-6.4736,-6.3684,-6.2434,-6.098,-6.0139,-6.0036,-6.1702,-6.3542,-6.5076,-6.5768,-6.6716,-6.7524,-6.7427,-6.6157,-6.5,-6.3958,-6.1516,-6.0336,-6.0737,-6.172,-6.2546,-6.2789,-6.2633,-6.2361,-6.1961,-5.9573,-5.8353,-5.8479,-5.8228,-5.8077,-5.8001,-5.8051,-5.8548,-5.9631,-5.8723,-5.7673,-5.7063,-5.6664,-5.6394,-5.6394,-5.642,-5.662,-5.6922,-5.7323,-5.7899,-5.8577,-5.9587,-6.0676,-6.1718,-6.1947,-6.1921,-6.2048,-6.2048,-6.2048,-6.1999,-6.2028,-6.2062,-6.1942,-6.1785,-6.1202,-6.0487,-5.9435,-5.8863,-5.8464,-5.8699,-5.7845,-5.8,-5.8617,-5.9115,-5.9587,-5.9731,-5.9997,-5.9727,-5.9132,-5.8097,-5.7026,-5.6393,-5.6465,-5.7026,-5.7119,-5.7492,-5.7956,-5.8234,-5.7421,-5.6508,-5.5923,-5.5734,-5.5378,-5.5188,-5.483,-5.4544,-5.4544,-5.4544,-5.4544,-5.4544,-5.4544,-5.7448,-5.883,-5.8805,-5.8504,-5.8052,-5.8102,-5.7725,-5.7072,-5.7123,-5.6796,-5.6294,-5.6244,-5.6269,-5.701,-5.8993,-6.1007,-6.3207,-6.5079,-6.6034,-6.5455,-6.3837,-6.2225,-6.1153,-6.0906,-6.1427,-6.2965,-6.5076,-6.6146,-6.676,-6.7799,-6.7719,-6.6873,-6.5356,-6.3794,-6.2591,-6.1002,-6.0148,-6.0953,-6.2381,-6.359,-6.4055,-6.352,-6.2498,-6.1201,-5.997,-5.9182,-5.9056,-5.8805,-5.8629,-5.8579,-5.8253,-5.8725,-5.9657,-5.8723,-5.8846,-5.876,-5.8184,-5.6947,-5.6947,-5.6947,-5.7022,-5.7448,-5.8151,-5.8908,-5.959,-6.045,-6.1365,-6.1846,-6.2074,-6.2051,-6.2104,-6.2051,-6.1999,-6.1906,-6.1811,-6.1271,-6.0918,-6.0292,-5.9837,-5.9515,-5.8581,-5.8152,-5.7682,-5.8126,-5.8519,-5.8803,-5.9201,-5.9786,-6.017,-6.0329,-6.0134,-5.9931,-5.9635,-5.8695,-5.7771,-5.7213,-5.7041,-5.7464,-5.7415,-5.7228,-5.7365,-5.748,-5.6695,-5.5871,-5.5304,-5.4904,-5.483,-5.4735,-5.4544,-5.4544,-5.4544,-5.4544,-5.4544,-5.4544,-5.4544,-5.8188,-5.8653,-5.873,-5.8202,-5.7499,-5.775,-5.7374,-5.6746,-5.6897,-5.6897,-5.6721,-5.6671,-5.7415,-5.8955,-6.1087,-6.3126,-6.4953,-6.609,-6.5892,-6.4901,-6.3127,-6.1432,-6.0524,-6.0817,-6.194,-6.3938,-6.5612,-6.6971,-6.765,-6.809,-6.8022,-6.6413,-6.494,-6.3465,-6.1966,-6.1165,-6.1111,-6.2022,-6.3695,-6.518,-6.5279,-6.4374,-6.2997,-6.145,-6.0176,-5.9612,-5.9433,-5.9332,-5.9156,-5.926,-5.9515,-6.0914,-6.1967,-6.1967,-6.2186,-6.336,-6.0927,-5.892,-5.7724,-5.7599,-5.765,-5.8026,-5.8807,-5.9591,-6.0377,-6.1163,-6.1823,-6.1973,-6.2287,-6.2443,-6.2548,-6.2757,-6.207,-6.1633,-6.1295,-6.0044,-5.9228,-5.8697,-5.8152,-5.8009,-5.794,-5.782,-5.7913,-5.8757,-5.9412,-5.9884,-6.0252,-6.081,-6.0903,-6.0786,-6.0544,-6.0159,-5.9817,-5.9338,-5.851,-5.7771,-5.7286,-5.7445,-5.7691,-5.7503,-5.701,-5.6684,-5.6168,-5.5525,-5.4966,-5.466,-5.4565,-5.4544,-5.4544,-5.4544,-5.4544,-5.4544,-5.4544,-5.4544,-5.4544,-5.8428,-5.8303,-5.8303,-5.7725,-5.6872,-5.7298,-5.6997,-5.6344,-5.6821,-5.7022,-5.7147,-5.7592,-5.9065,-6.1064,-6.2822,-6.452,-6.5723,-6.6272,-6.5182,-6.3549,-6.207,-6.1028,-6.0906,-6.1424,-6.297,-6.4779,-6.6524,-6.765,-6.8256,-6.8256,-6.7277,-6.592,-6.4174,-6.3005,-6.2115,-6.1741,-6.1988,-6.3511,-6.5241,-6.5977,-6.5526,-6.4192,-6.2683,-6.129,-6.0227,-5.9508,-5.9508,-5.9483,-5.9483,-6.0329,-6.0936,-6.2329,-6.4084,-6.4057,-6.4417,-6.4791,-6.2783,-6.0487,-5.9258,-5.863,-5.8454,-5.8756,-5.9414,-6.0251,-6.129,-6.1898,-6.2104,-6.2234,-6.2522,-6.2809,-6.3071,-6.341,-6.238,-6.1334,-6.0452,-5.8882,-5.7579,-5.7407,-5.7131,-5.6978,-5.7302,-5.8311,-5.8667,-5.9593,-6.0305,-6.0851,-6.138,-6.1776,-6.1526,-6.1111,-6.0796,-6.0341,-5.9499,-5.9247,-5.8831,-5.8159,-5.7748,-5.7371,-5.7617,-5.744,-5.6772,-5.6368,-5.606,-5.5446,-5.4813,-5.4813,-5.4938,-5.4731,-5.4544,-5.4544,-5.4544,-5.4544,-5.4544,-5.4544,-5.4544,-5.7625,-5.7148,-5.7098,-5.6846,-5.6319,-5.6294,-5.6319,-5.6269,-5.6796,-5.7072,-5.7422,-5.9032,-6.0263,-6.1609,-6.37,-6.4898,-6.4581,-6.5821,-6.4464,-6.2783,-6.179,-6.1539,-6.1839,-6.2972,-6.4642,-6.6174,-6.7512,-6.8392,-6.8324,-6.7069,-6.5849,-6.4391,-6.3446,-6.2413,-6.204,-6.2338,-6.3857,-6.5182,-6.6483,-6.568,-6.4536,-6.3005,-6.1493,-6.0176,-5.9663,-5.9508,-5.9508,-5.9663,-6.0227,-6.1342,-6.2216,-6.3372,-6.5324,-6.5324,-6.5751,-6.5864,-6.3848,-6.1974,-6.1126,-5.9616,-5.8781,-5.9084,-5.9795,-6.0862,-6.1877,-6.195,-6.2208,-6.2705,-6.3018,-6.3074,-6.3412,-6.344,-6.2476,-6.0478,-5.9006,-5.7598,-5.6696,-5.6612,-5.6309,-5.6087,-5.6865,-5.8255,-5.9134,-6.0028,-6.023,-6.0753,-6.0973,-6.1432,-6.1222,-6.0843,-6.082,-6.0387,-5.9294,-5.8861,-5.8854,-5.8242,-5.7298,-5.6878,-5.6941,-5.6736,-5.6217,-5.5981,-5.6154,-5.5794,-5.5393,-5.5352,-5.5269,-5.5103,-5.4896,-5.4648,-5.4544,-5.4544,-5.4544,-5.4544,-5.4544,-5.7248,-5.6997,-5.6671,-5.642,-5.6219,-5.6219,-5.6219,-5.6319,-5.6796,-5.7474,-5.8228,-6.0186,-6.1859,-6.3116,-6.3894,-6.5147,-6.5225,-6.3857,-6.2931,-6.2264,-6.1842,-6.1842,-6.2561,-6.4174,-6.5963,-6.679,-6.8022,-6.8159,-6.7207,-6.599,-6.511,-6.4029,-6.3546,-6.2635,-6.2561,-6.3819,-6.5834,-6.6749,-6.6888,-6.5707,-6.422,-6.2662,-6.1194,-6.0116,-5.9583,-5.9734,-6.004,-6.0661,-6.1217,-6.2141,-6.3692,-6.5209,-6.6483,-6.6553,-6.7069,-6.7305,-6.4752,-6.3372,-6.2635,-6.0883,-5.9437,-5.9922,-6.0482,-6.1195,-6.2266,-6.2496,-6.2809,-6.3227,-6.3542,-6.3571,-6.2996,-6.3117,-6.2331,-5.9546,-5.7608,-5.6445,-5.5821,-5.5817,-5.6461,-5.6503,-5.7645,-5.8977,-5.9658,-6.0271,-6.0407,-6.0567,-6.0745,-6.0926,-6.0911,-6.0868,-6.0914,-6.0569,-5.9539,-5.8751,-5.8666,-5.7776,-5.6825,-5.666,-5.6411,-5.6417,-5.6304,-5.6304,-5.634,-5.6195,-5.5931,-5.5807,-5.5662,-5.5496,-5.5248,-5.4917,-5.4689,-5.4544,-5.4544,-5.4544,-5.4544,-5.6796,-5.6746,-5.6369,-5.6219,-5.6219,-5.6219,-5.6319,-5.6545,-5.7072,-5.8276,-5.9769,-6.1685,-6.2945,-6.3912,-6.4741,-6.4318,-6.4174,-6.2872,-6.1816,-6.1391,-6.1467,-6.1966,-6.3299,-6.4895,-6.6622,-6.7138,-6.7374,-6.7374,-6.6651,-6.4995,-6.4555,-6.4637,-6.4854,-6.4446,-6.4646,-6.6152,-6.8066,-6.7895,-6.7059,-6.5424,-6.3794,-6.2339,-6.1403,-6.0591,-6.0261,-6.0705,-6.1324,-6.2043,-6.2941,-6.4042,-6.5413,-6.6679,-6.7431,-6.809,-6.8692,-6.7816,-6.623,-6.4346,-6.3446,-6.1617,-6.0047,-6.0507,-6.0916,-6.1633,-6.2506,-6.302,-6.3358,-6.3777,-6.3987,-6.3642,-6.2708,-6.2546,-6.1125,-5.8329,-5.7512,-5.6398,-5.5502,-5.5253,-5.6378,-5.721,-5.8498,-5.9749,-5.9658,-6.0159,-6.0091,-6.0387,-6.0889,-6.1094,-6.1143,-6.1189,-6.1279,-6.0722,-5.9885,-5.9195,-5.8465,-5.7411,-5.6466,-5.6767,-5.6687,-5.6775,-5.6759,-5.6738,-5.6718,-5.6635,-5.6469,-5.6262,-5.6117,-5.5993,-5.56,-5.5145,-5.4938,-5.4772,-5.4544,-5.4544,-5.4544,-5.6244,-5.6219,-5.6219,-5.6219,-5.6269,-5.6219,-5.6545,-5.7072,-5.765,-5.9084,-6.121,-6.2951,-6.3415,-6.3676,-6.4648,-6.3993,-6.2359,-6.1734,-6.1191,-6.066,-6.1767,-6.2783,-6.4292,-6.5892,-6.7207,-6.8022,-6.7581,-6.6721,-6.6145,-6.4988,-6.4627,-6.5546,-6.6535,-6.7324,-6.7466,-6.9375,-6.9416,-6.765,-6.6642,-6.4978,-6.3268,-6.189,-6.1309,-6.1169,-6.0939,-6.1416,-6.2819,-6.3433,-6.4477,-6.6336,-6.7097,-6.8085,-6.8699,-6.8817,-6.8953,-6.8486,-6.5945,-6.4428,-6.3865,-6.1091,-6.048,-6.0963,-6.135,-6.2071,-6.2871,-6.3389,-6.3907,-6.4378,-6.3745,-6.3232,-6.259,-6.1718,-5.9569,-5.7919,-5.7044,-5.6368,-5.5517,-5.5911,-5.7226,-5.8021,-5.9294,-6.0364,-6.0,-5.9931,-5.9794,-6.0136,-6.0799,-6.112,-6.1327,-6.1323,-6.1385,-6.093,-6.0149,-5.9122,-5.8267,-5.6933,-5.6236,-5.6531,-5.6801,-5.6966,-5.707,-5.7049,-5.7049,-5.707,-5.6945,-5.6718,-5.6614,-5.6531,-5.6138,-5.5724,-5.5269,-5.502,-5.4751,-5.4544,-5.4544,-5.6219,-5.6219,-5.6219,-5.642,-5.6721,-5.6746,-5.7072,-5.765,-5.8227,-5.9135,-6.0303,-6.1625,-6.2238,-6.2485,-6.2691,-6.2499,-6.173,-6.0328,-5.9946,-6.1316,-6.2635,-6.422,-6.568,-6.686,-6.765,-6.7236,-6.6511,-6.5269,-6.384,-6.4184,-6.5124,-6.6075,-6.8049,-6.9875,-6.9815,-7.0378,-6.9716,-6.8084,-6.667,-6.5109,-6.3281,-6.1959,-6.1391,-6.1692,-6.1441,-6.2318,-6.4219,-6.4778,-6.6235,-6.8056,-6.884,-6.9568,-6.9851,-6.9891,-6.9408,-6.8499,-6.6221,-6.4327,-6.2916,-6.1031,-6.1003,-6.1545,-6.1963,-6.2559,-6.344,-6.3987,-6.4482,-6.4636,-6.3958,-6.3401,-6.2522,-6.0914,-5.9011,-5.7201,-5.6341,-5.6056,-5.5856,-5.731,-5.8608,-5.8905,-5.9795,-5.984,-5.968,-5.9469,-5.9466,-5.9368,-5.996,-6.1158,-6.1501,-6.1352,-6.1267,-6.1007,-6.0251,-5.9215,-5.8076,-5.7045,-5.6531,-5.6842,-5.7028,-5.7111,-5.7194,-5.7215,-5.7194,-5.7152,-5.7173,-5.7173,-5.7008,-5.6842,-5.6718,-5.6387,-5.5848,-5.5331,-5.5,-5.4731,-5.4544,-5.6219,-5.6219,-5.6219,-5.652,-5.6997,-5.7047,-5.7449,-5.8177,-5.8755,-5.9388,-6.0124,-6.0765,-6.108,-6.1358,-6.1727,-6.138,-6.1555,-6.1539,-6.1391,-6.2857,-6.422,-6.5396,-6.6553,-6.7443,-6.7138,-6.6469,-6.5386,-6.4157,-6.3057,-6.4022,-6.5098,-6.6637,-6.8871,-6.9264,-6.9632,-6.9748,-6.9145,-6.7376,-6.5677,-6.4762,-6.3231,-6.2227,-6.1969,-6.2094,-6.2366,-6.3012,-6.5053,-6.6428,-6.7497,-6.9091,-7.0275,-7.0877,-7.0692,-7.0016,-6.9422,-6.8149,-6.6263,-6.4263,-6.2522,-6.2382,-6.2585,-6.3118,-6.2907,-6.3199,-6.411,-6.4871,-6.5024,-6.493,-6.431,-6.3194,-6.1911,-6.0188,-5.8701,-5.6946,-5.671,-5.6533,-5.7125,-5.8583,-5.9201,-5.9521,-5.9726,-5.9588,-5.9309,-5.9137,-5.9008,-5.8969,-5.9044,-6.0244,-6.1407,-6.1205,-6.0786,-6.0351,-5.9941,-5.883,-5.802,-5.7447,-5.7169,-5.7194,-5.7215,-5.7215,-5.7215,-5.7215,-5.7215,-5.7215,-5.7215,-5.7215,-5.7215,-5.7111,-5.6966,-5.6697,-5.6283,-5.5786,-5.531,-5.502,-5.4793,-5.6219,-5.6219,-5.6219,-5.652,-5.6972,-5.7148,-5.7775,-5.8755,-5.9257,-5.9973,-6.0932,-6.0932,-6.107,-6.0941,-6.2418,-6.2496,-6.1879,-6.3185,-6.3803,-6.4464,-6.5538,-6.6272,-6.6553,-6.679,-6.6567,-6.5672,-6.4497,-6.3359,-6.2709,-6.3822,-6.5116,-6.6531,-6.7852,-6.8085,-6.8366,-6.8386,-6.7668,-6.6009,-6.5342,-6.4271,-6.2818,-6.2558,-6.2546,-6.2621,-6.2734,-6.4106,-6.5841,-6.7305,-6.8892,-7.0289,-7.139,-7.1114,-7.0374,-6.9124,-6.8594,-6.7505,-6.5479,-6.3987,-6.333,-6.3669,-6.4179,-6.4455,-6.4035,-6.4273,-6.4772,-6.5485,-6.5316,-6.4697,-6.3835,-6.2556,-6.1177,-5.9863,-5.8503,-5.7886,-5.7718,-5.7942,-5.8491,-5.9246,-5.9612,-5.9909,-6.0,-5.9839,-5.9208,-5.8958,-5.8416,-5.8298,-5.8267,-5.8579,-5.9604,-6.0264,-5.9908,-5.9364,-5.8903,-5.8309,-5.7734,-5.7335,-5.7235,-5.7215,-5.7215,-5.7215,-5.7215,-5.7215,-5.7215,-5.7215,-5.7215,-5.7215,-5.7215,-5.7215,-5.7194,-5.6904,-5.6614,-5.6283,-5.5807,-5.5434,-5.5165,-5.6219,-5.6219,-5.6219,-5.652,-5.7123,-5.7876,-5.8629,-5.9257,-5.9458,-6.0049,-6.0906,-6.098,-6.1457,-6.2418,-6.2983,-6.3208,-6.3533,-6.3993,-6.494,-6.568,-6.6483,-6.7207,-6.7374,-6.6986,-6.6241,-6.5009,-6.3761,-6.2561,-6.271,-6.3644,-6.5446,-6.7256,-6.7218,-6.6885,-6.6523,-6.6548,-6.5844,-6.5398,-6.5055,-6.402,-6.3028,-6.2797,-6.2923,-6.2948,-6.2923,-6.4306,-6.5818,-6.7195,-6.8757,-7.0346,-7.0627,-7.0457,-7.0254,-6.8818,-6.7668,-6.6554,-6.5136,-6.4126,-6.4312,-6.4653,-6.5093,-6.5734,-6.5544,-6.5707,-6.5887,-6.5745,-6.5467,-6.4387,-6.3302,-6.2128,-6.1198,-5.9968,-5.9045,-5.8747,-5.8606,-5.8903,-5.9338,-5.9726,-6.0091,-6.0091,-6.0182,-5.9539,-5.8919,-5.8256,-5.7838,-5.7661,-5.755,-5.7774,-5.8077,-5.8817,-5.9078,-5.8606,-5.821,-5.7713,-5.7514,-5.7215,-5.7215,-5.7215,-5.7215,-5.7215,-5.7215,-5.7215,-5.7215,-5.7215,-5.7215,-5.7215,-5.7215,-5.7215,-5.7215,-5.7215,-5.6987,-5.6676,-5.6324,-5.589,-5.5455,-5.6219,-5.6219,-5.6219,-5.652,-5.7197,-5.8626,-5.9614,-6.0048,-6.0049,-6.0397,-6.098,-6.1351,-6.2202,-6.3153,-6.3947,-6.4575,-6.5127,-6.6033,-6.679,-6.7138,-6.7277,-6.7953,-6.8051,-6.6946,-6.5733,-6.4553,-6.3431,-6.2239,-6.2602,-6.364,-6.5339,-6.5791,-6.6292,-6.592,-6.5327,-6.5243,-6.511,-6.4798,-6.4401,-6.3894,-6.3457,-6.3174,-6.3274,-6.335,-6.3299,-6.4179,-6.5628,-6.6922,-6.824,-7.0163,-7.0548,-7.0155,-6.9893,-6.8591,-6.7054,-6.6027,-6.5649,-6.5338,-6.5662,-6.6094,-6.6377,-6.6687,-6.709,-6.739,-6.6821,-6.6381,-6.5176,-6.3854,-6.2886,-6.1847,-6.1075,-6.0315,-5.9954,-5.9612,-5.9635,-5.9635,-5.9909,-6.0182,-6.0273,-6.0296,-5.9793,-5.9141,-5.8467,-5.7836,-5.7364,-5.7269,-5.7285,-5.7368,-5.7509,-5.787,-5.8111,-5.7912,-5.7614,-5.7314,-5.7215,-5.7215,-5.7215,-5.7215,-5.7215,-5.7215,-5.7215,-5.7215,-5.7215,-5.7215,-5.7215,-5.7215,-5.7215,-5.7215,-5.7215,-5.7215,-5.7215,-5.6987,-5.6614,-5.6159,-5.5724,-5.6219,-5.6219,-5.6219,-5.6667,-5.7417,-5.9351,-6.0556,-6.1148,-6.1374,-6.1322,-6.1728,-6.2391,-6.3308,-6.4483,-6.5488,-6.6241,-6.6817,-6.765,-6.8022,-6.876,-6.846,-6.8528,-6.7545,-6.6334,-6.5162,-6.4235,-6.3337,-6.224,-6.2583,-6.3533,-6.4222,-6.3776,-6.4493,-6.4703,-6.4652,-6.4594,-6.4627,-6.4583,-6.4095,-6.3539,-6.3816,-6.3802,-6.3952,-6.4203,-6.4244,-6.4539,-6.5947,-6.7028,-6.7773,-6.9693,-7.0501,-6.9812,-6.8946,-6.8266,-6.6708,-6.6325,-6.6158,-6.6439,-6.6775,-6.7204,-6.7676,-6.8065,-6.8597,-6.8054,-6.7099,-6.6162,-6.48,-6.3777,-6.2745,-6.1573,-6.0769,-6.0521,-6.0227,-6.0091,-6.0091,-6.0091,-6.0182,-6.0364,-6.0364,-6.0228,-5.9424,-5.8787,-5.8584,-5.7967,-5.7228,-5.7144,-5.7173,-5.7215,-5.7215,-5.7314,-5.7414,-5.7435,-5.7314,-5.7215,-5.7215,-5.7215,-5.7215,-5.7215,-5.7215,-5.7215,-5.7215,-5.7215,-5.7215,-5.7215,-5.7215,-5.7215,-5.7215,-5.7215,-5.7215,-5.7215,-5.7215,-5.7215,-5.6904,-5.6428,-5.5993,-5.6219,-5.6219,-5.6219,-5.7153,-5.8828,-5.9809,-6.1232,-6.2822,-6.3962,-6.4343,-6.4581,-6.5181,-6.5906,-6.6617,-6.7358,-6.7947,-6.8237,-6.8392,-6.876,-6.8789,-6.8789,-6.8234,-6.7197,-6.5981,-6.4823,-6.3616,-6.2836,-6.2521,-6.3231,-6.391,-6.4362,-6.4304,-6.4723,-6.4966,-6.463,-6.463,-6.463,-6.4655,-6.4404,-6.4128,-6.4329,-6.4304,-6.4379,-6.4479,-6.4521,-6.4521,-6.5594,-6.6421,-6.7184,-6.828,-6.828,-6.772,-6.6996,-6.6725,-6.6559,-6.6443,-6.6844,-6.7182,-6.755,-6.7976,-6.8211,-6.8498,-6.8429,-6.7307,-6.6268,-6.5481,-6.4505,-6.3554,-6.2564,-6.1425,-6.0636,-6.0545,-6.0454,-6.0454,-6.0454,-6.0454,-6.0454,-6.0454,-6.0454,-5.9816,-5.9074,-5.8771,-5.856,-5.8074,-5.7227,-5.7045,-5.7132,-5.7215,-5.7215,-5.7215,-5.7215,-5.7314,-5.7215,-5.7215,-5.7215,-5.7215,-5.7215,-5.7215,-5.7215,-5.7215,-5.7215,-5.7215,-5.7215,-5.7215,-5.7215,-5.7215,-5.7215,-5.7215,-5.7215,-5.7215,-5.7215,-5.7215,-5.709,-5.6697,-5.6262,-5.6219,-5.6292,-5.6895,-5.8068,-5.9594,-6.1363,-6.3019,-6.4526,-6.621,-6.6971,-6.6942,-6.7153,-6.7562,-6.8247,-6.8615,-6.876,-6.876,-6.876,-6.876,-6.8857,-6.8914,-6.8176,-6.7142,-6.603,-6.5039,-6.4012,-6.3258,-6.3199,-6.3884,-6.5346,-6.5952,-6.5277,-6.5462,-6.5866,-6.5386,-6.5183,-6.5157,-6.5233,-6.5132,-6.5132,-6.5082,-6.4982,-6.5032,-6.5057,-6.5091,-6.515,-6.5538,-6.6432,-6.7264,-6.8164,-6.8677,-6.8051,-6.7451,-6.7069,-6.7178,-6.7442,-6.782,-6.8011,-6.8246,-6.8377,-6.8398,-6.8576,-6.8067,-6.6797,-6.6172,-6.5186,-6.3177,-6.2119,-6.1605,-6.0545,-6.0545,-6.0454,-6.0454,-6.0454,-6.0454,-6.0454,-6.0454,-6.0454,-6.0273,-5.9811,-5.9106,-5.8402,-5.8159,-5.75,-5.6936,-5.7149,-5.7215,-5.7215,-5.7215,-5.7215,-5.7215,-5.7215,-5.7215,-5.7215,-5.7215,-5.7215,-5.7215,-5.7215,-5.7215,-5.7215,-5.7215,-5.7215,-5.7215,-5.7215,-5.7215,-5.7215,-5.7215,-5.7215,-5.7215,-5.7215,-5.7215,-5.7215,-5.7049,-5.6842,-5.6366,-5.634,-5.6631,-5.7953,-5.9218,-6.0483,-6.3391,-6.5299,-6.6304,-6.7928,-6.8731,-6.8577,-6.8113,-6.8392,-6.8654,-6.876,-6.876,-6.876,-6.876,-6.876,-6.9147,-6.9495,-6.8326,-6.7357,-6.6704,-6.5482,-6.4636,-6.3981,-6.3892,-6.4103,-6.6061,-6.7016,-6.6221,-6.6814,-6.777,-6.6601,-6.6086,-6.5961,-6.5886,-6.5886,-6.5986,-6.5886,-6.5745,-6.5941,-6.6051,-6.6196,-6.6399,-6.6924,-6.737,-6.8268,-6.8655,-6.9314,-6.8655,-6.8211,-6.7774,-6.7961,-6.8315,-6.8476,-6.8555,-6.8685,-6.8659,-6.8628,-6.8261,-6.7307,-6.6429,-6.5828,-6.4328,-6.2232,-6.1155,-6.0636,-6.0477,-6.0454,-6.0454,-6.0454,-6.0454,-6.0454,-6.0454,-6.0454,-6.0523,-6.0204,-5.9803,-5.9107,-5.8443,-5.7752,-5.7101,-5.6999,-5.7111,-5.7215,-5.7215,-5.7215,-5.7215,-5.7215,-5.7215,-5.7215,-5.7215,-5.7215,-5.7215,-5.7215,-5.7215,-5.7215,-5.7215,-5.7215,-5.7215,-5.7215,-5.7215,-5.7215,-5.7215,-5.7215,-5.7215,-5.7215,-5.7215,-5.7215,-5.7173,-5.6925,-5.6676,-5.6304,-5.6895,-5.8044,-5.8915,-6.0907,-6.3598,-6.5065,-6.6538,-6.8093,-6.8538,-6.876,-6.8799,-6.877,-6.877,-6.876,-6.876,-6.876,-6.8828,-6.8886,-6.9234,-6.9612,-6.9667,-6.8188,-6.6927,-6.6298,-6.5398,-6.4768,-6.4453,-6.489,-6.5008,-6.7042,-6.7725,-6.6167,-6.7725,-6.7822,-6.6429,-6.6112,-6.6112,-6.6112,-6.6112,-6.6112,-6.6197,-6.6389,-6.7213,-6.7777,-6.8643,-6.977,-7.0448,-6.9905,-7.0013,-6.9985,-6.9574,-6.8966,-6.8633,-6.844,-6.8576,-6.8659,-6.8764,-6.8764,-6.8764,-6.8597,-6.8345,-6.7477,-6.6429,-6.5397,-6.4503,-6.3362,-6.1695,-6.0703,-6.0364,-6.0387,-6.0477,-6.0454,-6.0454,-6.0454,-6.0454,-6.0454,-6.0454,-6.0593,-6.0476,-5.9953,-5.9314,-5.8663,-5.7919,-5.7451,-5.7107,-5.7215,-5.7215,-5.7215,-5.7215,-5.7215,-5.7215,-5.7215,-5.7215,-5.7215,-5.7215,-5.7215,-5.7215,-5.7215,-5.7215,-5.7215,-5.7215,-5.7215,-5.7215,-5.7215,-5.7215,-5.7215,-5.7215,-5.7215,-5.7215,-5.7215,-5.7215,-5.7132,-5.6863,-5.6511,-5.6117]}]]